| time (UTC) | temp F | wind direction | speed MPH | gust MPH | rain 1hr in | rain 24hr in | rain mn in | humidity % | barometer mb |
| 20260508234024 | 63 | 191 | 0.0 | 0.0 | 0.00 | 0.01 | 0.01 | 51 | 1011.4 |
| 20260508233915 | 63 | 191 | 0.0 | 0.0 | 0.00 | 0.01 | 0.01 | 53 | 1011.4 |
| 20260508233822 | 63 | 140 | 0.0 | 0.0 | 0.00 | 0.01 | 0.01 | 53 | 1011.4 |
| 20260508233728 | 63 | 140 | 0.0 | 0.0 | 0.00 | 0.01 | 0.01 | 53 | 1011.4 |
| 20260508233615 | 63 | 139 | 0.0 | 0.0 | 0.00 | 0.01 | 0.01 | 56 | 1011.4 |
| 20260508233528 | 64 | 139 | 0.0 | 0.0 | 0.00 | 0.01 | 0.01 | 54 | 1011.4 |
| 20260508233418 | 64 | 139 | 0.0 | 0.0 | 0.00 | 0.01 | 0.01 | 55 | 1011.4 |
| 20260508233325 | 64 | 148 | 0.0 | 0.0 | 0.00 | 0.01 | 0.01 | 54 | 1011.3 |
| 20260508233211 | 64 | 159 | 0.0 | 0.0 | 0.00 | 0.01 | 0.01 | 52 | 1011.4 |
| 20260508233138 | 64 | 159 | 0.0 | 0.0 | 0.00 | 0.01 | 0.01 | 52 | 1011.4 |
| 20260508233030 | 64 | 159 | 0.0 | 0.0 | 0.00 | 0.01 | 0.01 | 52 | 1011.4 |
| 20260508233009 | 63 | 159 | 0.0 | 0.0 | 0.00 | 0.01 | 0.01 | 51 | 1011.4 |
| 20260508232916 | 64 | 159 | 0.0 | 0.0 | 0.00 | 0.01 | 0.01 | 52 | 1011.3 |
| 20260508232827 | 64 | 159 | 0.0 | 0.0 | 0.00 | 0.01 | 0.01 | 52 | 1011.3 |
| 20260508232713 | 64 | 159 | 0.0 | 0.0 | 0.00 | 0.01 | 0.01 | 53 | 1011.3 |
| 20260508232620 | 64 | 159 | 0.0 | 0.0 | 0.00 | 0.01 | 0.01 | 52 | 1011.3 |
| 20260508232533 | 64 | 172 | 0.0 | 0.0 | 0.00 | 0.01 | 0.01 | 55 | 1011.3 |
| 20260508232421 | 64 | 172 | 0.0 | 0.0 | 0.00 | 0.01 | 0.01 | 55 | 1011.3 |
| 20260508232311 | 65 | 172 | 0.0 | 0.0 | 0.00 | 0.01 | 0.01 | 52 | 1011.2 |
| 20260508232217 | 65 | 172 | 0.0 | 0.0 | 0.00 | 0.01 | 0.01 | 55 | 1011.2 |
| 20260508232124 | 65 | 172 | 0.0 | 0.0 | 0.00 | 0.01 | 0.01 | 58 | 1011.2 |
| 20260508232011 | 65 | 165 | 0.0 | 0.0 | 0.00 | 0.01 | 0.01 | 50 | 1011.3 |
| 20260508231944 | 65 | 165 | 0.0 | 0.0 | 0.00 | 0.01 | 0.01 | 54 | 1011.3 |
| 20260508231809 | 65 | 165 | 0.0 | 0.0 | 0.00 | 0.01 | 0.01 | 53 | 1011.3 |
| 20260508231719 | 65 | 165 | 0.0 | 0.0 | 0.00 | 0.01 | 0.01 | 51 | 1011.3 |
| 20260508231627 | 65 | 165 | 0.0 | 0.0 | 0.00 | 0.01 | 0.01 | 52 | 1011.2 |
| 20260508231539 | 66 | 165 | 0.0 | 0.0 | 0.00 | 0.01 | 0.01 | 54 | 1011.2 |
| 20260508231526 | 65 | 165 | 0.0 | 0.0 | 0.00 | 0.01 | 0.01 | 54 | 1011.2 |
| 20260508231442 | 66 | 165 | 0.0 | 0.0 | 0.00 | 0.01 | 0.01 | 48 | 1011.2 |
| 20260508231342 | 66 | 165 | 0.0 | 0.0 | 0.00 | 0.01 | 0.01 | 49 | 1011.2 |
| 20260508231228 | 66 | 169 | 0.0 | 0.0 | 0.00 | 0.01 | 0.01 | 52 | 1011.2 |
| 20260508231119 | 66 | 89 | 0.0 | 0.0 | 0.00 | 0.01 | 0.01 | 53 | 1011.2 |
| 20260508231031 | 66 | 89 | 0.0 | 0.0 | 0.00 | 0.01 | 0.01 | 45 | 1011.2 |
| 20260508230917 | 66 | 98 | 0.0 | 0.0 | 0.00 | 0.01 | 0.01 | 47 | 1011.2 |
| 20260508230824 | 66 | 107 | 0.0 | 0.0 | 0.00 | 0.01 | 0.01 | 47 | 1011.1 |
| 20260508230710 | 66 | 107 | 0.0 | 0.0 | 0.00 | 0.01 | 0.01 | 51 | 1011.2 |
| 20260508230617 | 67 | 101 | 0.0 | 0.0 | 0.00 | 0.01 | 0.01 | 47 | 1011.2 |
| 20260508230534 | 67 | 96 | 0.0 | 0.0 | 0.00 | 0.01 | 0.01 | 50 | 1011.2 |
| 20260508230413 | 67 | 96 | 0.0 | 0.0 | 0.00 | 0.01 | 0.01 | 50 | 1011.1 |
| 20260508230326 | 67 | 96 | 0.0 | 0.0 | 0.00 | 0.01 | 0.01 | 45 | 1011.1 |
| 20260508230233 | 68 | 96 | 0.0 | 0.0 | 0.00 | 0.01 | 0.01 | 53 | 1011.1 |
| 20260508230119 | 68 | 96 | 0.0 | 0.0 | 0.00 | 0.01 | 0.01 | 45 | 1011.1 |
| 20260508230027 | 67 | 76 | 0.0 | 0.0 | 0.00 | 0.01 | 0.01 | 48 | 1011.1 |
| 20260508230009 | 68 | 76 | 0.0 | 0.0 | 0.00 | 0.01 | 0.01 | 48 | 1011.1 |
| 20260508225922 | 68 | 76 | 0.0 | 0.0 | 0.00 | 0.01 | 0.01 | 47 | 1011.1 |
| 20260508225809 | 68 | 75 | 0.0 | 0.0 | 0.00 | 0.01 | 0.01 | 46 | 1011.2 |
| 20260508225715 | 68 | 75 | 0.0 | 0.0 | 0.00 | 0.01 | 0.01 | 45 | 1011.1 |
| 20260508225622 | 68 | 75 | 0.0 | 0.0 | 0.00 | 0.01 | 0.01 | 41 | 1011.1 |
| 20260508225509 | 68 | 75 | 0.0 | 0.0 | 0.00 | 0.01 | 0.01 | 41 | 1011.2 |
| 20260508225420 | 68 | 74 | 0.0 | 0.0 | 0.00 | 0.01 | 0.01 | 40 | 1011.2 |
| 20260508225333 | 68 | 43 | 0.0 | 0.0 | 0.00 | 0.01 | 0.01 | 43 | 1011.2 |
| 20260508225219 | 68 | 50 | 0.0 | 0.0 | 0.00 | 0.01 | 0.01 | 44 | 1011.2 |
| 20260508225126 | 69 | 275 | 0.0 | 0.0 | 0.00 | 0.01 | 0.01 | 46 | 1011.2 |
| 20260508225013 | 69 | 13 | 0.0 | 0.0 | 0.00 | 0.01 | 0.01 | 45 | 1011.2 |
| 20260508224926 | 69 | 159 | 0.0 | 0.0 | 0.00 | 0.01 | 0.01 | 47 | 1011.2 |
| 20260508224816 | 69 | 76 | 0.0 | 0.0 | 0.00 | 0.01 | 0.01 | 45 | 1011.2 |
| 20260508224722 | 69 | 278 | 0.0 | 0.0 | 0.00 | 0.01 | 0.01 | 45 | 1011.2 |
| 20260508224609 | 69 | 278 | 0.0 | 0.0 | 0.00 | 0.01 | 0.01 | 39 | 1011.1 |
| 20260508224548 | 68 | 278 | 0.0 | 0.0 | 0.00 | 0.01 | 0.01 | 39 | 1011.1 |
| 20260508224515 | 69 | 69 | 0.0 | 0.0 | 0.00 | 0.01 | 0.01 | 39 | 1011.2 |
| 20260508224421 | 69 | 71 | 0.0 | 0.0 | 0.00 | 0.01 | 0.01 | 39 | 1011.2 |
| 20260508224311 | 69 | 24 | 0.0 | 0.0 | 0.00 | 0.01 | 0.01 | 40 | 1011.2 |
| 20260508224224 | 69 | 71 | 0.0 | 0.0 | 0.00 | 0.01 | 0.01 | 39 | 1011.2 |
| 20260508224131 | 69 | 50 | 0.0 | 0.0 | 0.00 | 0.01 | 0.01 | 40 | 1011.1 |
| 20260508224016 | 69 | 13 | 0.0 | 0.0 | 0.00 | 0.01 | 0.01 | 40 | 1011.1 |
| 20260508223923 | 69 | 5 | 0.0 | 0.0 | 0.00 | 0.01 | 0.01 | 39 | 1011.1 |
| 20260508223809 | 69 | 58 | 0.0 | 0.0 | 0.00 | 0.01 | 0.01 | 39 | 1011.1 |
| 20260508223726 | 69 | 342 | 0.0 | 0.0 | 0.00 | 0.01 | 0.01 | 43 | 1011.1 |
| 20260508223613 | 69 | 237 | 0.0 | 0.0 | 0.00 | 0.01 | 0.01 | 41 | 1011.1 |
| 20260508223539 | 69 | 198 | 0.0 | 0.0 | 0.00 | 0.01 | 0.01 | 39 | 1011.1 |
| 20260508223431 | 69 | 271 | 0.0 | 0.0 | 0.00 | 0.01 | 0.01 | 40 | 1011.1 |
| 20260508223318 | 69 | 28 | 0.0 | 0.0 | 0.00 | 0.01 | 0.01 | 41 | 1011.0 |
| 20260508223224 | 69 | 28 | 0.0 | 0.0 | 0.00 | 0.01 | 0.01 | 40 | 1011.0 |
| 20260508223114 | 69 | 28 | 0.0 | 0.0 | 0.00 | 0.01 | 0.01 | 43 | 1011.1 |
| 20260508223047 | 68 | 26 | 0.0 | 0.0 | 0.00 | 0.01 | 0.01 | 43 | 1011.0 |
| 20260508223020 | 69 | 56 | 0.0 | 0.0 | 0.00 | 0.01 | 0.01 | 42 | 1011.1 |
| 20260508222927 | 69 | 38 | 0.0 | 0.0 | 0.00 | 0.01 | 0.01 | 45 | 1011.1 |
| 20260508222814 | 69 | 48 | 0.0 | 0.0 | 0.00 | 0.01 | 0.01 | 42 | 1011.1 |
| 20260508222723 | 69 | 53 | 0.0 | 0.0 | 0.00 | 0.01 | 0.01 | 39 | 1011.1 |
| 20260508222614 | 69 | 35 | 0.0 | 0.0 | 0.00 | 0.01 | 0.01 | 39 | 1011.1 |
| 20260508222521 | 69 | 64 | 0.0 | 0.0 | 0.00 | 0.01 | 0.01 | 40 | 1011.0 |
| 20260508222421 | 69 | 59 | 0.0 | 0.0 | 0.00 | 0.01 | 0.01 | 40 | 1011.0 |
| 20260508222334 | 69 | 63 | 0.0 | 0.0 | 0.00 | 0.01 | 0.01 | 41 | 1011.0 |
| 20260508222212 | 69 | 94 | 0.0 | 0.0 | 0.00 | 0.01 | 0.01 | 39 | 1011.1 |
| 20260508222126 | 69 | 59 | 0.0 | 0.0 | 0.00 | 0.01 | 0.01 | 39 | 1011.1 |
| 20260508222016 | 69 | 59 | 0.0 | 1.0 | 0.00 | 0.01 | 0.01 | 40 | 1011.1 |
| 20260508221923 | 70 | 109 | 0.0 | 1.0 | 0.00 | 0.01 | 0.01 | 39 | 1011.1 |
| 20260508221809 | 70 | 64 | 0.0 | 3.0 | 0.00 | 0.01 | 0.01 | 40 | 1011.1 |
| 20260508221716 | 70 | 76 | 0.0 | 3.0 | 0.00 | 0.01 | 0.01 | 39 | 1011.0 |
| 20260508221649 | 70 | 336 | 0.0 | 3.0 | 0.00 | 0.01 | 0.01 | 39 | 1011.0 |
| 20260508221604 | 69 | 95 | 0.0 | 3.0 | 0.00 | 0.01 | 0.01 | 41 | 1011.0 |
| 20260508221518 | 70 | 69 | 0.0 | 3.0 | 0.00 | 0.01 | 0.01 | 42 | 1011.0 |
| 20260508221424 | 70 | 22 | 0.0 | 3.0 | 0.00 | 0.01 | 0.01 | 38 | 1011.0 |
| 20260508221310 | 70 | 57 | 0.0 | 3.0 | 0.00 | 0.01 | 0.01 | 38 | 1011.0 |
| 20260508221217 | 70 | 48 | 0.0 | 3.0 | 0.00 | 0.01 | 0.01 | 38 | 1011.0 |
| 20260508221131 | 70 | 9 | 0.0 | 3.0 | 0.00 | 0.01 | 0.01 | 38 | 1011.0 |
| 20260508221038 | 70 | 34 | 0.0 | 3.0 | 0.00 | 0.01 | 0.01 | 38 | 1011.1 |
| 20260508220926 | 71 | 43 | 0.0 | 3.0 | 0.00 | 0.01 | 0.01 | 39 | 1011.1 |
| 20260508220813 | 71 | 32 | 0.0 | 1.0 | 0.00 | 0.01 | 0.01 | 37 | 1011.0 |
| 20260508220725 | 71 | 54 | 0.0 | 0.0 | 0.00 | 0.01 | 0.01 | 38 | 1011.0 |
| 20260508220613 | 71 | 77 | 0.0 | 5.0 | 0.00 | 0.01 | 0.01 | 37 | 1011.0 |
| 20260508220518 | 71 | 302 | 0.0 | 5.0 | 0.00 | 0.01 | 0.01 | 37 | 1011.0 |
| 20260508220445 | 71 | 251 | 0.0 | 5.0 | 0.00 | 0.01 | 0.01 | 37 | 1011.1 |
| 20260508220314 | 71 | 344 | 0.0 | 5.0 | 0.00 | 0.01 | 0.01 | 37 | 1011.0 |
| 20260508220227 | 71 | 292 | 0.0 | 5.0 | 0.00 | 0.01 | 0.01 | 37 | 1011.0 |
| 20260508220113 | 71 | 311 | 0.0 | 5.0 | 0.00 | 0.01 | 0.01 | 37 | 1011.0 |
| 20260508220056 | 71 | 319 | 0.0 | 5.0 | 0.00 | 0.01 | 0.01 | 37 | 1011.0 |
| 20260508220019 | 71 | 294 | 0.0 | 5.0 | 0.00 | 0.01 | 0.01 | 37 | 1011.0 |
| 20260508215952 | 71 | 292 | 0.0 | 5.0 | 0.00 | 0.01 | 0.01 | 37 | 1011.0 |
| 20260508215818 | 71 | 38 | 1.0 | 5.0 | 0.00 | 0.01 | 0.01 | 38 | 1011.0 |
| 20260508215709 | 71 | 36 | 0.0 | 2.0 | 0.00 | 0.01 | 0.01 | 38 | 1011.0 |
| 20260508215616 | 71 | 44 | 0.0 | 1.0 | 0.00 | 0.01 | 0.01 | 38 | 1011.0 |
| 20260508215519 | 71 | 136 | 0.0 | 1.0 | 0.00 | 0.01 | 0.01 | 38 | 1011.0 |
| 20260508215426 | 71 | 103 | 0.0 | 1.0 | 0.00 | 0.01 | 0.01 | 38 | 1011.1 |
| 20260508215312 | 71 | 96 | 0.0 | 1.0 | 0.00 | 0.01 | 0.01 | 38 | 1011.1 |
| 20260508215229 | 71 | 42 | 0.0 | 1.0 | 0.00 | 0.01 | 0.01 | 39 | 1011.1 |
| 20260508215116 | 71 | 5 | 0.0 | 1.0 | 0.00 | 0.01 | 0.01 | 39 | 1011.1 |
| 20260508215022 | 71 | 42 | 0.0 | 2.0 | 0.00 | 0.01 | 0.01 | 38 | 1011.1 |
| 20260508214909 | 71 | 40 | 0.0 | 8.0 | 0.00 | 0.01 | 0.01 | 38 | 1011.1 |
| 20260508214816 | 71 | 63 | 0.0 | 8.0 | 0.00 | 0.01 | 0.01 | 43 | 1011.2 |
| 20260508214721 | 71 | 58 | 0.0 | 8.0 | 0.00 | 0.01 | 0.01 | 39 | 1011.2 |
| 20260508214611 | 71 | 26 | 0.0 | 8.0 | 0.00 | 0.01 | 0.01 | 39 | 1011.2 |
| 20260508214524 | 71 | 35 | 0.0 | 8.0 | 0.00 | 0.01 | 0.01 | 40 | 1011.2 |
| 20260508214504 | 70 | 9 | 0.0 | 8.0 | 0.00 | 0.01 | 0.01 | 40 | 1011.2 |
| 20260508214410 | 71 | 10 | 0.0 | 8.0 | 0.00 | 0.01 | 0.01 | 38 | 1011.2 |
| 20260508214317 | 71 | 15 | 0.0 | 8.0 | 0.00 | 0.01 | 0.01 | 37 | 1011.2 |
| 20260508214250 | 71 | 315 | 1.0 | 8.0 | 0.00 | 0.01 | 0.01 | 37 | 1011.1 |
| 20260508214120 | 71 | 48 | 1.0 | 8.0 | 0.00 | 0.01 | 0.01 | 37 | 1011.2 |
| 20260508214026 | 71 | 49 | 1.0 | 8.0 | 0.00 | 0.01 | 0.01 | 38 | 1011.2 |
| 20260508213912 | 71 | 30 | 0.0 | 5.0 | 0.00 | 0.01 | 0.01 | 37 | 1011.2 |
| 20260508213825 | 71 | 87 | 0.0 | 8.0 | 0.00 | 0.01 | 0.01 | 37 | 1011.2 |
| 20260508213730 | 71 | 46 | 0.0 | 8.0 | 0.00 | 0.01 | 0.01 | 36 | 1011.2 |
| 20260508213617 | 71 | 45 | 0.0 | 8.0 | 0.00 | 0.01 | 0.01 | 37 | 1011.2 |
| 20260508213543 | 71 | 32 | 0.0 | 8.0 | 0.00 | 0.01 | 0.01 | 36 | 1011.2 |
| 20260508213439 | 71 | 52 | 1.0 | 8.0 | 0.00 | 0.01 | 0.01 | 36 | 1011.2 |
| 20260508213325 | 71 | 36 | 1.0 | 8.0 | 0.00 | 0.01 | 0.01 | 36 | 1011.2 |
| 20260508213211 | 71 | 360 | 0.0 | 8.0 | 0.00 | 0.01 | 0.01 | 37 | 1011.2 |
| 20260508213118 | 71 | 326 | 1.0 | 8.0 | 0.00 | 0.01 | 0.01 | 38 | 1011.2 |
| 20260508213031 | 71 | 265 | 1.0 | 8.0 | 0.00 | 0.01 | 0.01 | 35 | 1011.2 |
| 20260508213024 | 71 | 325 | 1.0 | 8.0 | 0.00 | 0.01 | 0.01 | 35 | 1011.2 |
| 20260508212920 | 71 | 206 | 1.0 | 8.0 | 0.00 | 0.01 | 0.01 | 36 | 1011.2 |
| 20260508212847 | 71 | 350 | 0.0 | 3.0 | 0.00 | 0.01 | 0.01 | 36 | 1011.1 |
| 20260508212713 | 71 | 304 | 0.0 | 3.0 | 0.00 | 0.01 | 0.01 | 37 | 1011.2 |
| 20260508212619 | 71 | 13 | 0.0 | 3.0 | 0.00 | 0.01 | 0.01 | 37 | 1011.2 |
| 20260508212532 | 71 | 97 | 0.0 | 1.0 | 0.00 | 0.01 | 0.01 | 37 | 1011.3 |
| 20260508212419 | 71 | 34 | 0.0 | 1.0 | 0.00 | 0.01 | 0.01 | 36 | 1011.2 |
| 20260508212309 | 71 | 226 | 0.0 | 1.0 | 0.00 | 0.01 | 0.01 | 36 | 1011.2 |
| 20260508212216 | 71 | 336 | 0.0 | 1.0 | 0.00 | 0.01 | 0.01 | 37 | 1011.2 |
| 20260508212123 | 71 | 5 | 0.0 | 2.0 | 0.00 | 0.01 | 0.01 | 39 | 1011.3 |
| 20260508212009 | 71 | 21 | 0.0 | 2.0 | 0.00 | 0.01 | 0.01 | 37 | 1011.2 |
| 20260508211916 | 71 | 311 | 0.0 | 2.0 | 0.00 | 0.01 | 0.01 | 37 | 1011.2 |
| 20260508211849 | 71 | 87 | 0.0 | 2.0 | 0.00 | 0.01 | 0.01 | 38 | 1011.3 |
| 20260508211718 | 71 | 57 | 0.0 | 2.0 | 0.00 | 0.01 | 0.01 | 38 | 1011.2 |
| 20260508211625 | 71 | 5 | 0.0 | 2.0 | 0.00 | 0.01 | 0.01 | 37 | 1011.2 |
| 20260508211531 | 71 | 69 | 0.0 | 5.0 | 0.00 | 0.01 | 0.01 | 36 | 1011.3 |
| 20260508211510 | 71 | 69 | 0.0 | 5.0 | 0.00 | 0.01 | 0.01 | 36 | 1011.2 |
| 20260508211423 | 71 | 69 | 0.0 | 5.0 | 0.00 | 0.01 | 0.01 | 37 | 1011.2 |
| 20260508211310 | 71 | 86 | 0.0 | 5.0 | 0.00 | 0.01 | 0.01 | 37 | 1011.2 |
| 20260508211221 | 71 | 56 | 0.0 | 5.0 | 0.00 | 0.01 | 0.01 | 37 | 1011.2 |
| 20260508211127 | 71 | 260 | 0.0 | 5.0 | 0.00 | 0.01 | 0.01 | 37 | 1011.3 |
| 20260508211013 | 71 | 55 | 0.0 | 5.0 | 0.00 | 0.01 | 0.01 | 37 | 1011.3 |
| 20260508210920 | 71 | 30 | 1.0 | 5.0 | 0.00 | 0.01 | 0.01 | 36 | 1011.3 |
| 20260508210833 | 71 | 65 | 1.0 | 5.0 | 0.00 | 0.01 | 0.01 | 35 | 1011.3 |
| 20260508210739 | 71 | 11 | 1.0 | 5.0 | 0.00 | 0.01 | 0.01 | 38 | 1011.3 |
| 20260508210609 | 71 | 167 | 0.0 | 4.0 | 0.00 | 0.01 | 0.01 | 35 | 1011.3 |
| 20260508210517 | 71 | 120 | 0.0 | 4.0 | 0.00 | 0.01 | 0.01 | 36 | 1011.3 |
| 20260508210429 | 71 | 23 | 0.0 | 4.0 | 0.00 | 0.01 | 0.01 | 36 | 1011.3 |
| 20260508210317 | 72 | 115 | 0.0 | 4.0 | 0.00 | 0.01 | 0.01 | 36 | 1011.3 |
| 20260508210222 | 72 | 79 | 0.0 | 4.0 | 0.00 | 0.01 | 0.01 | 34 | 1011.3 |
| 20260508210112 | 72 | 66 | 0.0 | 1.0 | 0.00 | 0.01 | 0.01 | 35 | 1011.3 |
| 20260508210049 | 71 | 22 | 0.0 | 1.0 | 0.00 | 0.01 | 0.01 | 35 | 1011.3 |
| 20260508210018 | 72 | 26 | 0.0 | 1.0 | 0.00 | 0.01 | 0.01 | 35 | 1011.3 |
| 20260508205924 | 72 | 70 | 0.0 | 1.0 | 0.00 | 0.01 | 0.01 | 35 | 1011.3 |
| 20260508205810 | 72 | 66 | 0.0 | 1.0 | 0.00 | 0.01 | 0.01 | 35 | 1011.2 |
| 20260508205723 | 72 | 26 | 0.0 | 1.0 | 0.00 | 0.01 | 0.01 | 34 | 1011.2 |
| 20260508205610 | 72 | 58 | 0.0 | 1.0 | 0.00 | 0.01 | 0.01 | 34 | 1011.3 |
| 20260508205520 | 73 | 96 | 0.0 | 1.0 | 0.00 | 0.01 | 0.01 | 33 | 1011.3 |
| 20260508205426 | 73 | 86 | 0.0 | 1.0 | 0.00 | 0.01 | 0.01 | 33 | 1011.3 |
| 20260508205312 | 73 | 113 | 0.0 | 1.0 | 0.00 | 0.01 | 0.01 | 33 | 1011.4 |
| 20260508205219 | 73 | 81 | 0.0 | 1.0 | 0.00 | 0.01 | 0.01 | 34 | 1011.4 |
| 20260508205132 | 73 | 38 | 0.0 | 1.0 | 0.00 | 0.01 | 0.01 | 34 | 1011.3 |
| 20260508205022 | 74 | 54 | 0.0 | 12.0 | 0.00 | 0.01 | 0.01 | 36 | 1011.4 |
| 20260508204909 | 74 | 36 | 0.0 | 12.0 | 0.00 | 0.01 | 0.01 | 36 | 1011.4 |
| 20260508204815 | 74 | 293 | 0.0 | 12.0 | 0.00 | 0.01 | 0.01 | 33 | 1011.4 |
| 20260508204722 | 74 | 333 | 0.0 | 12.0 | 0.00 | 0.01 | 0.01 | 34 | 1011.4 |
| 20260508204628 | 74 | 300 | 0.0 | 12.0 | 0.00 | 0.01 | 0.01 | 31 | 1011.4 |
| 20260508204532 | 74 | 232 | 0.0 | 12.0 | 0.00 | 0.01 | 0.01 | 33 | 1011.4 |
| 20260508204514 | 74 | 329 | 0.0 | 12.0 | 0.00 | 0.01 | 0.01 | 33 | 1011.4 |
| 20260508204431 | 74 | 91 | 1.0 | 12.0 | 0.00 | 0.01 | 0.01 | 31 | 1011.4 |
| 20260508204316 | 74 | 345 | 1.0 | 12.0 | 0.00 | 0.01 | 0.01 | 31 | 1011.4 |
| 20260508204223 | 74 | 316 | 1.0 | 8.0 | 0.00 | 0.01 | 0.01 | 30 | 1011.4 |
| 20260508204136 | 74 | 335 | 0.0 | 8.0 | 0.00 | 0.01 | 0.01 | 32 | 1011.4 |
| 20260508204042 | 74 | 281 | 0.0 | 8.0 | 0.00 | 0.01 | 0.01 | 28 | 1011.4 |
| 20260508203927 | 74 | 44 | 0.0 | 8.0 | 0.00 | 0.01 | 0.01 | 29 | 1011.3 |
| 20260508203816 | 75 | 61 | 0.0 | 8.0 | 0.00 | 0.01 | 0.01 | 29 | 1011.3 |
| 20260508203729 | 75 | 49 | 0.0 | 8.0 | 0.00 | 0.01 | 0.01 | 32 | 1011.3 |
| 20260508203635 | 75 | 94 | 0.0 | 8.0 | 0.00 | 0.01 | 0.01 | 29 | 1011.4 |
| 20260508203522 | 75 | 64 | 1.0 | 8.0 | 0.00 | 0.01 | 0.01 | 29 | 1011.3 |
| 20260508203428 | 75 | 294 | 1.0 | 8.0 | 0.00 | 0.01 | 0.01 | 29 | 1011.4 |
| 20260508203318 | 75 | 297 | 0.0 | 5.0 | 0.00 | 0.01 | 0.01 | 30 | 1011.4 |
| 20260508203225 | 75 | 360 | 1.0 | 5.0 | 0.00 | 0.01 | 0.01 | 30 | 1011.5 |
| 20260508203138 | 75 | 333 | 1.0 | 5.0 | 0.00 | 0.01 | 0.01 | 30 | 1011.4 |
| 20260508203104 | 74 | 32 | 1.0 | 5.0 | 0.00 | 0.01 | 0.01 | 30 | 1011.5 |
| 20260508203023 | 75 | 341 | 1.0 | 5.0 | 0.00 | 0.01 | 0.01 | 30 | 1011.4 |
| 20260508202909 | 74 | 63 | 1.0 | 5.0 | 0.00 | 0.01 | 0.01 | 33 | 1011.5 |
| 20260508202835 | 74 | 41 | 0.0 | 1.0 | 0.00 | 0.01 | 0.01 | 35 | 1011.4 |
| 20260508202748 | 74 | 22 | 0.0 | 3.0 | 0.00 | 0.01 | 0.01 | 34 | 1011.4 |
| 20260508202617 | 74 | 11 | 0.0 | 11.0 | 0.00 | 0.01 | 0.01 | 32 | 1011.5 |
| 20260508202523 | 74 | 28 | 0.0 | 11.0 | 0.00 | 0.01 | 0.01 | 32 | 1011.5 |
| 20260508202436 | 74 | 29 | 0.0 | 11.0 | 0.00 | 0.01 | 0.01 | 29 | 1011.5 |
| 20260508202341 | 74 | 321 | 0.0 | 11.0 | 0.00 | 0.01 | 0.01 | 30 | 1011.5 |
| 20260508202233 | 74 | 28 | 0.0 | 11.0 | 0.00 | 0.01 | 0.01 | 30 | 1011.5 |
| 20260508202120 | 74 | 311 | 0.0 | 11.0 | 0.00 | 0.01 | 0.01 | 29 | 1011.6 |
| 20260508202010 | 74 | 288 | 1.0 | 11.0 | 0.00 | 0.01 | 0.01 | 31 | 1011.5 |
| 20260508201916 | 74 | 302 | 2.0 | 11.0 | 0.00 | 0.01 | 0.01 | 32 | 1011.5 |
| 20260508201823 | 73 | 112 | 2.0 | 11.0 | 0.00 | 0.01 | 0.01 | 29 | 1011.5 |
| 20260508201709 | 73 | 73 | 0.0 | 3.0 | 0.00 | 0.01 | 0.01 | 32 | 1011.5 |
| 20260508201616 | 73 | 65 | 0.0 | 5.0 | 0.00 | 0.01 | 0.01 | 31 | 1011.6 |
| 20260508201529 | 73 | 346 | 0.0 | 5.0 | 0.00 | 0.01 | 0.01 | 31 | 1011.6 |
| 20260508201519 | 73 | 355 | 0.0 | 5.0 | 0.00 | 0.01 | 0.01 | 31 | 1011.6 |
| 20260508201419 | 73 | 44 | 0.0 | 5.0 | 0.00 | 0.01 | 0.01 | 31 | 1011.6 |
| 20260508201326 | 73 | 321 | 0.0 | 5.0 | 0.00 | 0.01 | 0.01 | 30 | 1011.5 |
| 20260508201212 | 73 | 73 | 0.0 | 5.0 | 0.00 | 0.01 | 0.01 | 30 | 1011.6 |
| 20260508201119 | 73 | 80 | 0.0 | 5.0 | 0.00 | 0.01 | 0.01 | 31 | 1011.6 |
| 20260508201025 | 73 | 96 | 0.0 | 5.0 | 0.00 | 0.01 | 0.01 | 30 | 1011.6 |
| 20260508200923 | 73 | 90 | 1.0 | 5.0 | 0.00 | 0.01 | 0.01 | 29 | 1011.6 |
| 20260508200848 | 74 | 204 | 1.0 | 5.0 | 0.00 | 0.01 | 0.01 | 30 | 1011.7 |
| 20260508200713 | 74 | 319 | 1.0 | 5.0 | 0.00 | 0.01 | 0.01 | 29 | 1011.7 |
| 20260508200620 | 74 | 296 | 1.0 | 5.0 | 0.00 | 0.01 | 0.01 | 30 | 1011.7 |
| 20260508200533 | 74 | 47 | 1.0 | 5.0 | 0.00 | 0.01 | 0.01 | 30 | 1011.7 |
| 20260508200439 | 74 | 70 | 0.0 | 4.0 | 0.00 | 0.01 | 0.01 | 28 | 1011.7 |
| 20260508200351 | 74 | 5 | 0.0 | 4.0 | 0.00 | 0.01 | 0.01 | 29 | 1011.7 |
| 20260508200220 | 74 | 96 | 0.0 | 4.0 | 0.00 | 0.01 | 0.01 | 30 | 1011.8 |
| 20260508200126 | 74 | 186 | 0.0 | 4.0 | 0.00 | 0.01 | 0.01 | 30 | 1011.7 |
| 20260508200058 | 74 | 186 | 0.0 | 7.0 | 0.00 | 0.01 | 0.01 | 29 | 1011.8 |
| 20260508200033 | 74 | 257 | 1.0 | 7.0 | 0.00 | 0.01 | 0.01 | 28 | 1011.7 |
| 20260508195918 | 74 | 303 | 0.0 | 7.0 | 0.00 | 0.01 | 0.01 | 30 | 1011.7 |
| 20260508195831 | 74 | 65 | 0.0 | 7.0 | 0.00 | 0.01 | 0.01 | 31 | 1011.8 |
| 20260508195721 | 74 | 38 | 0.0 | 7.0 | 0.00 | 0.01 | 0.01 | 31 | 1011.8 |
| 20260508195627 | 74 | 346 | 0.0 | 13.0 | 0.00 | 0.01 | 0.01 | 31 | 1011.8 |
| 20260508195515 | 74 | 19 | 0.0 | 13.0 | 0.00 | 0.01 | 0.01 | 32 | 1011.8 |
| 20260508195420 | 74 | 35 | 0.0 | 13.0 | 0.00 | 0.01 | 0.01 | 35 | 1011.8 |
| 20260508195333 | 74 | 286 | 1.0 | 13.0 | 0.00 | 0.01 | 0.01 | 30 | 1011.8 |
| 20260508195221 | 74 | 225 | 1.0 | 13.0 | 0.00 | 0.01 | 0.01 | 30 | 1011.8 |
| 20260508195111 | 74 | 112 | 0.0 | 13.0 | 0.00 | 0.01 | 0.01 | 30 | 1011.8 |
| 20260508195017 | 73 | 319 | 0.0 | 13.0 | 0.00 | 0.01 | 0.01 | 31 | 1011.8 |
| 20260508194924 | 73 | 97 | 2.0 | 13.0 | 0.00 | 0.01 | 0.01 | 31 | 1011.8 |
| 20260508194810 | 73 | 240 | 2.0 | 13.0 | 0.00 | 0.01 | 0.01 | 31 | 1011.9 |
| 20260508194716 | 73 | 71 | 0.0 | 6.0 | 0.00 | 0.01 | 0.01 | 32 | 1011.9 |
| 20260508194633 | 73 | 355 | 0.0 | 6.0 | 0.00 | 0.01 | 0.01 | 31 | 1011.8 |
| 20260508194621 | 72 | 5 | 0.0 | 6.0 | 0.00 | 0.01 | 0.01 | 31 | 1011.9 |
| 20260508194518 | 73 | 308 | 0.0 | 6.0 | 0.00 | 0.01 | 0.01 | 30 | 1011.8 |
| 20260508194424 | 73 | 313 | 1.0 | 6.0 | 0.00 | 0.01 | 0.01 | 29 | 1011.8 |
| 20260508194310 | 73 | 74 | 0.0 | 6.0 | 0.00 | 0.01 | 0.01 | 29 | 1012.0 |
| 20260508194243 | 73 | 49 | 0.0 | 3.0 | 0.00 | 0.01 | 0.01 | 30 | 1012.0 |
| 20260508194128 | 73 | 49 | 0.0 | 3.0 | 0.00 | 0.01 | 0.01 | 31 | 1012.0 |
| 20260508194034 | 73 | 185 | 0.0 | 5.0 | 0.00 | 0.01 | 0.01 | 30 | 1012.1 |
| 20260508193930 | 74 | 165 | 0.0 | 5.0 | 0.00 | 0.01 | 0.01 | 30 | 1012.1 |
| 20260508193817 | 74 | 112 | 0.0 | 5.0 | 0.00 | 0.01 | 0.01 | 31 | 1012.1 |
| 20260508193742 | 74 | 117 | 0.0 | 5.0 | 0.00 | 0.01 | 0.01 | 29 | 1012.1 |
| 20260508193634 | 74 | 282 | 0.0 | 5.0 | 0.00 | 0.01 | 0.01 | 30 | 1012.1 |
| 20260508193520 | 73 | 261 | 0.0 | 9.0 | 0.00 | 0.01 | 0.01 | 31 | 1012.1 |
| 20260508193411 | 73 | 242 | 0.0 | 9.0 | 0.00 | 0.01 | 0.01 | 34 | 1012.1 |
| 20260508193317 | 73 | 305 | 0.0 | 9.0 | 0.00 | 0.01 | 0.01 | 31 | 1012.1 |
| 20260508193223 | 73 | 284 | 0.0 | 9.0 | 0.00 | 0.01 | 0.01 | 31 | 1012.1 |
| 20260508193110 | 73 | 13 | 0.0 | 9.0 | 0.00 | 0.01 | 0.01 | 31 | 1012.1 |
| 20260508193029 | 73 | 312 | 0.0 | 9.0 | 0.00 | 0.01 | 0.01 | 31 | 1012.2 |
| 20260508193016 | 73 | 24 | 0.0 | 9.0 | 0.00 | 0.01 | 0.01 | 30 | 1012.1 |
| 20260508192929 | 73 | 57 | 0.0 | 9.0 | 0.00 | 0.01 | 0.01 | 30 | 1012.1 |
| 20260508192839 | 73 | 11 | 1.0 | 9.0 | 0.00 | 0.01 | 0.01 | 31 | 1012.2 |
| 20260508192725 | 73 | 134 | 1.0 | 9.0 | 0.00 | 0.01 | 0.01 | 31 | 1012.2 |
| 20260508192611 | 73 | 84 | 0.0 | 1.0 | 0.00 | 0.01 | 0.01 | 31 | 1012.1 |
| 20260508192524 | 73 | 360 | 0.0 | 1.0 | 0.00 | 0.01 | 0.01 | 31 | 1012.1 |
| 20260508192431 | 73 | 355 | 0.0 | 1.0 | 0.00 | 0.01 | 0.01 | 30 | 1012.1 |
| 20260508192317 | 73 | 40 | 0.0 | 1.0 | 0.00 | 0.01 | 0.01 | 31 | 1012.2 |
| 20260508192227 | 73 | 329 | 0.0 | 1.0 | 0.00 | 0.01 | 0.01 | 31 | 1012.1 |
| 20260508192113 | 73 | 274 | 0.0 | 1.0 | 0.00 | 0.01 | 0.01 | 31 | 1012.2 |
| 20260508192018 | 73 | 29 | 0.0 | 1.0 | 0.00 | 0.01 | 0.01 | 30 | 1012.2 |
| 20260508191932 | 73 | 315 | 0.0 | 1.0 | 0.00 | 0.01 | 0.01 | 30 | 1012.2 |
| 20260508191838 | 73 | 304 | 0.0 | 1.0 | 0.00 | 0.01 | 0.01 | 31 | 1012.2 |
| 20260508191724 | 73 | 109 | 0.0 | 1.0 | 0.00 | 0.01 | 0.01 | 33 | 1012.2 |
| 20260508191637 | 72 | 32 | 0.0 | 1.0 | 0.00 | 0.01 | 0.01 | 30 | 1012.3 |
| 20260508191614 | 73 | 51 | 0.0 | 1.0 | 0.00 | 0.01 | 0.01 | 30 | 1012.3 |
| 20260508191547 | 73 | 66 | 0.0 | 1.0 | 0.00 | 0.01 | 0.01 | 30 | 1012.3 |
| 20260508191434 | 73 | 90 | 0.0 | 2.0 | 0.00 | 0.01 | 0.01 | 31 | 1012.4 |
| 20260508191319 | 73 | 257 | 0.0 | 2.0 | 0.00 | 0.01 | 0.01 | 33 | 1012.4 |
| 20260508191232 | 73 | 251 | 0.0 | 2.0 | 0.00 | 0.01 | 0.01 | 30 | 1012.5 |
| 20260508191118 | 72 | 167 | 0.0 | 6.0 | 0.00 | 0.01 | 0.01 | 30 | 1012.4 |
| 20260508191029 | 72 | 304 | 0.0 | 6.0 | 0.00 | 0.01 | 0.01 | 31 | 1012.5 |
| 20260508190916 | 72 | 5 | 0.0 | 6.0 | 0.00 | 0.01 | 0.01 | 34 | 1012.5 |
| 20260508190821 | 72 | 355 | 0.0 | 6.0 | 0.00 | 0.01 | 0.01 | 31 | 1012.5 |
| 20260508190734 | 72 | 325 | 0.0 | 6.0 | 0.00 | 0.01 | 0.01 | 32 | 1012.6 |
| 20260508190614 | 72 | 9 | 0.0 | 6.0 | 0.00 | 0.01 | 0.01 | 30 | 1012.6 |
| 20260508190531 | 72 | 355 | 0.0 | 6.0 | 0.00 | 0.01 | 0.01 | 30 | 1012.6 |
| 20260508190418 | 72 | 346 | 2.0 | 6.0 | 0.00 | 0.01 | 0.01 | 31 | 1012.6 |
| 20260508190344 | 73 | 355 | 2.0 | 6.0 | 0.00 | 0.01 | 0.01 | 31 | 1012.5 |
| 20260508190229 | 73 | 29 | 0.0 | 5.0 | 0.00 | 0.01 | 0.01 | 30 | 1012.6 |
| 20260508190113 | 73 | 355 | 0.0 | 9.0 | 0.00 | 0.01 | 0.01 | 32 | 1012.7 |
| 20260508190058 | 72 | 5 | 0.0 | 9.0 | 0.00 | 0.01 | 0.01 | 32 | 1012.8 |
| 20260508190019 | 73 | 17 | 0.0 | 9.0 | 0.00 | 0.01 | 0.01 | 29 | 1012.7 |
| 20260508185953 | 73 | 94 | 0.0 | 9.0 | 0.00 | 0.01 | 0.01 | 32 | 1012.7 |
| 20260508185820 | 73 | 58 | 0.0 | 9.0 | 0.00 | 0.01 | 0.01 | 30 | 1012.6 |
| 20260508185727 | 73 | 85 | 0.0 | 9.0 | 0.00 | 0.01 | 0.01 | 29 | 1012.7 |
| 20260508185613 | 73 | 69 | 1.0 | 9.0 | 0.00 | 0.01 | 0.01 | 34 | 1012.7 |
| 20260508185519 | 73 | 50 | 1.0 | 9.0 | 0.00 | 0.01 | 0.01 | 30 | 1012.7 |
| 20260508185452 | 73 | 302 | 1.0 | 9.0 | 0.00 | 0.01 | 0.01 | 31 | 1012.7 |
| 20260508185318 | 73 | 272 | 1.0 | 9.0 | 0.00 | 0.01 | 0.01 | 30 | 1012.7 |
| 20260508185217 | 73 | 288 | 0.0 | 9.0 | 0.00 | 0.01 | 0.01 | 30 | 1012.7 |
| 20260508185123 | 73 | 84 | 2.0 | 9.0 | 0.00 | 0.01 | 0.01 | 30 | 1012.8 |
| 20260508185009 | 73 | 322 | 3.0 | 9.0 | 0.00 | 0.01 | 0.01 | 32 | 1012.8 |
| 20260508184922 | 73 | 332 | 2.0 | 8.0 | 0.00 | 0.01 | 0.01 | 30 | 1012.8 |
| 20260508184810 | 73 | 290 | 1.0 | 8.0 | 0.00 | 0.01 | 0.01 | 31 | 1012.8 |
| 20260508184719 | 73 | 319 | 1.0 | 8.0 | 0.00 | 0.01 | 0.01 | 32 | 1012.8 |
| 20260508184626 | 73 | 348 | 1.0 | 8.0 | 0.00 | 0.01 | 0.01 | 31 | 1012.8 |
| 20260508184543 | 72 | 286 | 1.0 | 8.0 | 0.00 | 0.01 | 0.01 | 33 | 1012.9 |
| 20260508184512 | 73 | 286 | 1.0 | 8.0 | 0.00 | 0.01 | 0.01 | 32 | 1012.8 |
| 20260508184418 | 73 | 360 | 0.0 | 4.0 | 0.00 | 0.01 | 0.01 | 31 | 1012.8 |
| 20260508184331 | 73 | 321 | 0.0 | 4.0 | 0.00 | 0.01 | 0.01 | 31 | 1012.8 |
| 20260508184221 | 73 | 294 | 0.0 | 8.0 | 0.00 | 0.01 | 0.01 | 31 | 1012.9 |
| 20260508184128 | 73 | 107 | 0.0 | 8.0 | 0.00 | 0.01 | 0.01 | 30 | 1012.9 |
| 20260508184014 | 72 | 279 | 0.0 | 8.0 | 0.00 | 0.01 | 0.01 | 30 | 1012.9 |
| 20260508183921 | 72 | 18 | 0.0 | 11.0 | 0.00 | 0.01 | 0.01 | 31 | 1012.9 |
| 20260508183827 | 72 | 355 | 0.0 | 11.0 | 0.00 | 0.01 | 0.01 | 32 | 1012.9 |
| 20260508183713 | 72 | 77 | 0.0 | 11.0 | 0.00 | 0.01 | 0.01 | 32 | 1013.0 |
| 20260508183630 | 72 | 334 | 1.0 | 11.0 | 0.00 | 0.01 | 0.01 | 31 | 1013.0 |
| 20260508183516 | 72 | 52 | 3.0 | 11.0 | 0.00 | 0.01 | 0.01 | 30 | 1013.0 |
| 20260508183422 | 72 | 355 | 2.0 | 11.0 | 0.00 | 0.01 | 0.01 | 28 | 1013.0 |
| 20260508183327 | 72 | 304 | 0.0 | 11.0 | 0.00 | 0.01 | 0.01 | 30 | 1013.1 |
| 20260508183215 | 72 | 322 | 4.0 | 11.0 | 0.00 | 0.01 | 0.01 | 30 | 1013.2 |
| 20260508183131 | 73 | 328 | 4.0 | 11.0 | 0.00 | 0.01 | 0.01 | 29 | 1013.2 |
| 20260508183018 | 73 | 311 | 0.0 | 9.0 | 0.00 | 0.01 | 0.01 | 32 | 1013.1 |
| 20260508183010 | 72 | 5 | 0.0 | 9.0 | 0.00 | 0.01 | 0.01 | 32 | 1013.1 |
| 20260508182924 | 73 | 331 | 0.0 | 9.0 | 0.00 | 0.01 | 0.01 | 33 | 1013.0 |
| 20260508182850 | 72 | 44 | 0.0 | 9.0 | 0.00 | 0.01 | 0.01 | 32 | 1013.1 |
| 20260508182716 | 72 | 207 | 1.0 | 9.0 | 0.00 | 0.01 | 0.01 | 30 | 1013.1 |
| 20260508182628 | 72 | 232 | 1.0 | 9.0 | 0.00 | 0.01 | 0.01 | 30 | 1013.1 |
| 20260508182518 | 72 | 121 | 1.0 | 6.0 | 0.00 | 0.01 | 0.01 | 30 | 1013.2 |
| 20260508182424 | 72 | 30 | 0.0 | 6.0 | 0.00 | 0.01 | 0.01 | 30 | 1013.2 |
| 20260508182310 | 72 | 303 | 0.0 | 6.0 | 0.00 | 0.01 | 0.01 | 39 | 1013.2 |
| 20260508182243 | 72 | 80 | 1.0 | 6.0 | 0.00 | 0.01 | 0.01 | 32 | 1013.2 |
| 20260508182130 | 72 | 67 | 1.0 | 8.0 | 0.00 | 0.01 | 0.01 | 34 | 1013.2 |
| 20260508182035 | 72 | 75 | 0.0 | 9.0 | 0.00 | 0.01 | 0.01 | 35 | 1013.3 |
| 20260508181932 | 72 | 5 | 0.0 | 9.0 | 0.00 | 0.01 | 0.01 | 33 | 1013.2 |
| 20260508181816 | 72 | 9 | 1.0 | 9.0 | 0.00 | 0.01 | 0.01 | 33 | 1013.2 |
| 20260508181723 | 72 | 306 | 3.0 | 9.0 | 0.00 | 0.01 | 0.01 | 34 | 1013.2 |
| 20260508181610 | 72 | 49 | 2.0 | 10.0 | 0.00 | 0.01 | 0.01 | 33 | 1013.2 |
| 20260508181554 | 71 | 5 | 1.0 | 10.0 | 0.00 | 0.01 | 0.01 | 31 | 1013.3 |
| 20260508181516 | 72 | 350 | 1.0 | 10.0 | 0.00 | 0.01 | 0.01 | 33 | 1013.2 |
| 20260508181429 | 72 | 336 | 1.0 | 10.0 | 0.00 | 0.01 | 0.01 | 33 | 1013.3 |
| 20260508181319 | 72 | 64 | 2.0 | 10.0 | 0.00 | 0.01 | 0.01 | 32 | 1013.4 |
| 20260508181225 | 72 | 34 | 1.0 | 10.0 | 0.00 | 0.01 | 0.01 | 33 | 1013.4 |
| 20260508181112 | 72 | 88 | 0.0 | 10.0 | 0.00 | 0.01 | 0.01 | 33 | 1013.4 |
| 20260508181018 | 72 | 306 | 1.0 | 10.0 | 0.00 | 0.01 | 0.01 | 33 | 1013.4 |
| 20260508180925 | 72 | 270 | 3.0 | 10.0 | 0.00 | 0.01 | 0.01 | 32 | 1013.4 |
| 20260508180815 | 72 | 90 | 4.0 | 10.0 | 0.00 | 0.01 | 0.01 | 34 | 1013.6 |
| 20260508180728 | 72 | 76 | 1.0 | 10.0 | 0.00 | 0.01 | 0.01 | 33 | 1013.6 |
| 20260508180615 | 72 | 11 | 1.0 | 10.0 | 0.00 | 0.01 | 0.01 | 33 | 1013.6 |
| 20260508180521 | 71 | 278 | 2.0 | 10.0 | 0.00 | 0.01 | 0.01 | 33 | 1013.6 |
| 20260508180428 | 72 | 82 | 2.0 | 10.0 | 0.00 | 0.01 | 0.01 | 32 | 1013.5 |
| 20260508180334 | 72 | 277 | 0.0 | 6.0 | 0.00 | 0.01 | 0.01 | 32 | 1013.6 |
| 20260508180212 | 72 | 328 | 0.0 | 8.0 | 0.00 | 0.01 | 0.01 | 31 | 1013.5 |
| 20260508180118 | 72 | 313 | 0.0 | 8.0 | 0.00 | 0.01 | 0.01 | 33 | 1013.5 |
| 20260508180101 | 71 | 355 | 0.0 | 8.0 | 0.00 | 0.01 | 0.01 | 33 | 1013.6 |
| 20260508180024 | 71 | 327 | 0.0 | 8.0 | 0.00 | 0.01 | 0.01 | 31 | 1013.5 |
| 20260508175911 | 72 | 5 | 0.0 | 8.0 | 0.00 | 0.01 | 0.01 | 30 | 1013.6 |
| 20260508175817 | 72 | 318 | 0.0 | 8.0 | 0.00 | 0.01 | 0.01 | 32 | 1013.6 |
| 20260508175731 | 72 | 14 | 1.0 | 8.0 | 0.00 | 0.01 | 0.01 | 31 | 1013.7 |
| 20260508175641 | 72 | 261 | 2.0 | 9.0 | 0.00 | 0.01 | 0.01 | 30 | 1013.7 |
| 20260508175526 | 72 | 123 | 2.0 | 9.0 | 0.00 | 0.01 | 0.01 | 31 | 1013.8 |
| 20260508175411 | 72 | 19 | 1.0 | 9.0 | 0.00 | 0.01 | 0.01 | 32 | 1013.8 |
| 20260508175317 | 72 | 259 | 1.0 | 9.0 | 0.00 | 0.01 | 0.01 | 32 | 1013.8 |
| 20260508175230 | 72 | 86 | 1.0 | 9.0 | 0.00 | 0.01 | 0.01 | 35 | 1013.8 |
| 20260508175115 | 72 | 244 | 1.0 | 9.0 | 0.00 | 0.01 | 0.01 | 33 | 1013.8 |
| 20260508175053 | 72 | 311 | 1.0 | 9.0 | 0.00 | 0.01 | 0.01 | 32 | 1013.8 |
| 20260508174917 | 72 | 315 | 3.0 | 9.0 | 0.00 | 0.01 | 0.01 | 34 | 1013.8 |
| 20260508174843 | 72 | 126 | 3.0 | 9.0 | 0.00 | 0.01 | 0.01 | 33 | 1013.7 |
| 20260508174709 | 72 | 15 | 2.0 | 9.0 | 0.00 | 0.01 | 0.01 | 32 | 1013.8 |
| 20260508174622 | 72 | 182 | 2.0 | 8.0 | 0.00 | 0.01 | 0.01 | 32 | 1013.8 |
| 20260508174611 | 71 | 298 | 2.0 | 8.0 | 0.00 | 0.01 | 0.01 | 33 | 1013.9 |
| 20260508174528 | 72 | 57 | 1.0 | 6.0 | 0.00 | 0.01 | 0.01 | 33 | 1013.8 |
| 20260508174418 | 72 | 81 | 1.0 | 6.0 | 0.00 | 0.02 | 0.01 | 33 | 1013.9 |
| 20260508174351 | 72 | 315 | 0.0 | 6.0 | 0.00 | 0.02 | 0.01 | 36 | 1013.9 |
| 20260508174209 | 71 | 292 | 1.0 | 8.0 | 0.00 | 0.02 | 0.01 | 35 | 1014.0 |
| 20260508174122 | 71 | 276 | 1.0 | 8.0 | 0.00 | 0.02 | 0.01 | 31 | 1014.0 |
| 20260508174048 | 71 | 293 | 1.0 | 8.0 | 0.00 | 0.02 | 0.01 | 32 | 1014.0 |
| 20260508173940 | 71 | 311 | 1.0 | 8.0 | 0.00 | 0.02 | 0.01 | 32 | 1014.0 |
| 20260508173810 | 71 | 5 | 1.0 | 11.0 | 0.00 | 0.02 | 0.01 | 33 | 1014.0 |
| 20260508173736 | 71 | 108 | 2.0 | 11.0 | 0.00 | 0.02 | 0.01 | 35 | 1014.0 |
| 20260508173627 | 71 | 322 | 2.0 | 11.0 | 0.00 | 0.02 | 0.01 | 31 | 1014.0 |
| 20260508173513 | 71 | 319 | 2.0 | 11.0 | 0.00 | 0.02 | 0.01 | 32 | 1014.1 |
| 20260508173419 | 71 | 264 | 1.0 | 11.0 | 0.00 | 0.02 | 0.01 | 32 | 1014.1 |
| 20260508173352 | 71 | 310 | 0.0 | 11.0 | 0.00 | 0.02 | 0.01 | 35 | 1014.0 |
| 20260508173211 | 71 | 45 | 1.0 | 11.0 | 0.00 | 0.02 | 0.01 | 34 | 1014.1 |
| 20260508173128 | 71 | 295 | 2.0 | 11.0 | 0.00 | 0.02 | 0.01 | 32 | 1014.1 |
| 20260508173103 | 70 | 216 | 2.0 | 11.0 | 0.00 | 0.02 | 0.01 | 32 | 1014.1 |
| 20260508173013 | 71 | 36 | 2.0 | 11.0 | 0.00 | 0.02 | 0.01 | 32 | 1014.0 |
| 20260508172940 | 71 | 57 | 0.0 | 10.0 | 0.00 | 0.02 | 0.01 | 34 | 1014.0 |
| 20260508172832 | 71 | 60 | 0.0 | 10.0 | 0.00 | 0.02 | 0.01 | 34 | 1014.0 |
| 20260508172718 | 70 | 360 | 0.0 | 10.0 | 0.00 | 0.02 | 0.01 | 35 | 1014.0 |
| 20260508172645 | 70 | 53 | 1.0 | 10.0 | 0.00 | 0.02 | 0.01 | 34 | 1014.1 |
| 20260508172514 | 70 | 307 | 2.0 | 10.0 | 0.00 | 0.02 | 0.01 | 34 | 1014.1 |
| 20260508172427 | 70 | 120 | 4.0 | 10.0 | 0.00 | 0.02 | 0.01 | 35 | 1014.1 |
| 20260508172314 | 71 | 82 | 4.0 | 10.0 | 0.00 | 0.02 | 0.01 | 31 | 1014.2 |
| 20260508172219 | 71 | 65 | 4.0 | 10.0 | 0.00 | 0.02 | 0.01 | 34 | 1014.2 |
| 20260508172125 | 71 | 215 | 2.0 | 10.0 | 0.00 | 0.02 | 0.01 | 34 | 1014.2 |
| 20260508172012 | 71 | 20 | 0.0 | 12.0 | 0.00 | 0.02 | 0.01 | 33 | 1014.2 |
| 20260508171917 | 71 | 260 | 0.0 | 12.0 | 0.00 | 0.02 | 0.01 | 33 | 1014.2 |
| 20260508171830 | 71 | 300 | 0.0 | 12.0 | 0.00 | 0.02 | 0.01 | 31 | 1014.1 |
| 20260508171716 | 71 | 238 | 1.0 | 12.0 | 0.00 | 0.02 | 0.01 | 32 | 1014.2 |
| 20260508171623 | 71 | 331 | 1.0 | 12.0 | 0.00 | 0.02 | 0.01 | 32 | 1014.2 |
| 20260508171556 | 70 | 290 | 0.0 | 12.0 | 0.00 | 0.02 | 0.01 | 34 | 1014.4 |
| 20260508171530 | 70 | 306 | 0.0 | 12.0 | 0.00 | 0.02 | 0.01 | 32 | 1014.2 |
| 20260508171426 | 71 | 105 | 1.0 | 12.0 | 0.00 | 0.02 | 0.01 | 33 | 1014.2 |
| 20260508171333 | 71 | 11 | 4.0 | 12.0 | 0.00 | 0.02 | 0.01 | 31 | 1014.3 |
| 20260508171239 | 71 | 109 | 3.0 | 12.0 | 0.00 | 0.02 | 0.01 | 31 | 1014.3 |
| 20260508171151 | 71 | 112 | 1.0 | 12.0 | 0.00 | 0.02 | 0.01 | 34 | 1014.4 |
| 20260508171016 | 71 | 284 | 0.0 | 8.0 | 0.00 | 0.02 | 0.01 | 33 | 1014.3 |
| 20260508170922 | 71 | 29 | 0.0 | 8.0 | 0.00 | 0.02 | 0.01 | 36 | 1014.3 |
| 20260508170812 | 71 | 55 | 1.0 | 8.0 | 0.00 | 0.02 | 0.01 | 33 | 1014.3 |
| 20260508170718 | 71 | 45 | 0.0 | 8.0 | 0.00 | 0.02 | 0.01 | 37 | 1014.3 |
| 20260508170631 | 71 | 245 | 0.0 | 8.0 | 0.00 | 0.02 | 0.01 | 38 | 1014.4 |
| 20260508170519 | 71 | 300 | 2.0 | 8.0 | 0.00 | 0.02 | 0.01 | 34 | 1014.3 |
| 20260508170445 | 71 | 313 | 2.0 | 8.0 | 0.00 | 0.02 | 0.01 | 32 | 1014.3 |
| 20260508170327 | 71 | 360 | 0.0 | 0.0 | 0.00 | 0.02 | 0.01 | 35 | 1014.3 |
| 20260508170300 | 71 | 11 | 0.0 | 0.0 | 0.00 | 0.02 | 0.01 | 38 | 1014.4 |
| 20260508170118 | 70 | 336 | 0.0 | 0.0 | 0.00 | 0.02 | 0.01 | 40 | 1014.3 |
| 20260508170037 | 70 | 12 | 0.0 | 7.0 | 0.00 | 0.02 | 0.01 | 42 | 1014.5 |
| 20260508170021 | 70 | 346 | 0.0 | 7.0 | 0.00 | 0.02 | 0.01 | 42 | 1014.3 |
| 20260508165933 | 70 | 35 | 0.0 | 7.0 | 0.00 | 0.02 | 0.01 | 35 | 1014.3 |
| 20260508165840 | 70 | 312 | 0.0 | 7.0 | 0.00 | 0.02 | 0.01 | 34 | 1014.4 |
| 20260508165724 | 70 | 311 | 0.0 | 7.0 | 0.00 | 0.02 | 0.01 | 34 | 1014.3 |
| 20260508165610 | 70 | 344 | 0.0 | 7.0 | 0.00 | 0.02 | 0.01 | 38 | 1014.3 |
| 20260508165548 | 70 | 5 | 0.0 | 7.0 | 0.00 | 0.02 | 0.01 | 36 | 1014.3 |
| 20260508165412 | 70 | 313 | 0.0 | 7.0 | 0.00 | 0.02 | 0.01 | 37 | 1014.5 |
| 20260508165319 | 69 | 26 | 1.0 | 7.0 | 0.00 | 0.02 | 0.01 | 34 | 1014.5 |
| 20260508165250 | 69 | 79 | 1.0 | 7.0 | 0.00 | 0.02 | 0.01 | 34 | 1014.5 |
| 20260508165137 | 69 | 29 | 0.0 | 1.0 | 0.00 | 0.02 | 0.01 | 37 | 1014.5 |
| 20260508165018 | 69 | 135 | 0.0 | 1.0 | 0.00 | 0.02 | 0.01 | 34 | 1014.5 |
| 20260508164931 | 69 | 69 | 0.0 | 1.0 | 0.00 | 0.02 | 0.01 | 34 | 1014.5 |
| 20260508164818 | 69 | 77 | 0.0 | 1.0 | 0.00 | 0.02 | 0.01 | 35 | 1014.6 |
| 20260508164723 | 69 | 48 | 0.0 | 0.0 | 0.00 | 0.02 | 0.01 | 34 | 1014.6 |
| 20260508164626 | 69 | 54 | 0.0 | 4.0 | 0.00 | 0.02 | 0.01 | 35 | 1014.6 |
| 20260508164537 | 69 | 74 | 0.0 | 12.0 | 0.00 | 0.02 | 0.01 | 37 | 1014.8 |
| 20260508164513 | 69 | 93 | 0.0 | 12.0 | 0.00 | 0.02 | 0.01 | 37 | 1014.8 |
| 20260508164418 | 69 | 315 | 0.0 | 12.0 | 0.00 | 0.02 | 0.01 | 42 | 1014.8 |
| 20260508164335 | 69 | 101 | 0.0 | 12.0 | 0.00 | 0.02 | 0.01 | 36 | 1014.8 |
| 20260508164221 | 69 | 155 | 0.0 | 12.0 | 0.00 | 0.02 | 0.01 | 35 | 1014.8 |
| 20260508164127 | 69 | 80 | 0.0 | 12.0 | 0.00 | 0.02 | 0.01 | 33 | 1014.8 |
| 20260508164041 | 69 | 292 | 0.0 | 12.0 | 0.00 | 0.02 | 0.01 | 40 | 1014.9 |
| 20260508163959 | 69 | 299 | 2.0 | 12.0 | 0.00 | 0.02 | 0.01 | 35 | 1014.9 |
| 20260508163837 | 70 | 13 | 4.0 | 12.0 | 0.00 | 0.02 | 0.01 | 35 | 1014.9 |
| 20260508163713 | 70 | 344 | 2.0 | 11.0 | 0.00 | 0.02 | 0.01 | 35 | 1014.8 |
| 20260508163616 | 70 | 131 | 0.0 | 9.0 | 0.00 | 0.02 | 0.01 | 36 | 1014.8 |
| 20260508163523 | 70 | 113 | 1.0 | 9.0 | 0.00 | 0.02 | 0.01 | 36 | 1014.9 |
| 20260508163436 | 70 | 182 | 1.0 | 9.0 | 0.00 | 0.02 | 0.01 | 36 | 1014.9 |
| 20260508163334 | 69 | 20 | 0.0 | 5.0 | 0.00 | 0.02 | 0.01 | 43 | 1014.9 |
| 20260508163240 | 69 | 281 | 0.0 | 5.0 | 0.00 | 0.02 | 0.01 | 41 | 1014.8 |
| 20260508163138 | 69 | 38 | 0.0 | 5.0 | 0.00 | 0.02 | 0.01 | 40 | 1015.0 |
| 20260508163125 | 69 | 45 | 0.0 | 5.0 | 0.00 | 0.02 | 0.01 | 40 | 1014.9 |
| 20260508163059 | 69 | 71 | 1.0 | 5.0 | 0.00 | 0.02 | 0.01 | 34 | 1014.9 |
| 20260508163016 | 69 | 71 | 1.0 | 5.0 | 0.00 | 0.02 | 0.01 | 34 | 1014.9 |
| 20260508162926 | 69 | 46 | 1.0 | 5.0 | 0.00 | 0.02 | 0.01 | 34 | 1014.9 |
| 20260508162812 | 69 | 18 | 1.0 | 9.0 | 0.00 | 0.02 | 0.01 | 36 | 1014.9 |
| 20260508162725 | 69 | 237 | 1.0 | 9.0 | 0.00 | 0.02 | 0.01 | 34 | 1014.9 |
| 20260508162612 | 70 | 261 | 1.0 | 9.0 | 0.00 | 0.02 | 0.01 | 34 | 1014.9 |
| 20260508162518 | 70 | 274 | 1.0 | 9.0 | 0.00 | 0.02 | 0.01 | 34 | 1014.9 |
| 20260508162409 | 70 | 300 | 0.0 | 9.0 | 0.00 | 0.02 | 0.01 | 37 | 1014.9 |
| 20260508162315 | 70 | 100 | 0.0 | 9.0 | 0.00 | 0.02 | 0.01 | 38 | 1014.9 |
| 20260508162222 | 70 | 118 | 0.0 | 9.0 | 0.00 | 0.02 | 0.01 | 36 | 1014.9 |
| 20260508162109 | 70 | 201 | 3.0 | 9.0 | 0.00 | 0.02 | 0.01 | 35 | 1014.9 |
| 20260508162042 | 70 | 241 | 4.0 | 9.0 | 0.00 | 0.02 | 0.01 | 37 | 1014.9 |
| 20260508161954 | 70 | 14 | 2.0 | 6.0 | 0.00 | 0.02 | 0.01 | 36 | 1014.9 |
| 20260508161823 | 70 | 29 | 0.0 | 2.0 | 0.00 | 0.02 | 0.01 | 38 | 1014.9 |
| 20260508161709 | 69 | 325 | 0.0 | 2.0 | 0.00 | 0.02 | 0.01 | 37 | 1014.9 |
| 20260508161616 | 69 | 50 | 0.0 | 2.0 | 0.00 | 0.02 | 0.01 | 38 | 1014.9 |
| 20260508161556 | 69 | 16 | 0.0 | 1.0 | 0.00 | 0.02 | 0.01 | 38 | 1015.1 |
| 20260508161522 | 69 | 355 | 0.0 | 0.0 | 0.00 | 0.02 | 0.01 | 37 | 1015.0 |
| 20260508161436 | 69 | 292 | 0.0 | 0.0 | 0.00 | 0.02 | 0.01 | 36 | 1015.0 |
| 20260508161320 | 69 | 290 | 0.0 | 0.0 | 0.00 | 0.02 | 0.01 | 34 | 1015.0 |
| 20260508161243 | 69 | 277 | 0.0 | 0.0 | 0.00 | 0.02 | 0.01 | 43 | 1015.1 |
| 20260508161135 | 69 | 91 | 0.0 | 0.0 | 0.00 | 0.02 | 0.01 | 43 | 1015.2 |
| 20260508161036 | 69 | 18 | 0.0 | 0.0 | 0.00 | 0.02 | 0.01 | 45 | 1015.3 |
| 20260508160919 | 69 | 72 | 0.0 | 0.0 | 0.00 | 0.02 | 0.01 | 41 | 1015.3 |
| 20260508160833 | 68 | 71 | 0.0 | 0.0 | 0.00 | 0.02 | 0.01 | 37 | 1015.3 |
| 20260508160719 | 68 | 120 | 0.0 | 0.0 | 0.00 | 0.02 | 0.01 | 35 | 1015.3 |
| 20260508160626 | 68 | 321 | 0.0 | 0.0 | 0.00 | 0.02 | 0.01 | 37 | 1015.3 |
| 20260508160517 | 68 | 292 | 0.0 | 0.0 | 0.00 | 0.02 | 0.01 | 35 | 1015.3 |
| 20260508160450 | 68 | 311 | 0.0 | 0.0 | 0.00 | 0.02 | 0.01 | 35 | 1015.4 |
| 20260508160314 | 68 | 9 | 0.0 | 8.0 | 0.00 | 0.02 | 0.01 | 35 | 1015.4 |
| 20260508160222 | 68 | 12 | 0.0 | 8.0 | 0.00 | 0.02 | 0.01 | 35 | 1015.4 |
| 20260508160128 | 68 | 279 | 0.0 | 8.0 | 0.00 | 0.02 | 0.01 | 38 | 1015.5 |
| 20260508160032 | 68 | 5 | 0.0 | 8.0 | 0.00 | 0.02 | 0.01 | 38 | 1015.7 |
| 20260508160015 | 68 | 305 | 0.0 | 8.0 | 0.00 | 0.02 | 0.01 | 37 | 1015.5 |
| 20260508155931 | 68 | 245 | 0.0 | 8.0 | 0.00 | 0.02 | 0.01 | 37 | 1015.5 |
| 20260508155817 | 68 | 58 | 0.0 | 8.0 | 0.00 | 0.02 | 0.01 | 40 | 1015.6 |
| 20260508155721 | 68 | 49 | 1.0 | 8.0 | 0.00 | 0.02 | 0.01 | 34 | 1015.6 |
| 20260508155620 | 68 | 340 | 3.0 | 9.0 | 0.00 | 0.02 | 0.01 | 37 | 1015.6 |
| 20260508155547 | 68 | 252 | 2.0 | 9.0 | 0.00 | 0.02 | 0.01 | 37 | 1015.6 |
| 20260508155431 | 68 | 299 | 0.0 | 9.0 | 0.00 | 0.02 | 0.01 | 41 | 1015.6 |
| 20260508155327 | 68 | 49 | 0.0 | 9.0 | 0.00 | 0.02 | 0.01 | 35 | 1015.6 |
| 20260508155233 | 68 | 55 | 0.0 | 9.0 | 0.00 | 0.02 | 0.01 | 37 | 1015.6 |
| 20260508155118 | 68 | 294 | 0.0 | 9.0 | 0.00 | 0.02 | 0.01 | 35 | 1015.6 |
| 20260508155018 | 68 | 306 | 2.0 | 9.0 | 0.00 | 0.02 | 0.01 | 38 | 1015.6 |
| 20260508154930 | 68 | 321 | 4.0 | 9.0 | 0.00 | 0.02 | 0.01 | 39 | 1015.7 |
| 20260508154834 | 69 | 149 | 2.0 | 9.0 | 0.00 | 0.02 | 0.01 | 35 | 1015.8 |
| 20260508154710 | 68 | 288 | 0.0 | 0.0 | 0.00 | 0.02 | 0.01 | 40 | 1015.7 |
| 20260508154636 | 68 | 9 | 0.0 | 0.0 | 0.00 | 0.02 | 0.01 | 38 | 1015.8 |
| 20260508154612 | 68 | 328 | 0.0 | 0.0 | 0.00 | 0.02 | 0.01 | 38 | 1015.7 |
| 20260508154542 | 68 | 32 | 0.0 | 0.0 | 0.00 | 0.02 | 0.01 | 46 | 1015.7 |
| 20260508154427 | 68 | 200 | 0.0 | 0.0 | 0.00 | 0.03 | 0.01 | 41 | 1015.7 |
| 20260508154314 | 68 | 89 | 0.0 | 0.0 | 0.00 | 0.03 | 0.01 | 41 | 1015.8 |
| 20260508154220 | 68 | 36 | 0.0 | 0.0 | 0.00 | 0.03 | 0.01 | 37 | 1015.8 |
| 20260508154110 | 68 | 96 | 0.0 | 0.0 | 0.00 | 0.03 | 0.01 | 38 | 1015.8 |
| 20260508154023 | 68 | 300 | 0.0 | 0.0 | 0.00 | 0.03 | 0.01 | 43 | 1015.8 |
| 20260508153930 | 67 | 37 | 0.0 | 0.0 | 0.00 | 0.03 | 0.01 | 40 | 1015.8 |
| 20260508153814 | 67 | 219 | 0.0 | 0.0 | 0.00 | 0.03 | 0.01 | 37 | 1015.8 |
| 20260508153744 | 67 | 296 | 0.0 | 0.0 | 0.00 | 0.03 | 0.01 | 36 | 1015.8 |
| 20260508153625 | 67 | 331 | 0.0 | 0.0 | 0.00 | 0.03 | 0.01 | 41 | 1015.8 |
| 20260508153512 | 67 | 37 | 0.0 | 0.0 | 0.00 | 0.03 | 0.01 | 40 | 1015.8 |
| 20260508153429 | 67 | 36 | 0.0 | 0.0 | 0.00 | 0.03 | 0.01 | 40 | 1015.8 |
| 20260508153329 | 67 | 330 | 0.0 | 0.0 | 0.00 | 0.03 | 0.01 | 38 | 1015.8 |
| 20260508153209 | 67 | 30 | 0.0 | 0.0 | 0.00 | 0.03 | 0.01 | 37 | 1015.8 |
| 20260508153115 | 67 | 71 | 0.0 | 0.0 | 0.00 | 0.03 | 0.01 | 37 | 1015.8 |
| 20260508153049 | 67 | 57 | 0.0 | 0.0 | 0.00 | 0.03 | 0.01 | 37 | 1015.8 |
| 20260508153009 | 66 | 57 | 0.0 | 0.0 | 0.00 | 0.03 | 0.01 | 40 | 1016.0 |
| 20260508152935 | 67 | 30 | 0.0 | 0.0 | 0.00 | 0.03 | 0.01 | 40 | 1015.8 |
| 20260508152816 | 67 | 5 | 0.0 | 0.0 | 0.00 | 0.03 | 0.01 | 38 | 1015.8 |
| 20260508152749 | 67 | 22 | 0.0 | 0.0 | 0.00 | 0.03 | 0.01 | 39 | 1015.9 |
| 20260508152615 | 67 | 355 | 0.0 | 0.0 | 0.00 | 0.03 | 0.01 | 40 | 1015.9 |
| 20260508152521 | 67 | 34 | 0.0 | 0.0 | 0.00 | 0.03 | 0.01 | 39 | 1015.9 |
| 20260508152434 | 67 | 92 | 0.0 | 0.0 | 0.00 | 0.03 | 0.01 | 35 | 1015.9 |
| 20260508152315 | 67 | 326 | 0.0 | 0.0 | 0.00 | 0.03 | 0.01 | 40 | 1015.9 |
| 20260508152231 | 67 | 136 | 0.0 | 0.0 | 0.00 | 0.03 | 0.01 | 38 | 1015.9 |
| 20260508152117 | 67 | 99 | 0.0 | 0.0 | 0.00 | 0.03 | 0.01 | 40 | 1015.9 |
| 20260508152043 | 67 | 42 | 0.0 | 0.0 | 0.00 | 0.03 | 0.01 | 38 | 1015.9 |
| 20260508151935 | 67 | 121 | 0.0 | 0.0 | 0.00 | 0.03 | 0.01 | 41 | 1015.9 |
| 20260508151821 | 67 | 47 | 0.0 | 0.0 | 0.00 | 0.03 | 0.01 | 39 | 1015.9 |
| 20260508151727 | 67 | 322 | 0.0 | 0.0 | 0.00 | 0.03 | 0.01 | 39 | 1015.9 |
| 20260508151616 | 67 | 311 | 0.0 | 0.0 | 0.00 | 0.03 | 0.01 | 41 | 1015.9 |
| 20260508151547 | 66 | 62 | 0.0 | 0.0 | 0.00 | 0.03 | 0.01 | 38 | 1016.1 |
| 20260508151522 | 67 | 48 | 0.0 | 0.0 | 0.00 | 0.03 | 0.01 | 38 | 1015.9 |
| 20260508151437 | 66 | 69 | 0.0 | 0.0 | 0.00 | 0.03 | 0.01 | 38 | 1015.9 |
| 20260508151322 | 66 | 85 | 0.0 | 0.0 | 0.00 | 0.03 | 0.01 | 40 | 1015.9 |
| 20260508151248 | 66 | 70 | 0.0 | 0.0 | 0.00 | 0.03 | 0.01 | 43 | 1015.9 |
| 20260508151114 | 66 | 309 | 0.0 | 0.0 | 0.00 | 0.03 | 0.01 | 39 | 1015.9 |
| 20260508151031 | 66 | 355 | 0.0 | 0.0 | 0.00 | 0.03 | 0.01 | 41 | 1015.9 |
| 20260508150917 | 66 | 34 | 0.0 | 0.0 | 0.00 | 0.03 | 0.01 | 38 | 1015.9 |
| 20260508150824 | 66 | 315 | 0.0 | 0.0 | 0.00 | 0.03 | 0.01 | 42 | 1015.9 |
| 20260508150709 | 66 | 57 | 0.0 | 0.0 | 0.00 | 0.03 | 0.01 | 42 | 1015.9 |
| 20260508150616 | 66 | 355 | 0.0 | 0.0 | 0.00 | 0.03 | 0.01 | 39 | 1015.9 |
| 20260508150519 | 66 | 342 | 0.0 | 0.0 | 0.00 | 0.03 | 0.01 | 40 | 1015.9 |
| 20260508150409 | 66 | 184 | 0.0 | 0.0 | 0.00 | 0.03 | 0.01 | 42 | 1015.9 |
| 20260508150343 | 66 | 296 | 0.0 | 0.0 | 0.00 | 0.03 | 0.01 | 46 | 1015.9 |
| 20260508150215 | 66 | 26 | 0.0 | 0.0 | 0.00 | 0.03 | 0.01 | 39 | 1016.0 |
| 20260508150128 | 66 | 236 | 0.0 | 0.0 | 0.00 | 0.03 | 0.01 | 39 | 1016.0 |
| 20260508150106 | 65 | 231 | 0.0 | 0.0 | 0.00 | 0.03 | 0.01 | 42 | 1016.2 |
| 20260508150011 | 66 | 244 | 0.0 | 0.0 | 0.00 | 0.03 | 0.01 | 40 | 1016.0 |
| 20260508145918 | 66 | 22 | 0.0 | 0.0 | 0.00 | 0.03 | 0.01 | 41 | 1016.0 |
| 20260508145828 | 66 | 240 | 0.0 | 0.0 | 0.00 | 0.03 | 0.01 | 41 | 1016.0 |
| 20260508145714 | 66 | 296 | 0.0 | 0.0 | 0.00 | 0.03 | 0.01 | 41 | 1016.1 |
| 20260508145624 | 66 | 111 | 0.0 | 0.0 | 0.00 | 0.03 | 0.01 | 40 | 1016.1 |
| 20260508145531 | 66 | 109 | 0.0 | 0.0 | 0.00 | 0.03 | 0.01 | 43 | 1016.0 |
| 20260508145416 | 66 | 68 | 0.0 | 1.0 | 0.00 | 0.03 | 0.01 | 42 | 1016.0 |
| 20260508145327 | 66 | 49 | 0.0 | 3.0 | 0.00 | 0.03 | 0.01 | 40 | 1016.0 |
| 20260508145213 | 66 | 130 | 0.0 | 8.0 | 0.00 | 0.03 | 0.01 | 46 | 1016.0 |
| 20260508145146 | 66 | 91 | 0.0 | 8.0 | 0.00 | 0.03 | 0.01 | 42 | 1016.0 |
| 20260508145011 | 66 | 90 | 0.0 | 8.0 | 0.00 | 0.03 | 0.01 | 39 | 1016.0 |
| 20260508144917 | 65 | 103 | 0.0 | 8.0 | 0.00 | 0.03 | 0.01 | 41 | 1016.0 |
| 20260508144823 | 65 | 18 | 0.0 | 8.0 | 0.00 | 0.03 | 0.01 | 44 | 1016.1 |
| 20260508144715 | 65 | 83 | 0.0 | 8.0 | 0.00 | 0.03 | 0.01 | 42 | 1016.1 |
| 20260508144647 | 65 | 273 | 0.0 | 8.0 | 0.00 | 0.03 | 0.01 | 45 | 1016.1 |
| 20260508144600 | 65 | 5 | 1.0 | 8.0 | 0.00 | 0.03 | 0.01 | 42 | 1016.3 |
| 20260508144512 | 65 | 71 | 2.0 | 8.0 | 0.00 | 0.03 | 0.01 | 42 | 1016.0 |
| 20260508144439 | 65 | 82 | 1.0 | 8.0 | 0.00 | 0.03 | 0.01 | 45 | 1016.0 |
| 20260508144331 | 65 | 64 | 0.0 | 7.0 | 0.00 | 0.03 | 0.01 | 45 | 1016.0 |
| 20260508144217 | 65 | 28 | 0.0 | 7.0 | 0.00 | 0.03 | 0.01 | 44 | 1016.0 |
| 20260508144128 | 65 | 344 | 0.0 | 7.0 | 0.00 | 0.03 | 0.01 | 42 | 1016.0 |
| 20260508144014 | 65 | 332 | 0.0 | 7.0 | 0.00 | 0.03 | 0.01 | 43 | 1016.1 |
| 20260508143921 | 65 | 306 | 0.0 | 7.0 | 0.00 | 0.03 | 0.01 | 40 | 1016.1 |
| 20260508143834 | 65 | 49 | 1.0 | 7.0 | 0.00 | 0.03 | 0.01 | 43 | 1016.1 |
| 20260508143719 | 65 | 68 | 3.0 | 7.0 | 0.00 | 0.03 | 0.01 | 38 | 1016.1 |
| 20260508143646 | 65 | 73 | 3.0 | 7.0 | 0.00 | 0.03 | 0.01 | 39 | 1016.1 |
| 20260508143512 | 65 | 82 | 0.0 | 7.0 | 0.00 | 0.03 | 0.01 | 40 | 1016.1 |
| 20260508143425 | 65 | 57 | 0.0 | 3.0 | 0.00 | 0.03 | 0.01 | 43 | 1016.1 |
| 20260508143312 | 65 | 178 | 0.0 | 3.0 | 0.00 | 0.03 | 0.01 | 48 | 1016.1 |
| 20260508143218 | 65 | 51 | 0.0 | 3.0 | 0.00 | 0.03 | 0.01 | 42 | 1016.1 |
| 20260508143145 | 64 | 63 | 0.0 | 3.0 | 0.00 | 0.03 | 0.01 | 42 | 1016.3 |
| 20260508143124 | 65 | 43 | 0.0 | 3.0 | 0.00 | 0.03 | 0.01 | 42 | 1016.1 |
| 20260508143037 | 65 | 336 | 0.0 | 3.0 | 0.00 | 0.03 | 0.01 | 39 | 1016.1 |
| 20260508142915 | 65 | 245 | 0.0 | 3.0 | 0.00 | 0.03 | 0.01 | 40 | 1016.1 |
| 20260508142821 | 65 | 292 | 0.0 | 3.0 | 0.00 | 0.03 | 0.01 | 41 | 1016.1 |
| 20260508142735 | 65 | 247 | 0.0 | 3.0 | 0.00 | 0.03 | 0.01 | 42 | 1016.0 |
| 20260508142614 | 65 | 116 | 0.0 | 3.0 | 0.00 | 0.03 | 0.01 | 44 | 1016.1 |
| 20260508142527 | 65 | 143 | 0.0 | 3.0 | 0.00 | 0.03 | 0.01 | 46 | 1016.1 |
| 20260508142433 | 65 | 47 | 0.0 | 1.0 | 0.00 | 0.03 | 0.01 | 46 | 1016.1 |
| 20260508142321 | 65 | 76 | 0.0 | 1.0 | 0.00 | 0.03 | 0.01 | 44 | 1016.1 |
| 20260508142209 | 64 | 42 | 0.0 | 1.0 | 0.00 | 0.03 | 0.01 | 44 | 1016.2 |
| 20260508142122 | 64 | 94 | 0.0 | 1.0 | 0.00 | 0.03 | 0.01 | 46 | 1016.2 |
| 20260508142028 | 64 | 59 | 0.0 | 1.0 | 0.00 | 0.03 | 0.01 | 46 | 1016.2 |
| 20260508141915 | 64 | 117 | 0.0 | 1.0 | 0.00 | 0.03 | 0.01 | 44 | 1016.2 |
| 20260508141821 | 64 | 117 | 0.0 | 1.0 | 0.00 | 0.03 | 0.01 | 46 | 1016.2 |
| 20260508141712 | 64 | 117 | 0.0 | 1.0 | 0.00 | 0.03 | 0.01 | 42 | 1016.2 |
| 20260508141645 | 64 | 113 | 0.0 | 1.0 | 0.00 | 0.03 | 0.01 | 41 | 1016.2 |
| 20260508141603 | 63 | 42 | 0.0 | 1.0 | 0.00 | 0.03 | 0.01 | 42 | 1016.4 |
| 20260508141510 | 64 | 313 | 0.0 | 1.0 | 0.00 | 0.03 | 0.01 | 44 | 1016.2 |
| 20260508141417 | 64 | 321 | 0.0 | 1.0 | 0.00 | 0.03 | 0.01 | 51 | 1016.2 |
| 20260508141323 | 64 | 315 | 0.0 | 1.0 | 0.00 | 0.03 | 0.01 | 49 | 1016.3 |
| 20260508141214 | 63 | 315 | 0.0 | 1.0 | 0.00 | 0.03 | 0.01 | 46 | 1016.3 |
| 20260508141127 | 63 | 315 | 0.0 | 1.0 | 0.00 | 0.03 | 0.01 | 45 | 1016.3 |
| 20260508141033 | 63 | 306 | 0.0 | 1.0 | 0.00 | 0.03 | 0.01 | 52 | 1016.3 |
| 20260508140918 | 63 | 38 | 0.0 | 1.0 | 0.00 | 0.03 | 0.01 | 52 | 1016.3 |
| 20260508140825 | 63 | 48 | 0.0 | 1.0 | 0.00 | 0.03 | 0.01 | 52 | 1016.3 |
| 20260508140738 | 63 | 303 | 0.0 | 2.0 | 0.00 | 0.03 | 0.01 | 46 | 1016.3 |
| 20260508140623 | 63 | 302 | 0.0 | 2.0 | 0.00 | 0.03 | 0.01 | 48 | 1016.3 |
| 20260508140532 | 63 | 293 | 0.0 | 2.0 | 0.00 | 0.03 | 0.01 | 48 | 1016.3 |
| 20260508140434 | 63 | 301 | 0.0 | 2.0 | 0.00 | 0.03 | 0.01 | 49 | 1016.3 |
| 20260508140318 | 63 | 69 | 0.0 | 2.0 | 0.00 | 0.03 | 0.01 | 52 | 1016.3 |
| 20260508140224 | 63 | 78 | 0.0 | 2.0 | 0.00 | 0.03 | 0.01 | 54 | 1016.2 |
| 20260508140111 | 63 | 34 | 0.0 | 2.0 | 0.00 | 0.03 | 0.01 | 52 | 1016.3 |
| 20260508140046 | 62 | 18 | 0.0 | 2.0 | 0.00 | 0.03 | 0.01 | 49 | 1016.5 |
| 20260508140036 | 63 | 60 | 1.0 | 2.0 | 0.00 | 0.03 | 0.01 | 49 | 1016.4 |
| 20260508135932 | 62 | 81 | 1.0 | 2.0 | 0.00 | 0.03 | 0.01 | 49 | 1016.4 |
| 20260508135818 | 62 | 94 | 0.0 | 1.0 | 0.00 | 0.03 | 0.01 | 50 | 1016.3 |
| 20260508135745 | 62 | 101 | 0.0 | 1.0 | 0.00 | 0.03 | 0.01 | 50 | 1016.3 |
| 20260508135610 | 62 | 86 | 0.0 | 1.0 | 0.00 | 0.03 | 0.01 | 50 | 1016.3 |
| 20260508135544 | 62 | 98 | 0.0 | 1.0 | 0.00 | 0.03 | 0.01 | 48 | 1016.3 |
| 20260508135409 | 62 | 104 | 0.0 | 1.0 | 0.00 | 0.03 | 0.01 | 50 | 1016.4 |
| 20260508135347 | 62 | 62 | 0.0 | 0.0 | 0.00 | 0.03 | 0.01 | 53 | 1016.4 |
| 20260508135233 | 61 | 63 | 0.0 | 0.0 | 0.00 | 0.03 | 0.01 | 52 | 1016.4 |
| 20260508135118 | 61 | 50 | 0.0 | 0.0 | 0.00 | 0.03 | 0.01 | 55 | 1016.4 |
| 20260508135031 | 61 | 74 | 0.0 | 0.0 | 0.00 | 0.03 | 0.01 | 55 | 1016.4 |
| 20260508134911 | 61 | 247 | 0.0 | 0.0 | 0.00 | 0.03 | 0.01 | 54 | 1016.4 |
| 20260508134824 | 61 | 107 | 0.0 | 0.0 | 0.00 | 0.03 | 0.01 | 56 | 1016.4 |
| 20260508134734 | 61 | 63 | 0.0 | 0.0 | 0.00 | 0.03 | 0.01 | 52 | 1016.4 |
| 20260508134632 | 61 | 78 | 0.0 | 0.0 | 0.00 | 0.03 | 0.01 | 53 | 1016.6 |
| 20260508134619 | 61 | 72 | 0.0 | 0.0 | 0.00 | 0.03 | 0.01 | 53 | 1016.4 |
| 20260508134532 | 61 | 109 | 0.0 | 0.0 | 0.00 | 0.03 | 0.01 | 54 | 1016.5 |
| 20260508134417 | 61 | 60 | 0.0 | 0.0 | 0.00 | 0.03 | 0.01 | 58 | 1016.5 |
| 20260508134323 | 61 | 97 | 0.0 | 0.0 | 0.00 | 0.03 | 0.01 | 64 | 1016.4 |
| 20260508134209 | 61 | 120 | 0.0 | 0.0 | 0.00 | 0.03 | 0.01 | 65 | 1016.5 |
| 20260508134142 | 60 | 122 | 0.0 | 0.0 | 0.00 | 0.03 | 0.01 | 61 | 1016.5 |
| 20260508134012 | 60 | 121 | 0.0 | 0.0 | 0.00 | 0.03 | 0.01 | 59 | 1016.5 |
| 20260508133918 | 60 | 329 | 0.0 | 0.0 | 0.00 | 0.03 | 0.01 | 69 | 1016.5 |
| 20260508133825 | 60 | 30 | 0.0 | 0.0 | 0.00 | 0.03 | 0.01 | 60 | 1016.5 |
| 20260508133711 | 60 | 25 | 0.0 | 0.0 | 0.00 | 0.03 | 0.01 | 59 | 1016.5 |
| 20260508133624 | 60 | 40 | 0.0 | 0.0 | 0.00 | 0.03 | 0.01 | 63 | 1016.5 |
| 20260508133514 | 60 | 88 | 0.0 | 0.0 | 0.00 | 0.03 | 0.01 | 59 | 1016.5 |
| 20260508133440 | 59 | 71 | 0.0 | 0.0 | 0.00 | 0.03 | 0.01 | 60 | 1016.5 |
| 20260508133332 | 59 | 26 | 0.0 | 0.0 | 0.00 | 0.03 | 0.01 | 62 | 1016.6 |
| 20260508133215 | 59 | 82 | 0.0 | 0.0 | 0.00 | 0.03 | 0.01 | 69 | 1016.5 |
| 20260508133109 | 59 | 96 | 0.0 | 0.0 | 0.00 | 0.03 | 0.01 | 65 | 1016.5 |
| 20260508133101 | 58 | 96 | 0.0 | 0.0 | 0.00 | 0.03 | 0.01 | 67 | 1016.7 |
| 20260508133035 | 59 | 106 | 0.0 | 0.0 | 0.00 | 0.03 | 0.01 | 67 | 1016.5 |
| 20260508132927 | 59 | 355 | 0.0 | 0.0 | 0.00 | 0.03 | 0.01 | 68 | 1016.5 |
| 20260508132817 | 58 | 49 | 0.0 | 0.0 | 0.00 | 0.03 | 0.01 | 70 | 1016.5 |
| 20260508132723 | 58 | 55 | 0.0 | 0.0 | 0.00 | 0.03 | 0.01 | 75 | 1016.5 |
| 20260508132629 | 58 | 57 | 0.0 | 0.0 | 0.00 | 0.03 | 0.01 | 71 | 1016.6 |
| 20260508132516 | 57 | 64 | 0.0 | 0.0 | 0.00 | 0.03 | 0.01 | 74 | 1016.5 |
| 20260508132429 | 57 | 119 | 0.0 | 0.0 | 0.00 | 0.03 | 0.01 | 73 | 1016.5 |
| 20260508132318 | 57 | 119 | 0.0 | 0.0 | 0.00 | 0.03 | 0.01 | 75 | 1016.6 |
| 20260508132225 | 56 | 119 | 0.0 | 0.0 | 0.00 | 0.03 | 0.01 | 73 | 1016.6 |
| 20260508132112 | 56 | 126 | 0.0 | 0.0 | 0.00 | 0.03 | 0.01 | 75 | 1016.6 |
| 20260508132018 | 56 | 254 | 0.0 | 0.0 | 0.00 | 0.03 | 0.01 | 75 | 1016.6 |
| 20260508131924 | 56 | 51 | 0.0 | 0.0 | 0.00 | 0.03 | 0.01 | 76 | 1016.6 |
| 20260508131838 | 55 | 51 | 0.0 | 0.0 | 0.00 | 0.03 | 0.01 | 79 | 1016.6 |
| 20260508131726 | 55 | 51 | 0.0 | 0.0 | 0.00 | 0.03 | 0.01 | 80 | 1016.7 |
| 20260508131612 | 55 | 51 | 0.0 | 0.0 | 0.00 | 0.03 | 0.01 | 79 | 1016.7 |
| 20260508131544 | 55 | 51 | 0.0 | 0.0 | 0.00 | 0.03 | 0.01 | 86 | 1016.7 |
| 20260508131511 | 54 | 51 | 0.0 | 0.0 | 0.00 | 0.03 | 0.01 | 86 | 1016.9 |
| 20260508131425 | 54 | 51 | 0.0 | 0.0 | 0.00 | 0.03 | 0.01 | 85 | 1016.7 |
| 20260508131331 | 54 | 51 | 0.0 | 0.0 | 0.00 | 0.03 | 0.01 | 83 | 1016.7 |
| 20260508131216 | 54 | 51 | 0.0 | 0.0 | 0.00 | 0.03 | 0.01 | 81 | 1016.7 |
| 20260508131111 | 53 | 51 | 0.0 | 0.0 | 0.00 | 0.03 | 0.01 | 85 | 1016.7 |
| 20260508131016 | 53 | 51 | 0.0 | 0.0 | 0.00 | 0.03 | 0.01 | 83 | 1016.7 |
| 20260508130923 | 53 | 51 | 0.0 | 0.0 | 0.00 | 0.03 | 0.01 | 84 | 1016.7 |
| 20260508130856 | 52 | 51 | 0.0 | 0.0 | 0.00 | 0.03 | 0.01 | 84 | 1016.7 |
| 20260508130721 | 52 | 51 | 0.0 | 0.0 | 0.01 | 0.03 | 0.01 | 89 | 1016.7 |
| 20260508130627 | 52 | 51 | 0.0 | 0.0 | 0.01 | 0.03 | 0.01 | 90 | 1016.8 |
| 20260508130537 | 51 | 51 | 0.0 | 0.0 | 0.01 | 0.03 | 0.01 | 92 | 1016.7 |
| 20260508130429 | 51 | 51 | 0.0 | 0.0 | 0.01 | 0.03 | 0.01 | 92 | 1016.8 |
| 20260508130316 | 51 | 51 | 0.0 | 0.0 | 0.01 | 0.03 | 0.01 | 93 | 1016.7 |
| 20260508130242 | 51 | 51 | 0.0 | 0.0 | 0.01 | 0.03 | 0.01 | 95 | 1016.7 |
| 20260508130135 | 50 | 51 | 0.0 | 0.0 | 0.01 | 0.03 | 0.01 | 96 | 1016.7 |
| 20260508130128 | 50 | 51 | 0.0 | 0.0 | 0.01 | 0.03 | 0.01 | 96 | 1016.9 |
| 20260508130037 | 50 | 51 | 0.0 | 0.0 | 0.01 | 0.03 | 0.01 | 96 | 1016.8 |
| 20260508125942 | 50 | 51 | 0.0 | 0.0 | 0.01 | 0.03 | 0.01 | 96 | 1016.8 |
| 20260508125811 | 50 | 51 | 0.0 | 0.0 | 0.01 | 0.03 | 0.01 | 96 | 1016.8 |
| 20260508125724 | 49 | 51 | 0.0 | 0.0 | 0.01 | 0.03 | 0.01 | 96 | 1016.8 |
| 20260508125627 | 49 | 51 | 0.0 | 0.0 | 0.01 | 0.03 | 0.01 | 96 | 1016.7 |
| 20260508125514 | 49 | 51 | 0.0 | 0.0 | 0.01 | 0.03 | 0.01 | 96 | 1016.8 |
| 20260508125419 | 49 | 51 | 0.0 | 0.0 | 0.01 | 0.03 | 0.01 | 96 | 1016.8 |
| 20260508125310 | 49 | 51 | 0.0 | 0.0 | 0.01 | 0.03 | 0.01 | 96 | 1016.8 |
| 20260508125223 | 49 | 51 | 0.0 | 0.0 | 0.01 | 0.03 | 0.01 | 96 | 1016.8 |
| 20260508125130 | 49 | 51 | 0.0 | 0.0 | 0.01 | 0.03 | 0.01 | 96 | 1016.8 |
| 20260508125012 | 49 | 51 | 0.0 | 0.0 | 0.01 | 0.03 | 0.01 | 96 | 1016.8 |
| 20260508124919 | 49 | 51 | 0.0 | 0.0 | 0.01 | 0.03 | 0.01 | 96 | 1016.8 |
| 20260508124826 | 49 | 51 | 0.0 | 0.0 | 0.01 | 0.03 | 0.01 | 96 | 1016.9 |
| 20260508124716 | 49 | 51 | 0.0 | 0.0 | 0.01 | 0.03 | 0.01 | 96 | 1016.9 |
| 20260508124629 | 49 | 51 | 0.0 | 0.0 | 0.01 | 0.03 | 0.01 | 96 | 1016.8 |
| 20260508124516 | 49 | 51 | 0.0 | 0.0 | 0.01 | 0.03 | 0.01 | 96 | 1016.9 |
| 20260508124507 | 49 | 51 | 0.0 | 0.0 | 0.01 | 0.03 | 0.01 | 96 | 1017.1 |
| 20260508124421 | 49 | 51 | 0.0 | 0.0 | 0.01 | 0.03 | 0.01 | 96 | 1016.9 |
| 20260508124328 | 49 | 51 | 0.0 | 0.0 | 0.01 | 0.03 | 0.01 | 97 | 1016.8 |
| 20260508124217 | 49 | 51 | 0.0 | 0.0 | 0.01 | 0.03 | 0.01 | 96 | 1016.9 |
| 20260508124123 | 49 | 51 | 0.0 | 0.0 | 0.01 | 0.03 | 0.01 | 96 | 1016.8 |
| 20260508124009 | 48 | 51 | 0.0 | 0.0 | 0.01 | 0.03 | 0.01 | 96 | 1016.9 |
| 20260508123923 | 48 | 51 | 0.0 | 0.0 | 0.01 | 0.03 | 0.01 | 96 | 1016.9 |
| 20260508123829 | 48 | 51 | 0.0 | 0.0 | 0.01 | 0.03 | 0.01 | 96 | 1016.8 |
| 20260508123715 | 48 | 51 | 0.0 | 0.0 | 0.01 | 0.03 | 0.01 | 96 | 1016.8 |
| 20260508123626 | 48 | 51 | 0.0 | 0.0 | 0.01 | 0.03 | 0.01 | 96 | 1016.8 |
| 20260508123511 | 47 | 51 | 0.0 | 0.0 | 0.01 | 0.03 | 0.01 | 96 | 1016.8 |
| 20260508123419 | 47 | 51 | 0.0 | 0.0 | 0.01 | 0.03 | 0.01 | 96 | 1016.8 |
| 20260508123331 | 47 | 51 | 0.0 | 0.0 | 0.01 | 0.03 | 0.01 | 96 | 1016.9 |
| 20260508123214 | 47 | 51 | 0.0 | 0.0 | 0.01 | 0.03 | 0.01 | 96 | 1016.8 |
| 20260508123123 | 47 | 51 | 0.0 | 0.0 | 0.01 | 0.03 | 0.01 | 96 | 1016.8 |
| 20260508123054 | 46 | 51 | 0.0 | 0.0 | 0.01 | 0.03 | 0.01 | 96 | 1017.0 |
| 20260508123024 | 47 | 51 | 0.0 | 0.0 | 0.01 | 0.03 | 0.01 | 96 | 1016.8 |
| 20260508122934 | 47 | 51 | 0.0 | 0.0 | 0.01 | 0.03 | 0.01 | 96 | 1016.9 |
| 20260508122820 | 46 | 51 | 0.0 | 0.0 | 0.01 | 0.03 | 0.01 | 96 | 1016.9 |
| 20260508122726 | 46 | 51 | 0.0 | 0.0 | 0.01 | 0.03 | 0.01 | 96 | 1016.8 |
| 20260508122614 | 46 | 51 | 0.0 | 0.0 | 0.01 | 0.03 | 0.01 | 96 | 1016.9 |
| 20260508122531 | 46 | 51 | 0.0 | 0.0 | 0.01 | 0.03 | 0.01 | 96 | 1016.9 |
| 20260508122410 | 46 | 51 | 0.0 | 0.0 | 0.01 | 0.03 | 0.01 | 96 | 1016.8 |
| 20260508122323 | 46 | 51 | 0.0 | 0.0 | 0.01 | 0.03 | 0.01 | 96 | 1016.8 |
| 20260508122209 | 46 | 51 | 0.0 | 0.0 | 0.01 | 0.03 | 0.01 | 96 | 1016.9 |
| 20260508122116 | 45 | 51 | 0.0 | 0.0 | 0.01 | 0.03 | 0.01 | 96 | 1016.9 |
| 20260508122022 | 45 | 51 | 0.0 | 0.0 | 0.01 | 0.03 | 0.01 | 96 | 1016.8 |
| 20260508121939 | 45 | 51 | 0.0 | 0.0 | 0.01 | 0.03 | 0.01 | 96 | 1016.9 |
| 20260508121825 | 45 | 51 | 0.0 | 0.0 | 0.01 | 0.03 | 0.01 | 96 | 1016.8 |
| 20260508121712 | 45 | 51 | 0.0 | 0.0 | 0.01 | 0.03 | 0.01 | 96 | 1016.8 |
| 20260508121631 | 44 | 51 | 0.0 | 0.0 | 0.01 | 0.03 | 0.01 | 96 | 1016.8 |
| 20260508121528 | 44 | 51 | 0.0 | 0.0 | 0.01 | 0.03 | 0.01 | 96 | 1017.0 |
| 20260508121514 | 44 | 51 | 0.0 | 0.0 | 0.01 | 0.03 | 0.01 | 96 | 1016.8 |
| 20260508121427 | 44 | 51 | 0.0 | 0.0 | 0.01 | 0.03 | 0.01 | 96 | 1016.8 |
| 20260508121337 | 44 | 51 | 0.0 | 0.0 | 0.01 | 0.03 | 0.01 | 96 | 1016.8 |
| 20260508121222 | 44 | 51 | 0.0 | 0.0 | 0.01 | 0.03 | 0.01 | 96 | 1016.7 |
| 20260508121134 | 43 | 51 | 0.0 | 0.0 | 0.01 | 0.03 | 0.01 | 96 | 1016.7 |
| 20260508121031 | 43 | 51 | 0.0 | 0.0 | 0.01 | 0.03 | 0.01 | 96 | 1016.7 |
| 20260508120915 | 43 | 51 | 0.0 | 0.0 | 0.01 | 0.03 | 0.01 | 96 | 1016.7 |
| 20260508120822 | 43 | 51 | 0.0 | 0.0 | 0.00 | 0.02 | 0.00 | 96 | 1016.7 |
| 20260508120712 | 42 | 51 | 0.0 | 0.0 | 0.00 | 0.02 | 0.00 | 96 | 1016.7 |
| 20260508120624 | 42 | 51 | 0.0 | 0.0 | 0.00 | 0.02 | 0.00 | 96 | 1016.7 |
| 20260508120511 | 42 | 51 | 0.0 | 0.0 | 0.00 | 0.02 | 0.00 | 96 | 1016.7 |
| 20260508120417 | 41 | 51 | 0.0 | 0.0 | 0.00 | 0.02 | 0.00 | 96 | 1016.7 |
| 20260508120330 | 41 | 51 | 0.0 | 0.0 | 0.00 | 0.02 | 0.00 | 96 | 1016.7 |
| 20260508120216 | 41 | 51 | 0.0 | 0.0 | 0.00 | 0.02 | 0.00 | 96 | 1016.7 |
| 20260508120149 | 41 | 51 | 0.0 | 0.0 | 0.00 | 0.02 | 0.00 | 96 | 1016.6 |
| 20260508120115 | 40 | 51 | 0.0 | 0.0 | 0.00 | 0.02 | 0.00 | 96 | 1016.9 |
| 20260508120038 | 40 | 51 | 0.0 | 0.0 | 0.00 | 0.02 | 0.00 | 96 | 1016.7 |
| 20260508115924 | 40 | 51 | 0.0 | 0.0 | 0.00 | 0.02 | 0.00 | 96 | 1016.6 |
| 20260508115809 | 40 | 51 | 0.0 | 0.0 | 0.00 | 0.02 | 0.00 | 96 | 1016.6 |
| 20260508115724 | 40 | 51 | 0.0 | 0.0 | 0.00 | 0.02 | 0.00 | 96 | 1016.6 |
| 20260508115631 | 40 | 51 | 0.0 | 0.0 | 0.00 | 0.02 | 0.00 | 96 | 1016.6 |
| 20260508115514 | 40 | 51 | 0.0 | 0.0 | 0.00 | 0.02 | 0.00 | 96 | 1016.5 |
| 20260508115422 | 39 | 51 | 0.0 | 0.0 | 0.00 | 0.02 | 0.00 | 96 | 1016.5 |
| 20260508115320 | 39 | 51 | 0.0 | 0.0 | 0.00 | 0.02 | 0.00 | 96 | 1016.5 |
| 20260508115226 | 39 | 51 | 0.0 | 0.0 | 0.00 | 0.02 | 0.00 | 96 | 1016.5 |
| 20260508115112 | 39 | 51 | 0.0 | 0.0 | 0.00 | 0.02 | 0.00 | 96 | 1016.5 |
| 20260508115018 | 39 | 51 | 0.0 | 0.0 | 0.00 | 0.02 | 0.00 | 96 | 1016.5 |
| 20260508114910 | 39 | 51 | 0.0 | 0.0 | 0.00 | 0.02 | 0.00 | 96 | 1016.5 |
| 20260508114817 | 38 | 51 | 0.0 | 0.0 | 0.00 | 0.02 | 0.00 | 96 | 1016.5 |
| 20260508114722 | 38 | 51 | 0.0 | 0.0 | 0.00 | 0.02 | 0.00 | 96 | 1016.5 |
| 20260508114635 | 38 | 51 | 0.0 | 0.0 | 0.00 | 0.02 | 0.00 | 96 | 1016.5 |
| 20260508114613 | 38 | 51 | 0.0 | 0.0 | 0.00 | 0.02 | 0.00 | 96 | 1016.7 |
| 20260508114541 | 38 | 51 | 0.0 | 0.0 | 0.00 | 0.02 | 0.00 | 96 | 1016.5 |
| 20260508114453 | 38 | 51 | 0.0 | 0.0 | 0.00 | 0.02 | 0.00 | 96 | 1016.5 |
| 20260508114318 | 38 | 51 | 0.0 | 0.0 | 0.00 | 0.02 | 0.00 | 96 | 1016.5 |
| 20260508114218 | 38 | 51 | 0.0 | 0.0 | 0.00 | 0.02 | 0.00 | 96 | 1016.5 |
| 20260508114151 | 38 | 51 | 0.0 | 0.0 | 0.00 | 0.02 | 0.00 | 95 | 1016.5 |
| 20260508114017 | 38 | 51 | 0.0 | 0.0 | 0.00 | 0.02 | 0.00 | 95 | 1016.5 |
| 20260508113923 | 38 | 51 | 0.0 | 0.0 | 0.00 | 0.02 | 0.00 | 95 | 1016.5 |
| 20260508113810 | 37 | 51 | 0.0 | 0.0 | 0.00 | 0.02 | 0.00 | 96 | 1016.5 |
| 20260508113720 | 37 | 51 | 0.0 | 0.0 | 0.00 | 0.02 | 0.00 | 95 | 1016.5 |
| 20260508113627 | 37 | 51 | 0.0 | 0.0 | 0.00 | 0.02 | 0.00 | 95 | 1016.5 |
| 20260508113514 | 37 | 51 | 0.0 | 0.0 | 0.00 | 0.02 | 0.00 | 95 | 1016.5 |
| 20260508113427 | 37 | 51 | 0.0 | 0.0 | 0.00 | 0.02 | 0.00 | 95 | 1016.5 |
| 20260508113314 | 37 | 51 | 0.0 | 0.0 | 0.00 | 0.02 | 0.00 | 95 | 1016.3 |
| 20260508113220 | 37 | 51 | 0.0 | 0.0 | 0.00 | 0.02 | 0.00 | 95 | 1016.3 |
| 20260508113111 | 37 | 51 | 0.0 | 0.0 | 0.00 | 0.02 | 0.00 | 95 | 1016.3 |
| 20260508113044 | 37 | 51 | 0.0 | 0.0 | 0.00 | 0.02 | 0.00 | 95 | 1016.3 |
| 20260508113017 | 36 | 51 | 0.0 | 0.0 | 0.00 | 0.02 | 0.00 | 95 | 1016.5 |
| 20260508112910 | 37 | 51 | 0.0 | 0.0 | 0.00 | 0.02 | 0.00 | 95 | 1016.3 |
| 20260508112812 | 37 | 51 | 0.0 | 0.0 | 0.00 | 0.02 | 0.00 | 95 | 1016.3 |
| 20260508112719 | 36 | 51 | 0.0 | 0.0 | 0.00 | 0.02 | 0.00 | 95 | 1016.3 |
| 20260508112610 | 36 | 51 | 0.0 | 0.0 | 0.00 | 0.02 | 0.00 | 95 | 1016.3 |
| 20260508112516 | 36 | 51 | 0.0 | 0.0 | 0.00 | 0.02 | 0.00 | 95 | 1016.3 |
| 20260508112449 | 36 | 51 | 0.0 | 0.0 | 0.00 | 0.02 | 0.00 | 95 | 1016.3 |
| 20260508112315 | 36 | 51 | 0.0 | 0.0 | 0.00 | 0.02 | 0.00 | 95 | 1016.4 |
| 20260508112222 | 36 | 51 | 0.0 | 0.0 | 0.00 | 0.02 | 0.00 | 95 | 1016.4 |
| 20260508112109 | 36 | 51 | 0.0 | 0.0 | 0.00 | 0.02 | 0.00 | 95 | 1016.3 |
| 20260508112026 | 36 | 51 | 0.0 | 0.0 | 0.00 | 0.02 | 0.00 | 95 | 1016.3 |
| 20260508111915 | 36 | 51 | 0.0 | 0.0 | 0.00 | 0.02 | 0.00 | 95 | 1016.3 |
| 20260508111840 | 36 | 51 | 0.0 | 0.0 | 0.00 | 0.02 | 0.00 | 95 | 1016.3 |
| 20260508111726 | 36 | 51 | 0.0 | 0.0 | 0.00 | 0.02 | 0.00 | 95 | 1016.3 |
| 20260508111613 | 36 | 51 | 0.0 | 0.0 | 0.00 | 0.02 | 0.00 | 95 | 1016.3 |
| 20260508111526 | 36 | 51 | 0.0 | 0.0 | 0.00 | 0.02 | 0.00 | 95 | 1016.3 |
| 20260508111512 | 35 | 51 | 0.0 | 0.0 | 0.00 | 0.02 | 0.00 | 95 | 1016.6 |
| 20260508111416 | 36 | 51 | 0.0 | 0.0 | 0.00 | 0.02 | 0.00 | 95 | 1016.4 |
| 20260508111323 | 36 | 51 | 0.0 | 0.0 | 0.00 | 0.02 | 0.00 | 95 | 1016.3 |
| 20260508111230 | 36 | 51 | 0.0 | 0.0 | 0.00 | 0.02 | 0.00 | 95 | 1016.3 |
| 20260508111122 | 36 | 51 | 0.0 | 0.0 | 0.00 | 0.02 | 0.00 | 95 | 1016.3 |
| 20260508111048 | 36 | 51 | 0.0 | 0.0 | 0.00 | 0.02 | 0.00 | 95 | 1016.3 |
| 20260508110914 | 36 | 51 | 0.0 | 0.0 | 0.00 | 0.02 | 0.00 | 95 | 1016.3 |
| 20260508110823 | 36 | 51 | 0.0 | 0.0 | 0.00 | 0.02 | 0.00 | 95 | 1016.3 |
| 20260508110737 | 36 | 51 | 0.0 | 0.0 | 0.00 | 0.02 | 0.00 | 95 | 1016.3 |
| 20260508110621 | 35 | 51 | 0.0 | 0.0 | 0.00 | 0.02 | 0.00 | 95 | 1016.2 |
| 20260508110543 | 35 | 51 | 0.0 | 0.0 | 0.00 | 0.02 | 0.00 | 94 | 1016.3 |
| 20260508110435 | 35 | 51 | 0.0 | 0.0 | 0.00 | 0.02 | 0.00 | 94 | 1016.2 |
| 20260508110222 | 35 | 51 | 0.0 | 0.0 | 0.00 | 0.02 | 0.00 | 94 | 1016.2 |
| 20260508110112 | 35 | 51 | 0.0 | 0.0 | 0.00 | 0.02 | 0.00 | 94 | 1016.2 |
| 20260508110025 | 35 | 51 | 0.0 | 0.0 | 0.00 | 0.02 | 0.00 | 94 | 1016.2 |
| 20260508110017 | 35 | 51 | 0.0 | 0.0 | 0.00 | 0.02 | 0.00 | 94 | 1016.3 |
| 20260508105930 | 35 | 51 | 0.0 | 0.0 | 0.00 | 0.02 | 0.00 | 94 | 1016.2 |
| 20260508105813 | 35 | 51 | 0.0 | 0.0 | 0.00 | 0.02 | 0.00 | 94 | 1016.1 |
| 20260508105721 | 35 | 51 | 0.0 | 0.0 | 0.00 | 0.02 | 0.00 | 94 | 1016.1 |
| 20260508105610 | 35 | 51 | 0.0 | 0.0 | 0.00 | 0.02 | 0.00 | 94 | 1016.1 |
| 20260508105518 | 35 | 51 | 0.0 | 0.0 | 0.00 | 0.02 | 0.00 | 94 | 1016.1 |
| 20260508105430 | 35 | 51 | 0.0 | 0.0 | 0.00 | 0.02 | 0.00 | 94 | 1016.0 |
| 20260508105316 | 35 | 51 | 0.0 | 0.0 | 0.00 | 0.02 | 0.00 | 94 | 1016.1 |
| 20260508105223 | 35 | 51 | 0.0 | 0.0 | 0.00 | 0.02 | 0.00 | 94 | 1016.1 |
| 20260508105114 | 35 | 51 | 0.0 | 0.0 | 0.00 | 0.02 | 0.00 | 94 | 1016.0 |
| 20260508105040 | 35 | 51 | 0.0 | 0.0 | 0.00 | 0.02 | 0.00 | 94 | 1016.0 |
| 20260508104932 | 35 | 51 | 0.0 | 0.0 | 0.00 | 0.02 | 0.00 | 94 | 1016.0 |
| 20260508104818 | 35 | 51 | 0.0 | 0.0 | 0.00 | 0.02 | 0.00 | 94 | 1016.0 |
| 20260508104744 | 35 | 51 | 0.0 | 0.0 | 0.00 | 0.02 | 0.00 | 94 | 1016.0 |
| 20260508104609 | 35 | 51 | 0.0 | 0.0 | 0.00 | 0.02 | 0.00 | 94 | 1016.0 |
| 20260508104522 | 35 | 51 | 0.0 | 0.0 | 0.00 | 0.02 | 0.00 | 94 | 1016.0 |
| 20260508104511 | 34 | 51 | 0.0 | 0.0 | 0.00 | 0.02 | 0.00 | 94 | 1016.1 |
| 20260508104409 | 35 | 51 | 0.0 | 0.0 | 0.00 | 0.02 | 0.00 | 94 | 1016.0 |
| 20260508104315 | 35 | 51 | 0.0 | 0.0 | 0.00 | 0.02 | 0.00 | 94 | 1016.0 |
| 20260508104222 | 35 | 51 | 0.0 | 0.0 | 0.00 | 0.02 | 0.00 | 94 | 1015.9 |
| 20260508104128 | 35 | 51 | 0.0 | 0.0 | 0.00 | 0.02 | 0.00 | 94 | 1015.9 |
| 20260508104041 | 35 | 51 | 0.0 | 0.0 | 0.00 | 0.02 | 0.00 | 94 | 1015.9 |
| 20260508103911 | 35 | 51 | 0.0 | 0.0 | 0.00 | 0.02 | 0.00 | 94 | 1015.9 |
| 20260508103817 | 35 | 51 | 0.0 | 0.0 | 0.00 | 0.02 | 0.00 | 94 | 1015.9 |
| 20260508103723 | 35 | 51 | 0.0 | 0.0 | 0.00 | 0.02 | 0.00 | 94 | 1015.8 |
| 20260508103609 | 35 | 51 | 0.0 | 0.0 | 0.00 | 0.02 | 0.00 | 94 | 1015.8 |
| 20260508103542 | 35 | 51 | 0.0 | 0.0 | 0.00 | 0.02 | 0.00 | 94 | 1015.8 |
| 20260508103428 | 35 | 51 | 0.0 | 0.0 | 0.00 | 0.02 | 0.00 | 94 | 1015.8 |
| 20260508103318 | 35 | 51 | 0.0 | 0.0 | 0.00 | 0.02 | 0.00 | 94 | 1015.7 |
| 20260508103232 | 35 | 51 | 0.0 | 0.0 | 0.00 | 0.02 | 0.00 | 94 | 1015.6 |
| 20260508103110 | 35 | 51 | 0.0 | 0.0 | 0.00 | 0.02 | 0.00 | 94 | 1015.6 |
| 20260508103023 | 35 | 51 | 0.0 | 0.0 | 0.00 | 0.02 | 0.00 | 94 | 1015.6 |
| 20260508103013 | 34 | 51 | 0.0 | 0.0 | 0.00 | 0.02 | 0.00 | 94 | 1015.8 |
| 20260508102909 | 35 | 51 | 0.0 | 0.0 | 0.00 | 0.02 | 0.00 | 94 | 1015.6 |
| 20260508102816 | 35 | 51 | 0.0 | 0.0 | 0.00 | 0.02 | 0.00 | 94 | 1015.6 |
| 20260508102753 | 35 | 51 | 0.0 | 0.0 | 0.00 | 0.02 | 0.00 | 94 | 1015.5 |
| 20260508102618 | 35 | 51 | 0.0 | 0.0 | 0.00 | 0.02 | 0.00 | 94 | 1015.6 |
| 20260508102523 | 35 | 51 | 0.0 | 0.0 | 0.00 | 0.02 | 0.00 | 94 | 1015.5 |
| 20260508102411 | 35 | 51 | 0.0 | 0.0 | 0.00 | 0.02 | 0.00 | 94 | 1015.5 |
| 20260508102316 | 35 | 51 | 0.0 | 0.0 | 0.00 | 0.02 | 0.00 | 94 | 1015.5 |
| 20260508102224 | 35 | 51 | 0.0 | 0.0 | 0.00 | 0.02 | 0.00 | 94 | 1015.4 |
| 20260508102114 | 35 | 51 | 0.0 | 0.0 | 0.00 | 0.02 | 0.00 | 94 | 1015.4 |
| 20260508102027 | 35 | 51 | 0.0 | 0.0 | 0.00 | 0.02 | 0.00 | 94 | 1015.4 |
| 20260508101913 | 35 | 51 | 0.0 | 0.0 | 0.00 | 0.02 | 0.00 | 94 | 1015.4 |
| 20260508101818 | 35 | 51 | 0.0 | 0.0 | 0.00 | 0.02 | 0.00 | 94 | 1015.4 |
| 20260508101724 | 35 | 51 | 0.0 | 0.0 | 0.00 | 0.02 | 0.00 | 94 | 1015.4 |
| 20260508101614 | 35 | 51 | 0.0 | 0.0 | 0.00 | 0.02 | 0.00 | 94 | 1015.3 |
| 20260508101529 | 35 | 51 | 0.0 | 0.0 | 0.00 | 0.02 | 0.00 | 94 | 1015.4 |
| 20260508101520 | 35 | 51 | 0.0 | 0.0 | 0.00 | 0.02 | 0.00 | 94 | 1015.3 |
| 20260508101433 | 35 | 51 | 0.0 | 0.0 | 0.00 | 0.02 | 0.00 | 94 | 1015.3 |
| 20260508101319 | 35 | 51 | 0.0 | 0.0 | 0.00 | 0.02 | 0.00 | 94 | 1015.3 |
| 20260508101225 | 35 | 51 | 0.0 | 0.0 | 0.00 | 0.02 | 0.00 | 94 | 1015.3 |
| 20260508101115 | 35 | 51 | 0.0 | 0.0 | 0.00 | 0.02 | 0.00 | 94 | 1015.3 |
| 20260508101048 | 35 | 51 | 0.0 | 0.0 | 0.00 | 0.02 | 0.00 | 94 | 1015.3 |
| 20260508100913 | 35 | 51 | 0.0 | 0.0 | 0.00 | 0.02 | 0.00 | 94 | 1015.2 |
| 20260508100819 | 35 | 51 | 0.0 | 0.0 | 0.00 | 0.02 | 0.00 | 94 | 1015.2 |
| 20260508100725 | 35 | 51 | 0.0 | 0.0 | 0.00 | 0.02 | 0.00 | 94 | 1015.2 |
| 20260508100631 | 35 | 51 | 0.0 | 0.0 | 0.00 | 0.02 | 0.00 | 94 | 1015.2 |
| 20260508100519 | 35 | 51 | 0.0 | 0.0 | 0.00 | 0.02 | 0.00 | 94 | 1015.2 |
| 20260508100432 | 35 | 51 | 0.0 | 0.0 | 0.00 | 0.02 | 0.00 | 94 | 1015.1 |
| 20260508100337 | 35 | 51 | 0.0 | 0.0 | 0.00 | 0.02 | 0.00 | 94 | 1015.1 |
| 20260508100229 | 35 | 51 | 0.0 | 0.0 | 0.00 | 0.02 | 0.00 | 94 | 1015.2 |
| 20260508100115 | 35 | 51 | 0.0 | 0.0 | 0.00 | 0.02 | 0.00 | 94 | 1015.1 |
| 20260508100021 | 35 | 51 | 0.0 | 0.0 | 0.00 | 0.02 | 0.00 | 94 | 1015.1 |
| 20260508095913 | 35 | 51 | 0.0 | 0.0 | 0.00 | 0.02 | 0.00 | 94 | 1015.1 |
| 20260508095819 | 35 | 51 | 0.0 | 0.0 | 0.00 | 0.02 | 0.00 | 94 | 1015.1 |
| 20260508095733 | 35 | 51 | 0.0 | 0.0 | 0.00 | 0.02 | 0.00 | 94 | 1015.1 |
| 20260508095611 | 35 | 51 | 0.0 | 0.0 | 0.00 | 0.02 | 0.00 | 94 | 1015.1 |
| 20260508095544 | 35 | 51 | 0.0 | 0.0 | 0.00 | 0.02 | 0.00 | 94 | 1015.1 |
| 20260508095410 | 35 | 51 | 0.0 | 0.0 | 0.00 | 0.02 | 0.00 | 94 | 1015.1 |
| 20260508095320 | 35 | 51 | 0.0 | 0.0 | 0.00 | 0.02 | 0.00 | 94 | 1015.1 |
| 20260508095233 | 35 | 51 | 0.0 | 0.0 | 0.00 | 0.02 | 0.00 | 94 | 1015.1 |
| 20260508095120 | 35 | 51 | 0.0 | 0.0 | 0.00 | 0.02 | 0.00 | 94 | 1015.1 |
| 20260508095026 | 35 | 51 | 0.0 | 0.0 | 0.00 | 0.02 | 0.00 | 94 | 1015.1 |
| 20260508094912 | 36 | 51 | 0.0 | 0.0 | 0.00 | 0.02 | 0.00 | 94 | 1015.1 |
| 20260508094818 | 36 | 51 | 0.0 | 0.0 | 0.00 | 0.02 | 0.00 | 94 | 1015.1 |
| 20260508094709 | 36 | 51 | 0.0 | 0.0 | 0.00 | 0.02 | 0.00 | 94 | 1015.1 |
| 20260508094615 | 36 | 51 | 0.0 | 0.0 | 0.00 | 0.02 | 0.00 | 94 | 1015.1 |
| 20260508094528 | 36 | 109 | 0.0 | 0.0 | 0.00 | 0.02 | 0.00 | 94 | 1015.1 |
| 20260508094511 | 35 | 109 | 0.0 | 0.0 | 0.00 | 0.02 | 0.00 | 94 | 1015.2 |
| 20260508094414 | 36 | 109 | 0.0 | 0.0 | 0.00 | 0.02 | 0.00 | 94 | 1015.1 |
| 20260508094321 | 36 | 109 | 0.0 | 0.0 | 0.00 | 0.02 | 0.00 | 94 | 1015.1 |
| 20260508094212 | 36 | 109 | 0.0 | 0.0 | 0.00 | 0.02 | 0.00 | 94 | 1015.1 |
| 20260508094145 | 36 | 109 | 0.0 | 0.0 | 0.00 | 0.02 | 0.00 | 94 | 1015.1 |
| 20260508094012 | 36 | 109 | 0.0 | 0.0 | 0.00 | 0.02 | 0.00 | 94 | 1015.0 |
| 20260508093918 | 36 | 109 | 0.0 | 0.0 | 0.00 | 0.02 | 0.00 | 94 | 1015.0 |
| 20260508093825 | 36 | 109 | 0.0 | 0.0 | 0.00 | 0.02 | 0.00 | 94 | 1015.0 |
| 20260508093731 | 36 | 84 | 0.0 | 0.0 | 0.00 | 0.02 | 0.00 | 94 | 1015.0 |
| 20260508093627 | 36 | 59 | 0.0 | 0.0 | 0.00 | 0.02 | 0.00 | 94 | 1015.0 |
| 20260508093534 | 36 | 88 | 0.0 | 0.0 | 0.00 | 0.02 | 0.00 | 94 | 1014.9 |
| 20260508093419 | 36 | 88 | 0.0 | 0.0 | 0.00 | 0.02 | 0.00 | 94 | 1014.9 |
| 20260508093332 | 36 | 88 | 0.0 | 0.0 | 0.00 | 0.02 | 0.00 | 94 | 1015.0 |
| 20260508093218 | 36 | 88 | 0.0 | 0.0 | 0.00 | 0.02 | 0.00 | 94 | 1014.9 |
| 20260508093125 | 36 | 88 | 0.0 | 0.0 | 0.00 | 0.02 | 0.00 | 94 | 1015.0 |
| 20260508093100 | 35 | 88 | 0.0 | 0.0 | 0.00 | 0.02 | 0.00 | 94 | 1015.1 |
| 20260508093015 | 36 | 88 | 0.0 | 0.0 | 0.00 | 0.02 | 0.00 | 94 | 1015.0 |
| 20260508092922 | 36 | 88 | 0.0 | 0.0 | 0.00 | 0.02 | 0.00 | 94 | 1015.0 |
| 20260508092828 | 36 | 88 | 0.0 | 0.0 | 0.00 | 0.02 | 0.00 | 94 | 1015.0 |
| 20260508092715 | 36 | 88 | 0.0 | 0.0 | 0.00 | 0.02 | 0.00 | 94 | 1014.9 |
| 20260508092628 | 36 | 88 | 0.0 | 0.0 | 0.00 | 0.02 | 0.00 | 94 | 1014.9 |
| 20260508092518 | 36 | 88 | 0.0 | 0.0 | 0.00 | 0.02 | 0.00 | 94 | 1014.9 |
| 20260508092425 | 36 | 88 | 0.0 | 0.0 | 0.00 | 0.02 | 0.00 | 94 | 1014.9 |
| 20260508092320 | 36 | 88 | 0.0 | 0.0 | 0.00 | 0.02 | 0.00 | 94 | 1014.9 |
| 20260508092233 | 36 | 88 | 0.0 | 0.0 | 0.00 | 0.02 | 0.00 | 94 | 1014.9 |
| 20260508092112 | 36 | 88 | 0.0 | 0.0 | 0.00 | 0.02 | 0.00 | 94 | 1014.9 |
| 20260508092025 | 36 | 88 | 0.0 | 0.0 | 0.00 | 0.02 | 0.00 | 94 | 1014.9 |
| 20260508091916 | 36 | 88 | 0.0 | 0.0 | 0.00 | 0.02 | 0.00 | 94 | 1014.9 |
| 20260508091843 | 36 | 88 | 0.0 | 0.0 | 0.00 | 0.02 | 0.00 | 94 | 1014.8 |
| 20260508091709 | 36 | 88 | 0.0 | 0.0 | 0.00 | 0.02 | 0.00 | 94 | 1014.9 |
| 20260508091622 | 36 | 88 | 0.0 | 0.0 | 0.00 | 0.02 | 0.00 | 94 | 1014.9 |
| 20260508091609 | 35 | 88 | 0.0 | 0.0 | 0.00 | 0.02 | 0.00 | 94 | 1015.0 |
| 20260508091528 | 36 | 88 | 0.0 | 0.0 | 0.00 | 0.02 | 0.00 | 94 | 1014.9 |
| 20260508091415 | 36 | 88 | 0.0 | 0.0 | 0.00 | 0.02 | 0.00 | 94 | 1014.9 |
| 20260508091326 | 36 | 88 | 0.0 | 0.0 | 0.00 | 0.02 | 0.00 | 94 | 1014.9 |
| 20260508091214 | 36 | 88 | 0.0 | 0.0 | 0.00 | 0.02 | 0.00 | 94 | 1014.9 |
| 20260508091119 | 36 | 88 | 0.0 | 0.0 | 0.00 | 0.02 | 0.00 | 94 | 1014.9 |
| 20260508091032 | 36 | 88 | 0.0 | 0.0 | 0.00 | 0.02 | 0.00 | 94 | 1014.9 |
| 20260508090917 | 36 | 88 | 0.0 | 0.0 | 0.00 | 0.02 | 0.00 | 94 | 1014.8 |
| 20260508090821 | 36 | 88 | 0.0 | 0.0 | 0.00 | 0.02 | 0.00 | 94 | 1014.9 |
| 20260508090727 | 36 | 88 | 0.0 | 0.0 | 0.00 | 0.02 | 0.00 | 94 | 1014.9 |
| 20260508090613 | 36 | 88 | 0.0 | 0.0 | 0.00 | 0.02 | 0.00 | 94 | 1014.9 |
| 20260508090527 | 36 | 88 | 0.0 | 0.0 | 0.00 | 0.02 | 0.00 | 94 | 1014.9 |
| 20260508090433 | 36 | 88 | 0.0 | 0.0 | 0.00 | 0.02 | 0.00 | 94 | 1014.8 |
| 20260508090319 | 36 | 88 | 0.0 | 0.0 | 0.00 | 0.02 | 0.00 | 94 | 1014.9 |
| 20260508090230 | 36 | 88 | 0.0 | 0.0 | 0.00 | 0.02 | 0.00 | 94 | 1014.8 |
| 20260508090115 | 36 | 88 | 0.0 | 0.0 | 0.00 | 0.02 | 0.00 | 94 | 1014.8 |
| 20260508090028 | 36 | 88 | 0.0 | 0.0 | 0.00 | 0.02 | 0.00 | 93 | 1014.8 |
| 20260508090011 | 35 | 88 | 0.0 | 0.0 | 0.00 | 0.02 | 0.00 | 93 | 1014.9 |
| 20260508085914 | 36 | 88 | 0.0 | 0.0 | 0.00 | 0.02 | 0.00 | 94 | 1014.8 |
| 20260508085820 | 36 | 88 | 0.0 | 0.0 | 0.00 | 0.02 | 0.00 | 94 | 1014.8 |
| 20260508085710 | 36 | 88 | 0.0 | 0.0 | 0.00 | 0.02 | 0.00 | 94 | 1014.8 |
| 20260508085616 | 36 | 88 | 0.0 | 0.0 | 0.00 | 0.02 | 0.00 | 94 | 1014.8 |
| 20260508085530 | 36 | 88 | 0.0 | 0.0 | 0.00 | 0.02 | 0.00 | 94 | 1014.8 |
| 20260508085435 | 36 | 88 | 0.0 | 0.0 | 0.00 | 0.02 | 0.00 | 94 | 1014.8 |
| 20260508085341 | 36 | 88 | 0.0 | 0.0 | 0.00 | 0.02 | 0.00 | 94 | 1014.8 |
| 20260508085226 | 36 | 88 | 0.0 | 0.0 | 0.00 | 0.02 | 0.00 | 94 | 1014.8 |
| 20260508085139 | 36 | 88 | 0.0 | 0.0 | 0.00 | 0.02 | 0.00 | 94 | 1014.8 |
| 20260508085048 | 36 | 88 | 0.0 | 0.0 | 0.00 | 0.02 | 0.00 | 94 | 1014.7 |
| 20260508084940 | 36 | 88 | 0.0 | 0.0 | 0.00 | 0.02 | 0.00 | 94 | 1014.7 |
| 20260508084826 | 36 | 88 | 0.0 | 0.0 | 0.00 | 0.02 | 0.00 | 94 | 1014.8 |
| 20260508084712 | 36 | 88 | 0.0 | 0.0 | 0.00 | 0.02 | 0.00 | 94 | 1014.7 |
| 20260508084617 | 36 | 88 | 0.0 | 0.0 | 0.00 | 0.02 | 0.00 | 94 | 1014.7 |
| 20260508084532 | 36 | 88 | 0.0 | 0.0 | 0.00 | 0.02 | 0.00 | 94 | 1014.8 |
| 20260508084523 | 36 | 88 | 0.0 | 0.0 | 0.00 | 0.02 | 0.00 | 94 | 1014.7 |
| 20260508084414 | 36 | 88 | 0.0 | 0.0 | 0.00 | 0.02 | 0.00 | 94 | 1014.7 |
| 20260508084327 | 36 | 88 | 0.0 | 0.0 | 0.00 | 0.02 | 0.00 | 94 | 1014.7 |
| 20260508084214 | 36 | 88 | 0.0 | 0.0 | 0.00 | 0.02 | 0.00 | 94 | 1014.7 |
| 20260508084118 | 36 | 88 | 0.0 | 0.0 | 0.00 | 0.02 | 0.00 | 93 | 1014.7 |
| 20260508084023 | 36 | 88 | 0.0 | 0.0 | 0.00 | 0.02 | 0.00 | 93 | 1014.7 |
| 20260508083909 | 36 | 88 | 0.0 | 0.0 | 0.00 | 0.02 | 0.00 | 93 | 1014.7 |
| 20260508083822 | 36 | 88 | 0.0 | 0.0 | 0.00 | 0.02 | 0.00 | 93 | 1014.7 |
| 20260508083722 | 36 | 88 | 0.0 | 0.0 | 0.00 | 0.02 | 0.00 | 93 | 1014.7 |
| 20260508083627 | 36 | 88 | 0.0 | 0.0 | 0.00 | 0.02 | 0.00 | 93 | 1014.6 |
| 20260508083528 | 36 | 88 | 0.0 | 0.0 | 0.00 | 0.02 | 0.00 | 93 | 1014.6 |
| 20260508083414 | 36 | 88 | 0.0 | 0.0 | 0.00 | 0.02 | 0.00 | 94 | 1014.6 |
| 20260508083331 | 37 | 88 | 0.0 | 0.0 | 0.00 | 0.02 | 0.00 | 94 | 1014.6 |
| 20260508083217 | 37 | 88 | 0.0 | 0.0 | 0.00 | 0.02 | 0.00 | 94 | 1014.6 |
| 20260508083123 | 37 | 88 | 0.0 | 0.0 | 0.00 | 0.02 | 0.00 | 94 | 1014.6 |
| 20260508083053 | 36 | 88 | 0.0 | 0.0 | 0.00 | 0.02 | 0.00 | 94 | 1014.6 |
| 20260508083009 | 37 | 88 | 0.0 | 0.0 | 0.00 | 0.02 | 0.00 | 94 | 1014.5 |
| 20260508082912 | 37 | 88 | 0.0 | 0.0 | 0.00 | 0.02 | 0.00 | 94 | 1014.5 |
| 20260508082818 | 37 | 88 | 0.0 | 0.0 | 0.00 | 0.02 | 0.00 | 94 | 1014.5 |
| 20260508082709 | 37 | 88 | 0.0 | 0.0 | 0.00 | 0.02 | 0.00 | 94 | 1014.5 |
| 20260508082622 | 37 | 88 | 0.0 | 0.0 | 0.00 | 0.02 | 0.00 | 94 | 1014.5 |
| 20260508082527 | 37 | 88 | 0.0 | 0.0 | 0.00 | 0.02 | 0.00 | 94 | 1014.5 |
| 20260508082414 | 37 | 88 | 0.0 | 0.0 | 0.00 | 0.02 | 0.00 | 94 | 1014.5 |
| 20260508082317 | 37 | 88 | 0.0 | 0.0 | 0.00 | 0.02 | 0.00 | 94 | 1014.5 |
| 20260508082234 | 37 | 88 | 0.0 | 0.0 | 0.00 | 0.02 | 0.00 | 94 | 1014.5 |
| 20260508082121 | 37 | 88 | 0.0 | 0.0 | 0.00 | 0.02 | 0.00 | 93 | 1014.5 |
| 20260508082010 | 37 | 88 | 0.0 | 0.0 | 0.00 | 0.02 | 0.00 | 93 | 1014.5 |
| 20260508081916 | 37 | 88 | 0.0 | 0.0 | 0.00 | 0.02 | 0.00 | 93 | 1014.5 |
| 20260508081822 | 37 | 88 | 0.0 | 0.0 | 0.00 | 0.02 | 0.00 | 93 | 1014.5 |
| 20260508081712 | 37 | 88 | 0.0 | 0.0 | 0.00 | 0.02 | 0.00 | 93 | 1014.5 |
| 20260508081619 | 37 | 88 | 0.0 | 0.0 | 0.00 | 0.02 | 0.00 | 93 | 1014.5 |
| 20260508081532 | 37 | 88 | 0.0 | 0.0 | 0.00 | 0.02 | 0.00 | 93 | 1014.5 |
| 20260508081516 | 36 | 88 | 0.0 | 0.0 | 0.00 | 0.02 | 0.00 | 93 | 1014.6 |
| 20260508081418 | 37 | 88 | 0.0 | 0.0 | 0.00 | 0.02 | 0.00 | 93 | 1014.5 |
| 20260508081324 | 37 | 88 | 0.0 | 0.0 | 0.00 | 0.02 | 0.00 | 93 | 1014.5 |
| 20260508081211 | 37 | 88 | 0.0 | 0.0 | 0.00 | 0.02 | 0.00 | 93 | 1014.4 |
| 20260508081120 | 37 | 88 | 0.0 | 0.0 | 0.00 | 0.02 | 0.00 | 93 | 1014.4 |
| 20260508081035 | 37 | 88 | 0.0 | 0.0 | 0.00 | 0.02 | 0.00 | 93 | 1014.4 |
| 20260508080913 | 37 | 88 | 0.0 | 0.0 | 0.00 | 0.02 | 0.00 | 93 | 1014.4 |
| 20260508080826 | 37 | 88 | 0.0 | 0.0 | 0.00 | 0.02 | 0.00 | 93 | 1014.4 |
| 20260508080733 | 37 | 88 | 0.0 | 0.0 | 0.00 | 0.02 | 0.00 | 93 | 1014.4 |
| 20260508080618 | 37 | 88 | 0.0 | 0.0 | 0.00 | 0.02 | 0.00 | 93 | 1014.4 |
| 20260508080508 | 37 | 88 | 0.0 | 0.0 | 0.00 | 0.02 | 0.00 | 93 | 1014.3 |
| 20260508080422 | 37 | 88 | 0.0 | 0.0 | 0.00 | 0.02 | 0.00 | 93 | 1014.3 |
| 20260508080328 | 37 | 88 | 0.0 | 0.0 | 0.00 | 0.02 | 0.00 | 93 | 1014.3 |
| 20260508080214 | 37 | 88 | 0.0 | 0.0 | 0.00 | 0.02 | 0.00 | 93 | 1014.2 |
| 20260508080120 | 37 | 88 | 0.0 | 0.0 | 0.00 | 0.02 | 0.00 | 93 | 1014.2 |
| 20260508080039 | 37 | 88 | 0.0 | 0.0 | 0.00 | 0.02 | 0.00 | 93 | 1014.3 |
| 20260508080009 | 37 | 88 | 0.0 | 0.0 | 0.00 | 0.02 | 0.00 | 93 | 1014.2 |
| 20260508075916 | 37 | 88 | 0.0 | 0.0 | 0.00 | 0.02 | 0.00 | 93 | 1014.2 |
| 20260508075829 | 37 | 88 | 0.0 | 0.0 | 0.00 | 0.02 | 0.00 | 93 | 1014.2 |
| 20260508075715 | 37 | 88 | 0.0 | 0.0 | 0.00 | 0.02 | 0.00 | 93 | 1014.2 |
| 20260508075621 | 37 | 88 | 0.0 | 0.0 | 0.00 | 0.02 | 0.00 | 93 | 1014.2 |
| 20260508075512 | 37 | 88 | 0.0 | 0.0 | 0.00 | 0.02 | 0.00 | 93 | 1014.2 |
| 20260508075418 | 38 | 88 | 0.0 | 0.0 | 0.00 | 0.02 | 0.00 | 93 | 1014.2 |
| 20260508075324 | 38 | 88 | 0.0 | 0.0 | 0.00 | 0.02 | 0.00 | 93 | 1014.3 |
| 20260508075237 | 38 | 88 | 0.0 | 0.0 | 0.00 | 0.02 | 0.00 | 93 | 1014.3 |
| 20260508075122 | 38 | 88 | 0.0 | 0.0 | 0.00 | 0.02 | 0.00 | 93 | 1014.2 |
| 20260508075055 | 38 | 88 | 0.0 | 0.0 | 0.00 | 0.02 | 0.00 | 93 | 1014.2 |
| 20260508074921 | 38 | 88 | 0.0 | 0.0 | 0.00 | 0.02 | 0.00 | 93 | 1014.2 |
| 20260508074811 | 38 | 88 | 0.0 | 0.0 | 0.00 | 0.02 | 0.00 | 93 | 1014.2 |
| 20260508074718 | 38 | 88 | 0.0 | 0.0 | 0.00 | 0.02 | 0.00 | 93 | 1014.2 |
| 20260508074625 | 38 | 88 | 0.0 | 0.0 | 0.00 | 0.02 | 0.00 | 93 | 1014.2 |
| 20260508074539 | 37 | 88 | 0.0 | 0.0 | 0.00 | 0.02 | 0.00 | 93 | 1014.3 |
| 20260508074511 | 38 | 88 | 0.0 | 0.0 | 0.00 | 0.02 | 0.00 | 93 | 1014.3 |
| 20260508074417 | 38 | 88 | 0.0 | 0.0 | 0.00 | 0.02 | 0.00 | 93 | 1014.3 |
| 20260508074334 | 38 | 88 | 0.0 | 0.0 | 0.00 | 0.02 | 0.00 | 93 | 1014.3 |
| 20260508074221 | 38 | 88 | 0.0 | 0.0 | 0.00 | 0.02 | 0.00 | 93 | 1014.3 |
| 20260508074127 | 38 | 88 | 0.0 | 0.0 | 0.00 | 0.02 | 0.00 | 93 | 1014.3 |
| 20260508074013 | 38 | 88 | 0.0 | 0.0 | 0.00 | 0.02 | 0.00 | 93 | 1014.2 |
| 20260508073946 | 38 | 88 | 0.0 | 0.0 | 0.00 | 0.02 | 0.00 | 93 | 1014.2 |
| 20260508073811 | 38 | 88 | 0.0 | 0.0 | 0.00 | 0.02 | 0.00 | 93 | 1014.3 |
| 20260508073721 | 38 | 88 | 0.0 | 0.0 | 0.00 | 0.02 | 0.00 | 93 | 1014.3 |
| 20260508073654 | 38 | 88 | 0.0 | 0.0 | 0.00 | 0.02 | 0.00 | 93 | 1014.3 |
| 20260508073521 | 38 | 88 | 0.0 | 0.0 | 0.00 | 0.02 | 0.00 | 93 | 1014.3 |
| 20260508073446 | 38 | 88 | 0.0 | 0.0 | 0.00 | 0.02 | 0.00 | 93 | 1014.3 |
| 20260508073311 | 38 | 88 | 0.0 | 0.0 | 0.00 | 0.02 | 0.00 | 93 | 1014.3 |
| 20260508073218 | 38 | 88 | 0.0 | 0.0 | 0.00 | 0.02 | 0.00 | 93 | 1014.3 |
| 20260508073135 | 38 | 88 | 0.0 | 0.0 | 0.00 | 0.02 | 0.00 | 93 | 1014.3 |
| 20260508073055 | 38 | 88 | 0.0 | 0.0 | 0.00 | 0.02 | 0.00 | 93 | 1014.3 |
| 20260508073020 | 38 | 88 | 0.0 | 0.0 | 0.00 | 0.02 | 0.00 | 93 | 1014.3 |
| 20260508072926 | 38 | 88 | 0.0 | 0.0 | 0.00 | 0.02 | 0.00 | 93 | 1014.3 |
| 20260508072812 | 38 | 88 | 0.0 | 0.0 | 0.00 | 0.02 | 0.00 | 93 | 1014.3 |
| 20260508072725 | 38 | 88 | 0.0 | 0.0 | 0.00 | 0.02 | 0.00 | 93 | 1014.3 |
| 20260508072631 | 38 | 88 | 0.0 | 0.0 | 0.00 | 0.02 | 0.00 | 93 | 1014.3 |
| 20260508072521 | 38 | 88 | 0.0 | 0.0 | 0.00 | 0.02 | 0.00 | 93 | 1014.3 |
| 20260508072447 | 38 | 88 | 0.0 | 0.0 | 0.00 | 0.02 | 0.00 | 93 | 1014.3 |
| 20260508072312 | 38 | 88 | 0.0 | 0.0 | 0.00 | 0.02 | 0.00 | 93 | 1014.2 |
| 20260508072246 | 38 | 88 | 0.0 | 0.0 | 0.00 | 0.02 | 0.00 | 93 | 1014.2 |
| 20260508072112 | 38 | 88 | 0.0 | 0.0 | 0.00 | 0.02 | 0.00 | 93 | 1014.2 |
| 20260508072018 | 38 | 88 | 0.0 | 0.0 | 0.00 | 0.02 | 0.00 | 93 | 1014.2 |
| 20260508071909 | 38 | 88 | 0.0 | 0.0 | 0.00 | 0.02 | 0.00 | 93 | 1014.2 |
| 20260508071822 | 39 | 88 | 0.0 | 0.0 | 0.00 | 0.02 | 0.00 | 93 | 1014.2 |
| 20260508071748 | 39 | 88 | 0.0 | 0.0 | 0.00 | 0.02 | 0.00 | 93 | 1014.2 |
| 20260508071614 | 39 | 88 | 0.0 | 0.0 | 0.00 | 0.02 | 0.00 | 93 | 1014.2 |
| 20260508071532 | 38 | 88 | 0.0 | 0.0 | 0.00 | 0.02 | 0.00 | 93 | 1014.2 |
| 20260508071519 | 39 | 88 | 0.0 | 0.0 | 0.00 | 0.02 | 0.00 | 93 | 1014.2 |
| 20260508071432 | 39 | 88 | 0.0 | 0.0 | 0.00 | 0.02 | 0.00 | 93 | 1014.2 |
| 20260508071322 | 39 | 88 | 0.0 | 0.0 | 0.00 | 0.02 | 0.00 | 93 | 1014.1 |
| 20260508071228 | 39 | 88 | 0.0 | 0.0 | 0.00 | 0.02 | 0.00 | 93 | 1014.1 |
| 20260508071114 | 39 | 88 | 0.0 | 0.0 | 0.00 | 0.02 | 0.00 | 93 | 1014.1 |
| 20260508071021 | 39 | 88 | 0.0 | 0.0 | 0.00 | 0.02 | 0.00 | 93 | 1014.1 |
| 20260508070934 | 39 | 88 | 0.0 | 0.0 | 0.00 | 0.02 | 0.00 | 93 | 1014.1 |
| 20260508070825 | 39 | 88 | 0.0 | 0.0 | 0.00 | 0.02 | 0.00 | 93 | 1014.1 |
| 20260508070731 | 39 | 88 | 0.0 | 0.0 | 0.00 | 0.02 | 0.00 | 93 | 1014.0 |
| 20260508070636 | 39 | 88 | 0.0 | 0.0 | 0.00 | 0.02 | 0.00 | 93 | 1014.0 |
| 20260508070528 | 39 | 88 | 0.0 | 0.0 | 0.00 | 0.02 | 0.00 | 93 | 1014.0 |
| 20260508070434 | 39 | 88 | 0.0 | 0.0 | 0.00 | 0.02 | 0.00 | 93 | 1014.0 |
| 20260508070346 | 39 | 88 | 0.0 | 0.0 | 0.00 | 0.02 | 0.00 | 93 | 1014.0 |
| 20260508070211 | 39 | 88 | 0.0 | 0.0 | 0.00 | 0.02 | 0.00 | 93 | 1014.0 |
| 20260508070121 | 39 | 88 | 0.0 | 0.0 | 0.00 | 0.02 | 0.00 | 93 | 1014.0 |
| 20260508070053 | 39 | 88 | 0.0 | 0.0 | 0.00 | 0.02 | 0.00 | 93 | 1014.1 |
| 20260508070027 | 39 | 88 | 0.0 | 0.0 | 0.00 | 0.02 | 0.00 | 93 | 1014.0 |
| 20260508065914 | 39 | 88 | 0.0 | 0.0 | 0.00 | 0.02 | 0.00 | 93 | 1014.0 |
| 20260508065827 | 39 | 88 | 0.0 | 0.0 | 0.00 | 0.02 | 0.00 | 93 | 1014.0 |
| 20260508065733 | 39 | 88 | 0.0 | 0.0 | 0.00 | 0.02 | 0.00 | 93 | 1014.0 |
| 20260508065620 | 39 | 88 | 0.0 | 0.0 | 0.00 | 0.02 | 0.00 | 93 | 1014.0 |
| 20260508065510 | 39 | 88 | 0.0 | 0.0 | 0.00 | 0.02 | 0.00 | 93 | 1014.0 |
| 20260508065417 | 39 | 88 | 0.0 | 0.0 | 0.00 | 0.02 | 0.00 | 93 | 1014.0 |
| 20260508065323 | 39 | 88 | 0.0 | 0.0 | 0.00 | 0.02 | 0.00 | 93 | 1013.9 |
| 20260508065209 | 40 | 88 | 0.0 | 0.0 | 0.00 | 0.02 | 0.00 | 93 | 1013.9 |
| 20260508065122 | 40 | 88 | 0.0 | 0.0 | 0.00 | 0.02 | 0.00 | 93 | 1013.9 |
| 20260508065012 | 40 | 88 | 0.0 | 0.0 | 0.00 | 0.02 | 0.00 | 93 | 1013.9 |
| 20260508064918 | 40 | 88 | 0.0 | 0.0 | 0.00 | 0.02 | 0.00 | 93 | 1013.9 |
| 20260508064826 | 40 | 88 | 0.0 | 0.0 | 0.00 | 0.02 | 0.00 | 93 | 1013.9 |
| 20260508064712 | 40 | 88 | 0.0 | 0.0 | 0.00 | 0.02 | 0.00 | 93 | 1013.9 |
| 20260508064618 | 40 | 88 | 0.0 | 0.0 | 0.00 | 0.02 | 0.00 | 93 | 1013.9 |
| 20260508064526 | 40 | 88 | 0.0 | 0.0 | 0.00 | 0.02 | 0.00 | 93 | 1013.9 |
| 20260508064512 | 39 | 88 | 0.0 | 0.0 | 0.00 | 0.02 | 0.00 | 93 | 1013.9 |
| 20260508064416 | 40 | 88 | 0.0 | 0.0 | 0.00 | 0.02 | 0.00 | 93 | 1013.9 |
| 20260508064339 | 40 | 88 | 0.0 | 0.0 | 0.00 | 0.02 | 0.00 | 93 | 1013.8 |
| 20260508064228 | 40 | 88 | 0.0 | 0.0 | 0.00 | 0.02 | 0.00 | 93 | 1013.8 |
| 20260508064115 | 40 | 88 | 0.0 | 0.0 | 0.00 | 0.02 | 0.00 | 93 | 1013.8 |
| 20260508064021 | 40 | 88 | 0.0 | 0.0 | 0.00 | 0.02 | 0.00 | 93 | 1013.8 |
| 20260508063911 | 40 | 88 | 0.0 | 0.0 | 0.00 | 0.02 | 0.00 | 93 | 1013.7 |
| 20260508063838 | 40 | 88 | 0.0 | 0.0 | 0.00 | 0.02 | 0.00 | 93 | 1013.7 |
| 20260508063730 | 40 | 88 | 0.0 | 0.0 | 0.00 | 0.02 | 0.00 | 93 | 1013.8 |
| 20260508063616 | 40 | 88 | 0.0 | 0.0 | 0.00 | 0.02 | 0.00 | 93 | 1013.8 |
| 20260508063522 | 40 | 88 | 0.0 | 0.0 | 0.00 | 0.02 | 0.00 | 93 | 1013.8 |
| 20260508063428 | 40 | 88 | 0.0 | 0.0 | 0.00 | 0.02 | 0.00 | 93 | 1013.7 |
| 20260508063317 | 40 | 88 | 0.0 | 0.0 | 0.00 | 0.02 | 0.00 | 93 | 1013.7 |
| 20260508063230 | 40 | 88 | 0.0 | 0.0 | 0.00 | 0.02 | 0.00 | 93 | 1013.7 |
| 20260508063117 | 40 | 88 | 0.0 | 0.0 | 0.00 | 0.02 | 0.00 | 93 | 1013.7 |
| 20260508063110 | 40 | 88 | 0.0 | 0.0 | 0.00 | 0.02 | 0.00 | 93 | 1013.7 |
| 20260508063022 | 40 | 88 | 0.0 | 0.0 | 0.00 | 0.02 | 0.00 | 93 | 1013.7 |
| 20260508062928 | 40 | 88 | 0.0 | 0.0 | 0.00 | 0.02 | 0.00 | 93 | 1013.7 |
| 20260508062815 | 40 | 88 | 0.0 | 0.0 | 0.00 | 0.02 | 0.00 | 93 | 1013.7 |
| 20260508062725 | 40 | 88 | 0.0 | 0.0 | 0.00 | 0.02 | 0.00 | 93 | 1013.7 |
| 20260508062611 | 40 | 88 | 0.0 | 0.0 | 0.00 | 0.02 | 0.00 | 93 | 1013.6 |
| 20260508062523 | 40 | 88 | 0.0 | 0.0 | 0.00 | 0.02 | 0.00 | 93 | 1013.6 |
| 20260508062409 | 40 | 88 | 0.0 | 0.0 | 0.00 | 0.02 | 0.00 | 93 | 1013.6 |
| 20260508062316 | 40 | 88 | 0.0 | 0.0 | 0.00 | 0.02 | 0.00 | 93 | 1013.6 |
| 20260508062249 | 40 | 88 | 0.0 | 0.0 | 0.00 | 0.02 | 0.00 | 93 | 1013.6 |
| 20260508062118 | 40 | 88 | 0.0 | 0.0 | 0.00 | 0.02 | 0.00 | 93 | 1013.6 |
| 20260508062044 | 41 | 88 | 0.0 | 0.0 | 0.00 | 0.02 | 0.00 | 93 | 1013.5 |
| 20260508061936 | 41 | 88 | 0.0 | 0.0 | 0.00 | 0.02 | 0.00 | 93 | 1013.5 |
| 20260508061821 | 41 | 88 | 0.0 | 0.0 | 0.00 | 0.02 | 0.00 | 93 | 1013.5 |
| 20260508061728 | 41 | 88 | 0.0 | 0.0 | 0.00 | 0.02 | 0.00 | 93 | 1013.5 |
| 20260508061614 | 41 | 88 | 0.0 | 0.0 | 0.00 | 0.02 | 0.00 | 93 | 1013.5 |
| 20260508061543 | 40 | 88 | 0.0 | 0.0 | 0.00 | 0.02 | 0.00 | 93 | 1013.5 |
| 20260508061524 | 41 | 88 | 0.0 | 0.0 | 0.00 | 0.02 | 0.00 | 93 | 1013.5 |
| 20260508061410 | 41 | 88 | 0.0 | 0.0 | 0.00 | 0.02 | 0.00 | 93 | 1013.5 |
| 20260508061324 | 41 | 88 | 0.0 | 0.0 | 0.00 | 0.02 | 0.00 | 93 | 1013.5 |
| 20260508061231 | 41 | 88 | 0.0 | 0.0 | 0.00 | 0.02 | 0.00 | 93 | 1013.4 |
| 20260508061117 | 41 | 88 | 0.0 | 0.0 | 0.00 | 0.02 | 0.00 | 93 | 1013.4 |
| 20260508061022 | 41 | 88 | 0.0 | 0.0 | 0.00 | 0.02 | 0.00 | 93 | 1013.4 |
| 20260508060913 | 41 | 88 | 0.0 | 0.0 | 0.00 | 0.02 | 0.00 | 93 | 1013.4 |
| 20260508060825 | 41 | 88 | 0.0 | 0.0 | 0.00 | 0.02 | 0.00 | 93 | 1013.4 |
| 20260508060733 | 41 | 88 | 0.0 | 0.0 | 0.00 | 0.02 | 0.00 | 93 | 1013.4 |
| 20260508060617 | 41 | 88 | 0.0 | 0.0 | 0.00 | 0.02 | 0.00 | 93 | 1013.4 |
| 20260508060530 | 41 | 88 | 0.0 | 0.0 | 0.00 | 0.02 | 0.00 | 93 | 1013.4 |
| 20260508060421 | 41 | 88 | 0.0 | 0.0 | 0.00 | 0.02 | 0.00 | 93 | 1013.4 |
| 20260508060327 | 41 | 88 | 0.0 | 0.0 | 0.00 | 0.02 | 0.00 | 93 | 1013.4 |
| 20260508060213 | 41 | 88 | 0.0 | 0.0 | 0.00 | 0.02 | 0.00 | 93 | 1013.4 |
| 20260508060119 | 41 | 88 | 0.0 | 0.0 | 0.00 | 0.02 | 0.00 | 93 | 1013.4 |
| 20260508060041 | 41 | 88 | 0.0 | 0.0 | 0.00 | 0.02 | 0.00 | 93 | 1013.4 |
| 20260508060025 | 41 | 88 | 0.0 | 0.0 | 0.00 | 0.02 | 0.00 | 93 | 1013.4 |
| 20260508055911 | 42 | 88 | 0.0 | 0.0 | 0.00 | 0.02 | 0.00 | 93 | 1013.3 |
| 20260508055828 | 42 | 88 | 0.0 | 0.0 | 0.00 | 0.02 | 0.00 | 93 | 1013.3 |
| 20260508055715 | 42 | 88 | 0.0 | 0.0 | 0.00 | 0.02 | 0.00 | 93 | 1013.3 |
| 20260508055622 | 42 | 88 | 0.0 | 0.0 | 0.00 | 0.02 | 0.00 | 93 | 1013.3 |
| 20260508055528 | 42 | 88 | 0.0 | 0.0 | 0.00 | 0.02 | 0.00 | 93 | 1013.3 |
| 20260508055414 | 42 | 88 | 0.0 | 0.0 | 0.00 | 0.02 | 0.00 | 93 | 1013.3 |
| 20260508055325 | 42 | 88 | 0.0 | 0.0 | 0.00 | 0.02 | 0.00 | 93 | 1013.3 |
| 20260508055211 | 42 | 88 | 0.0 | 0.0 | 0.00 | 0.02 | 0.00 | 93 | 1013.4 |
| 20260508055124 | 42 | 88 | 0.0 | 0.0 | 0.00 | 0.02 | 0.00 | 93 | 1013.4 |
| 20260508055027 | 42 | 88 | 0.0 | 0.0 | 0.00 | 0.02 | 0.00 | 93 | 1013.4 |
| 20260508054909 | 42 | 88 | 0.0 | 0.0 | 0.00 | 0.02 | 0.00 | 93 | 1013.4 |
| 20260508054816 | 42 | 88 | 0.0 | 0.0 | 0.00 | 0.02 | 0.00 | 93 | 1013.4 |
| 20260508054733 | 42 | 88 | 0.0 | 0.0 | 0.00 | 0.02 | 0.00 | 93 | 1013.3 |
| 20260508054622 | 42 | 88 | 0.0 | 0.0 | 0.00 | 0.02 | 0.00 | 93 | 1013.3 |
| 20260508054612 | 42 | 88 | 0.0 | 0.0 | 0.00 | 0.02 | 0.00 | 93 | 1013.3 |
| 20260508054545 | 42 | 88 | 0.0 | 0.0 | 0.00 | 0.02 | 0.00 | 93 | 1013.3 |
| 20260508054431 | 42 | 88 | 0.0 | 0.0 | 0.00 | 0.03 | 0.00 | 93 | 1013.4 |
| 20260508054343 | 42 | 88 | 0.0 | 0.0 | 0.00 | 0.03 | 0.00 | 93 | 1013.4 |
| 20260508054228 | 42 | 88 | 0.0 | 0.0 | 0.00 | 0.03 | 0.00 | 93 | 1013.3 |
| 20260508054118 | 43 | 88 | 0.0 | 0.0 | 0.00 | 0.03 | 0.00 | 93 | 1013.3 |
| 20260508054031 | 43 | 88 | 0.0 | 0.0 | 0.00 | 0.03 | 0.00 | 93 | 1013.3 |
| 20260508053917 | 43 | 88 | 0.0 | 0.0 | 0.00 | 0.03 | 0.00 | 93 | 1013.3 |
| 20260508053823 | 43 | 88 | 0.0 | 0.0 | 0.00 | 0.03 | 0.00 | 93 | 1013.3 |
| 20260508053730 | 43 | 88 | 0.0 | 0.0 | 0.00 | 0.03 | 0.00 | 93 | 1013.3 |
| 20260508053615 | 43 | 88 | 0.0 | 0.0 | 0.00 | 0.03 | 0.00 | 93 | 1013.3 |
| 20260508053532 | 43 | 88 | 0.0 | 0.0 | 0.00 | 0.03 | 0.00 | 93 | 1013.3 |
| 20260508053418 | 43 | 88 | 0.0 | 0.0 | 0.00 | 0.03 | 0.00 | 93 | 1013.3 |
| 20260508053324 | 43 | 88 | 0.0 | 0.0 | 0.00 | 0.03 | 0.00 | 93 | 1013.3 |
| 20260508053210 | 43 | 88 | 0.0 | 0.0 | 0.00 | 0.03 | 0.00 | 93 | 1013.3 |
| 20260508053123 | 43 | 88 | 0.0 | 0.0 | 0.00 | 0.03 | 0.00 | 93 | 1013.3 |
| 20260508053110 | 42 | 88 | 0.0 | 0.0 | 0.00 | 0.03 | 0.00 | 93 | 1013.3 |
| 20260508053029 | 43 | 88 | 0.0 | 0.0 | 0.00 | 0.03 | 0.00 | 93 | 1013.3 |
| 20260508052939 | 43 | 88 | 0.0 | 0.0 | 0.00 | 0.03 | 0.00 | 93 | 1013.3 |
| 20260508052831 | 43 | 88 | 0.0 | 0.0 | 0.00 | 0.03 | 0.00 | 93 | 1013.4 |
| 20260508052710 | 43 | 88 | 0.0 | 0.0 | 0.00 | 0.03 | 0.00 | 93 | 1013.4 |
| 20260508052623 | 43 | 88 | 0.0 | 0.0 | 0.00 | 0.03 | 0.00 | 93 | 1013.4 |
| 20260508052510 | 43 | 88 | 0.0 | 0.0 | 0.00 | 0.03 | 0.00 | 93 | 1013.4 |
| 20260508052436 | 43 | 88 | 0.0 | 0.0 | 0.00 | 0.03 | 0.00 | 93 | 1013.4 |
| 20260508052331 | 43 | 88 | 0.0 | 0.0 | 0.00 | 0.03 | 0.00 | 93 | 1013.3 |
| 20260508052218 | 43 | 88 | 0.0 | 0.0 | 0.00 | 0.03 | 0.00 | 93 | 1013.4 |
| 20260508052124 | 43 | 88 | 0.0 | 0.0 | 0.00 | 0.03 | 0.00 | 93 | 1013.4 |
| 20260508052032 | 43 | 88 | 0.0 | 0.0 | 0.00 | 0.03 | 0.00 | 93 | 1013.4 |
| 20260508051923 | 43 | 88 | 0.0 | 0.0 | 0.00 | 0.03 | 0.00 | 93 | 1013.4 |
| 20260508051829 | 43 | 88 | 0.0 | 0.0 | 0.00 | 0.03 | 0.00 | 93 | 1013.4 |
| 20260508051719 | 43 | 88 | 0.0 | 0.0 | 0.00 | 0.03 | 0.00 | 93 | 1013.4 |
| 20260508051656 | 43 | 88 | 0.0 | 0.0 | 0.00 | 0.03 | 0.00 | 93 | 1013.3 |
| 20260508051645 | 43 | 88 | 0.0 | 0.0 | 0.00 | 0.03 | 0.00 | 93 | 1013.4 |
| 20260508051537 | 43 | 88 | 0.0 | 0.0 | 0.00 | 0.03 | 0.00 | 93 | 1013.4 |
| 20260508051443 | 43 | 88 | 0.0 | 0.0 | 0.00 | 0.03 | 0.00 | 93 | 1013.4 |
| 20260508051336 | 43 | 88 | 0.0 | 0.0 | 0.00 | 0.03 | 0.00 | 93 | 1013.4 |
| 20260508051221 | 43 | 88 | 0.0 | 0.0 | 0.00 | 0.03 | 0.00 | 93 | 1013.4 |
| 20260508051154 | 43 | 88 | 0.0 | 0.0 | 0.00 | 0.03 | 0.00 | 93 | 1013.4 |
| 20260508051023 | 43 | 88 | 0.0 | 0.0 | 0.00 | 0.03 | 0.00 | 93 | 1013.4 |
| 20260508050909 | 43 | 88 | 0.0 | 0.0 | 0.00 | 0.03 | 0.00 | 93 | 1013.4 |
| 20260508050816 | 43 | 88 | 0.0 | 0.0 | 0.00 | 0.03 | 0.00 | 93 | 1013.4 |
| 20260508050749 | 43 | 88 | 0.0 | 0.0 | 0.00 | 0.03 | 0.00 | 93 | 1013.4 |
| 20260508050633 | 43 | 88 | 0.0 | 0.0 | 0.00 | 0.03 | 0.00 | 93 | 1013.4 |
| 20260508050519 | 43 | 88 | 0.0 | 0.0 | 0.00 | 0.03 | 0.00 | 93 | 1013.4 |
| 20260508050452 | 43 | 88 | 0.0 | 0.0 | 0.00 | 0.03 | 0.00 | 93 | 1013.3 |
| 20260508050341 | 43 | 88 | 0.0 | 0.0 | 0.00 | 0.03 | 0.00 | 93 | 1013.2 |
| 20260508050227 | 43 | 88 | 0.0 | 0.0 | 0.00 | 0.03 | 0.00 | 93 | 1013.3 |
| 20260508050140 | 43 | 88 | 0.0 | 0.0 | 0.00 | 0.03 | 0.00 | 93 | 1013.3 |
| 20260508050030 | 43 | 88 | 0.0 | 0.0 | 0.00 | 0.03 | 0.00 | 93 | 1013.3 |
| 20260508045913 | 44 | 88 | 0.0 | 0.0 | 0.00 | 0.03 | 0.00 | 93 | 1013.2 |
| 20260508045846 | 44 | 88 | 0.0 | 0.0 | 0.00 | 0.03 | 0.00 | 93 | 1013.2 |
| 20260508045715 | 44 | 88 | 0.0 | 0.0 | 0.00 | 0.03 | 0.00 | 93 | 1013.2 |
| 20260508045622 | 44 | 88 | 0.0 | 0.0 | 0.00 | 0.03 | 0.00 | 93 | 1013.2 |
| 20260508045528 | 44 | 88 | 0.0 | 0.0 | 0.00 | 0.03 | 0.00 | 93 | 1013.2 |
| 20260508045434 | 44 | 88 | 0.0 | 0.0 | 0.00 | 0.03 | 0.00 | 93 | 1013.2 |
| 20260508045326 | 44 | 88 | 0.0 | 0.0 | 0.00 | 0.03 | 0.00 | 93 | 1013.2 |
| 20260508045212 | 44 | 88 | 0.0 | 0.0 | 0.00 | 0.03 | 0.00 | 93 | 1013.2 |
| 20260508045122 | 44 | 88 | 0.0 | 0.0 | 0.00 | 0.03 | 0.00 | 93 | 1013.2 |
| 20260508045027 | 44 | 88 | 0.0 | 0.0 | 0.00 | 0.03 | 0.00 | 93 | 1013.2 |
| 20260508044914 | 44 | 88 | 0.0 | 0.0 | 0.00 | 0.03 | 0.00 | 93 | 1013.1 |
| 20260508044827 | 44 | 88 | 0.0 | 0.0 | 0.00 | 0.03 | 0.00 | 93 | 1013.1 |
| 20260508044734 | 44 | 88 | 0.0 | 0.0 | 0.00 | 0.03 | 0.00 | 93 | 1013.1 |
| 20260508044621 | 44 | 88 | 0.0 | 0.0 | 0.00 | 0.03 | 0.00 | 93 | 1013.1 |
| 20260508044609 | 43 | 88 | 0.0 | 0.0 | 0.00 | 0.03 | 0.00 | 93 | 1013.0 |
| 20260508044511 | 44 | 88 | 0.0 | 0.0 | 0.00 | 0.08 | 0.00 | 93 | 1013.1 |
| 20260508044417 | 44 | 88 | 0.0 | 0.0 | 0.00 | 0.08 | 0.00 | 93 | 1013.1 |
| 20260508044323 | 44 | 88 | 0.0 | 0.0 | 0.00 | 0.08 | 0.00 | 93 | 1013.1 |
| 20260508044236 | 44 | 88 | 0.0 | 0.0 | 0.00 | 0.08 | 0.00 | 93 | 1013.1 |
| 20260508044122 | 44 | 88 | 0.0 | 0.0 | 0.00 | 0.08 | 0.00 | 93 | 1013.1 |
| 20260508044035 | 44 | 88 | 0.0 | 0.0 | 0.00 | 0.08 | 0.00 | 93 | 1013.1 |
| 20260508043931 | 44 | 88 | 0.0 | 0.0 | 0.00 | 0.08 | 0.00 | 93 | 1013.0 |
| 20260508043835 | 44 | 88 | 0.0 | 0.0 | 0.00 | 0.08 | 0.00 | 93 | 1013.0 |
| 20260508043748 | 44 | 88 | 0.0 | 0.0 | 0.00 | 0.08 | 0.00 | 93 | 1013.0 |
| 20260508043625 | 44 | 88 | 0.0 | 0.0 | 0.00 | 0.08 | 0.00 | 93 | 1013.0 |
| 20260508043512 | 44 | 88 | 0.0 | 0.0 | 0.00 | 0.08 | 0.00 | 92 | 1013.0 |
| 20260508043418 | 44 | 88 | 0.0 | 0.0 | 0.00 | 0.08 | 0.00 | 92 | 1013.0 |
| 20260508043330 | 44 | 88 | 0.0 | 0.0 | 0.00 | 0.08 | 0.00 | 92 | 1013.0 |
| 20260508043220 | 44 | 88 | 0.0 | 0.0 | 0.00 | 0.08 | 0.00 | 92 | 1013.0 |
| 20260508043127 | 44 | 88 | 0.0 | 0.0 | 0.00 | 0.08 | 0.00 | 92 | 1013.0 |
| 20260508043106 | 44 | 88 | 0.0 | 0.0 | 0.00 | 0.08 | 0.00 | 92 | 1012.9 |
| 20260508043013 | 44 | 88 | 0.0 | 0.0 | 0.00 | 0.08 | 0.00 | 92 | 1012.9 |
| 20260508042919 | 44 | 88 | 0.0 | 0.0 | 0.00 | 0.08 | 0.00 | 92 | 1012.9 |
| 20260508042824 | 44 | 88 | 0.0 | 0.0 | 0.00 | 0.08 | 0.00 | 92 | 1012.9 |
| 20260508042723 | 44 | 88 | 0.0 | 0.0 | 0.00 | 0.08 | 0.00 | 92 | 1012.9 |
| 20260508042645 | 44 | 88 | 0.0 | 0.0 | 0.00 | 0.08 | 0.00 | 92 | 1012.9 |
| 20260508042512 | 44 | 88 | 0.0 | 0.0 | 0.00 | 0.08 | 0.00 | 92 | 1012.8 |
| 20260508042417 | 44 | 88 | 0.0 | 0.0 | 0.00 | 0.08 | 0.00 | 92 | 1012.8 |
| 20260508042330 | 44 | 88 | 0.0 | 0.0 | 0.00 | 0.08 | 0.00 | 92 | 1012.8 |
| 20260508042216 | 45 | 88 | 0.0 | 0.0 | 0.00 | 0.08 | 0.00 | 92 | 1012.8 |
| 20260508042126 | 45 | 88 | 0.0 | 0.0 | 0.00 | 0.08 | 0.00 | 92 | 1012.8 |
| 20260508042013 | 45 | 88 | 0.0 | 0.0 | 0.00 | 0.08 | 0.00 | 92 | 1012.7 |
| 20260508041921 | 45 | 88 | 0.0 | 0.0 | 0.00 | 0.08 | 0.00 | 92 | 1012.7 |
| 20260508041826 | 45 | 88 | 0.0 | 0.0 | 0.00 | 0.08 | 0.00 | 92 | 1012.8 |
| 20260508041756 | 45 | 88 | 0.0 | 0.0 | 0.00 | 0.08 | 0.00 | 92 | 1012.8 |
| 20260508041625 | 45 | 88 | 0.0 | 0.0 | 0.00 | 0.08 | 0.00 | 92 | 1012.7 |
| 20260508041528 | 44 | 88 | 0.0 | 0.0 | 0.00 | 0.08 | 0.00 | 92 | 1012.6 |
| 20260508041515 | 45 | 88 | 0.0 | 0.0 | 0.00 | 0.08 | 0.00 | 92 | 1012.7 |
| 20260508041428 | 45 | 88 | 0.0 | 0.0 | 0.00 | 0.08 | 0.00 | 92 | 1012.6 |
| 20260508041315 | 45 | 88 | 0.0 | 0.0 | 0.00 | 0.08 | 0.00 | 92 | 1012.6 |
| 20260508041221 | 45 | 88 | 0.0 | 0.0 | 0.00 | 0.08 | 0.00 | 92 | 1012.6 |
| 20260508041127 | 45 | 88 | 0.0 | 0.0 | 0.00 | 0.08 | 0.00 | 92 | 1012.6 |
| 20260508041017 | 45 | 88 | 0.0 | 0.0 | 0.00 | 0.08 | 0.00 | 92 | 1012.6 |
| 20260508040931 | 45 | 88 | 0.0 | 0.0 | 0.00 | 0.08 | 0.00 | 92 | 1012.6 |
| 20260508040838 | 45 | 88 | 0.0 | 0.0 | 0.00 | 0.08 | 0.00 | 92 | 1012.5 |
| 20260508040724 | 45 | 88 | 0.0 | 0.0 | 0.00 | 0.08 | 0.00 | 92 | 1012.5 |
| 20260508040623 | 45 | 88 | 0.0 | 0.0 | 0.00 | 0.08 | 0.00 | 92 | 1012.5 |
| 20260508040531 | 45 | 88 | 0.0 | 0.0 | 0.00 | 0.08 | 0.00 | 92 | 1012.5 |
| 20260508040435 | 45 | 88 | 0.0 | 0.0 | 0.00 | 0.08 | 0.00 | 92 | 1012.5 |
| 20260508040323 | 45 | 88 | 0.0 | 0.0 | 0.00 | 0.08 | 0.00 | 92 | 1012.5 |
| 20260508040209 | 45 | 88 | 0.0 | 0.0 | 0.00 | 0.08 | 0.00 | 92 | 1012.5 |
| 20260508040122 | 45 | 88 | 0.0 | 0.0 | 0.00 | 0.08 | 0.00 | 92 | 1012.5 |
| 20260508040009 | 45 | 88 | 0.0 | 0.0 | 0.00 | 0.08 | 0.00 | 92 | 1012.6 |
| 20260508040000 | 45 | 88 | 0.0 | 0.0 | 0.00 | 0.08 | 0.00 | 92 | 1012.5 |
| 20260508035914 | 45 | 88 | 0.0 | 0.0 | 0.00 | 0.08 | 0.00 | 92 | 1012.5 |
| 20260508035825 | 45 | 88 | 0.0 | 0.0 | 0.00 | 0.08 | 0.00 | 92 | 1012.5 |
| 20260508035711 | 45 | 88 | 0.0 | 0.0 | 0.00 | 0.08 | 0.00 | 92 | 1012.5 |
| 20260508035618 | 45 | 88 | 0.0 | 0.0 | 0.00 | 0.08 | 0.00 | 92 | 1012.5 |
| 20260508035531 | 45 | 88 | 0.0 | 0.0 | 0.00 | 0.08 | 0.00 | 91 | 1012.5 |
| 20260508035427 | 45 | 88 | 0.0 | 0.0 | 0.00 | 0.08 | 0.00 | 91 | 1012.5 |
| 20260508035313 | 46 | 88 | 0.0 | 0.0 | 0.00 | 0.08 | 0.00 | 92 | 1012.5 |
| 20260508035222 | 46 | 88 | 0.0 | 0.0 | 0.00 | 0.08 | 0.00 | 91 | 1012.5 |
| 20260508035110 | 46 | 88 | 0.0 | 0.0 | 0.00 | 0.08 | 0.00 | 92 | 1012.6 |
| 20260508035042 | 46 | 88 | 0.0 | 0.0 | 0.00 | 0.08 | 0.00 | 92 | 1012.6 |
| 20260508034959 | 46 | 88 | 0.0 | 0.0 | 0.00 | 0.08 | 0.00 | 92 | 1012.5 |
| 20260508034822 | 46 | 88 | 0.0 | 0.0 | 0.00 | 0.08 | 0.00 | 92 | 1012.5 |
| 20260508034722 | 46 | 88 | 0.0 | 0.0 | 0.00 | 0.08 | 0.00 | 92 | 1012.5 |
| 20260508034620 | 46 | 88 | 0.0 | 0.0 | 0.00 | 0.08 | 0.00 | 92 | 1012.5 |
| 20260508034537 | 46 | 88 | 0.0 | 0.0 | 0.00 | 0.08 | 0.00 | 91 | 1012.5 |
| 20260508034518 | 45 | 88 | 0.0 | 0.0 | 0.00 | 0.14 | 0.08 | 91 | 1012.5 |
| 20260508034421 | 46 | 88 | 0.0 | 0.0 | 0.00 | 0.14 | 0.08 | 91 | 1012.6 |
| 20260508034347 | 46 | 88 | 0.0 | 0.0 | 0.00 | 0.14 | 0.08 | 92 | 1012.6 |
| 20260508034236 | 46 | 88 | 0.0 | 0.0 | 0.00 | 0.14 | 0.08 | 91 | 1012.5 |
| 20260508034121 | 46 | 88 | 0.0 | 0.0 | 0.00 | 0.14 | 0.08 | 91 | 1012.5 |
| 20260508034024 | 46 | 88 | 0.0 | 0.0 | 0.00 | 0.14 | 0.08 | 92 | 1012.5 |
| 20260508033914 | 46 | 88 | 0.0 | 0.0 | 0.00 | 0.14 | 0.08 | 92 | 1012.4 |
| 20260508033820 | 46 | 88 | 0.0 | 0.0 | 0.00 | 0.14 | 0.08 | 91 | 1012.4 |
| 20260508033733 | 46 | 88 | 0.0 | 0.0 | 0.00 | 0.14 | 0.08 | 91 | 1012.4 |
| 20260508033629 | 46 | 88 | 0.0 | 0.0 | 0.00 | 0.14 | 0.08 | 91 | 1012.4 |
| 20260508033513 | 47 | 88 | 0.0 | 0.0 | 0.00 | 0.14 | 0.08 | 91 | 1012.4 |
| 20260508033418 | 47 | 88 | 0.0 | 0.0 | 0.00 | 0.14 | 0.08 | 91 | 1012.4 |
| 20260508033331 | 47 | 88 | 0.0 | 0.0 | 0.00 | 0.14 | 0.08 | 91 | 1012.4 |
| 20260508033217 | 47 | 88 | 0.0 | 0.0 | 0.00 | 0.14 | 0.08 | 91 | 1012.4 |
| 20260508033123 | 47 | 88 | 0.0 | 0.0 | 0.00 | 0.14 | 0.08 | 91 | 1012.4 |
| 20260508033058 | 46 | 88 | 0.0 | 0.0 | 0.00 | 0.14 | 0.08 | 91 | 1012.3 |
| 20260508033009 | 47 | 88 | 0.0 | 0.0 | 0.00 | 0.14 | 0.08 | 92 | 1012.3 |
| 20260508032917 | 47 | 88 | 0.0 | 0.0 | 0.00 | 0.14 | 0.08 | 92 | 1012.3 |
| 20260508032822 | 47 | 88 | 0.0 | 0.0 | 0.00 | 0.14 | 0.08 | 92 | 1012.3 |
| 20260508032735 | 47 | 88 | 0.0 | 0.0 | 0.00 | 0.14 | 0.08 | 92 | 1012.3 |
| 20260508032620 | 47 | 88 | 0.0 | 0.0 | 0.00 | 0.14 | 0.08 | 92 | 1012.3 |
| 20260508032546 | 47 | 88 | 0.0 | 0.0 | 0.00 | 0.14 | 0.08 | 92 | 1012.3 |
| 20260508032412 | 47 | 88 | 0.0 | 0.0 | 0.00 | 0.14 | 0.08 | 92 | 1012.2 |
| 20260508032325 | 47 | 88 | 0.0 | 0.0 | 0.00 | 0.14 | 0.08 | 92 | 1012.2 |
| 20260508032215 | 47 | 88 | 0.0 | 0.0 | 0.00 | 0.14 | 0.08 | 92 | 1012.2 |
| 20260508032121 | 47 | 88 | 0.0 | 0.0 | 0.00 | 0.14 | 0.08 | 92 | 1012.2 |
| 20260508032028 | 47 | 88 | 0.0 | 0.0 | 0.00 | 0.14 | 0.08 | 92 | 1012.2 |
| 20260508031915 | 47 | 88 | 0.0 | 0.0 | 0.00 | 0.14 | 0.08 | 92 | 1012.2 |
| 20260508031845 | 47 | 88 | 0.0 | 0.0 | 0.00 | 0.14 | 0.08 | 92 | 1012.2 |
| 20260508031717 | 47 | 88 | 0.0 | 0.0 | 0.00 | 0.14 | 0.08 | 92 | 1012.2 |
| 20260508031625 | 47 | 88 | 0.0 | 0.0 | 0.00 | 0.14 | 0.08 | 91 | 1012.2 |
| 20260508031551 | 47 | 88 | 0.0 | 0.0 | 0.00 | 0.14 | 0.08 | 91 | 1012.1 |
| 20260508031511 | 48 | 88 | 0.0 | 0.0 | 0.00 | 0.14 | 0.08 | 91 | 1012.2 |
| 20260508031417 | 48 | 88 | 0.0 | 0.0 | 0.00 | 0.14 | 0.08 | 91 | 1012.2 |
| 20260508031331 | 48 | 88 | 0.0 | 0.0 | 0.00 | 0.14 | 0.08 | 91 | 1012.2 |
| 20260508031209 | 48 | 88 | 0.0 | 0.0 | 0.00 | 0.14 | 0.08 | 91 | 1012.2 |
| 20260508031126 | 48 | 88 | 0.0 | 0.0 | 0.00 | 0.14 | 0.08 | 91 | 1012.1 |
| 20260508031042 | 48 | 88 | 0.0 | 0.0 | 0.00 | 0.14 | 0.08 | 91 | 1012.2 |
| 20260508030931 | 48 | 88 | 0.0 | 0.0 | 0.00 | 0.14 | 0.08 | 91 | 1012.2 |
| 20260508030810 | 48 | 88 | 0.0 | 0.0 | 0.00 | 0.14 | 0.08 | 91 | 1012.1 |
| 20260508030716 | 48 | 88 | 0.0 | 0.0 | 0.00 | 0.14 | 0.08 | 91 | 1012.1 |
| 20260508030622 | 48 | 88 | 0.0 | 0.0 | 0.00 | 0.14 | 0.08 | 91 | 1012.1 |
| 20260508030512 | 48 | 88 | 0.0 | 0.0 | 0.00 | 0.14 | 0.08 | 91 | 1012.1 |
| 20260508030425 | 48 | 88 | 0.0 | 0.0 | 0.00 | 0.14 | 0.08 | 91 | 1012.1 |
| 20260508030331 | 48 | 88 | 0.0 | 0.0 | 0.00 | 0.14 | 0.08 | 91 | 1012.1 |
| 20260508030218 | 48 | 88 | 0.0 | 0.0 | 0.00 | 0.14 | 0.08 | 91 | 1012.2 |
| 20260508030123 | 48 | 88 | 0.0 | 0.0 | 0.00 | 0.14 | 0.08 | 91 | 1012.2 |
| 20260508030057 | 48 | 88 | 0.0 | 0.0 | 0.00 | 0.14 | 0.08 | 91 | 1012.2 |
| 20260508030018 | 48 | 88 | 0.0 | 0.0 | 0.00 | 0.14 | 0.08 | 91 | 1012.0 |
| 20260508025938 | 48 | 88 | 0.0 | 0.0 | 0.00 | 0.14 | 0.08 | 91 | 1012.1 |
| 20260508025823 | 48 | 88 | 0.0 | 0.0 | 0.00 | 0.14 | 0.08 | 91 | 1012.1 |
| 20260508025736 | 48 | 88 | 0.0 | 0.0 | 0.00 | 0.14 | 0.08 | 91 | 1012.1 |
| 20260508025619 | 49 | 88 | 0.0 | 0.0 | 0.00 | 0.14 | 0.08 | 91 | 1012.1 |
| 20260508025525 | 49 | 88 | 0.0 | 0.0 | 0.00 | 0.14 | 0.08 | 91 | 1012.1 |
| 20260508025411 | 49 | 88 | 0.0 | 0.0 | 0.00 | 0.14 | 0.08 | 91 | 1012.0 |
| 20260508025321 | 49 | 88 | 0.0 | 0.0 | 0.00 | 0.14 | 0.08 | 91 | 1012.0 |
| 20260508025226 | 49 | 88 | 0.0 | 0.0 | 0.00 | 0.14 | 0.08 | 91 | 1012.0 |
| 20260508025112 | 49 | 88 | 0.0 | 0.0 | 0.00 | 0.14 | 0.08 | 91 | 1012.0 |
| 20260508025026 | 49 | 88 | 0.0 | 0.0 | 0.00 | 0.14 | 0.08 | 91 | 1012.0 |
| 20260508024940 | 49 | 88 | 0.0 | 0.0 | 0.00 | 0.14 | 0.08 | 91 | 1012.0 |
| 20260508024832 | 49 | 88 | 0.0 | 0.0 | 0.00 | 0.14 | 0.08 | 91 | 1012.0 |
| 20260508024720 | 49 | 88 | 0.0 | 0.0 | 0.00 | 0.14 | 0.08 | 91 | 1012.0 |
| 20260508024626 | 49 | 88 | 0.0 | 0.0 | 0.00 | 0.14 | 0.08 | 91 | 1012.0 |
| 20260508024600 | 49 | 88 | 0.0 | 0.0 | 0.00 | 0.14 | 0.08 | 91 | 1012.0 |
| 20260508024530 | 49 | 88 | 0.0 | 0.0 | 0.00 | 0.14 | 0.08 | 91 | 1011.9 |
| 20260508024413 | 49 | 88 | 0.0 | 0.0 | 0.00 | 0.14 | 0.08 | 91 | 1012.0 |
| 20260508024344 | 49 | 88 | 0.0 | 0.0 | 0.00 | 0.14 | 0.08 | 91 | 1012.0 |
| 20260508024227 | 49 | 88 | 0.0 | 0.0 | 0.00 | 0.14 | 0.08 | 91 | 1012.0 |
| 20260508024114 | 49 | 88 | 0.0 | 0.0 | 0.00 | 0.14 | 0.08 | 91 | 1012.0 |
| 20260508024048 | 49 | 88 | 0.0 | 0.0 | 0.00 | 0.14 | 0.08 | 91 | 1012.0 |
| 20260508023958 | 49 | 88 | 0.0 | 0.0 | 0.00 | 0.14 | 0.08 | 90 | 1012.0 |
| 20260508023819 | 50 | 88 | 0.0 | 0.0 | 0.00 | 0.14 | 0.08 | 90 | 1012.0 |
| 20260508023725 | 50 | 88 | 0.0 | 0.0 | 0.00 | 0.14 | 0.08 | 90 | 1012.0 |
| 20260508023629 | 50 | 88 | 0.0 | 0.0 | 0.00 | 0.14 | 0.08 | 91 | 1012.0 |
| 20260508023540 | 50 | 88 | 0.0 | 0.0 | 0.00 | 0.14 | 0.08 | 91 | 1012.0 |
| 20260508023409 | 50 | 88 | 0.0 | 0.0 | 0.00 | 0.14 | 0.08 | 91 | 1012.0 |
| 20260508023315 | 50 | 88 | 0.0 | 0.0 | 0.00 | 0.14 | 0.08 | 91 | 1012.0 |
| 20260508023220 | 50 | 88 | 0.0 | 0.0 | 0.00 | 0.14 | 0.08 | 91 | 1012.0 |
| 20260508023116 | 50 | 88 | 0.0 | 0.0 | 0.00 | 0.14 | 0.08 | 91 | 1012.0 |
| 20260508023029 | 50 | 88 | 0.0 | 0.0 | 0.00 | 0.14 | 0.08 | 90 | 1012.0 |
| 20260508023014 | 49 | 88 | 0.0 | 0.0 | 0.00 | 0.14 | 0.08 | 90 | 1011.8 |
| 20260508022915 | 50 | 88 | 0.0 | 0.0 | 0.00 | 0.14 | 0.08 | 90 | 1011.9 |
| 20260508022825 | 50 | 88 | 0.0 | 0.0 | 0.00 | 0.14 | 0.08 | 90 | 1011.9 |
| 20260508022711 | 50 | 88 | 0.0 | 0.0 | 0.00 | 0.14 | 0.08 | 90 | 1012.0 |
| 20260508022617 | 50 | 88 | 0.0 | 0.0 | 0.00 | 0.14 | 0.08 | 90 | 1011.9 |
| 20260508022550 | 50 | 88 | 0.0 | 0.0 | 0.00 | 0.14 | 0.08 | 90 | 1011.9 |
| 20260508022503 | 50 | 88 | 0.0 | 0.0 | 0.00 | 0.14 | 0.08 | 90 | 1011.9 |
| 20260508022336 | 50 | 88 | 0.0 | 0.0 | 0.00 | 0.14 | 0.08 | 90 | 1011.9 |
| 20260508022218 | 50 | 88 | 0.0 | 0.0 | 0.00 | 0.14 | 0.08 | 90 | 1011.9 |
| 20260508022128 | 51 | 88 | 0.0 | 0.0 | 0.00 | 0.14 | 0.08 | 90 | 1011.9 |
| 20260508022015 | 51 | 88 | 0.0 | 0.0 | 0.00 | 0.14 | 0.08 | 90 | 1011.9 |
| 20260508021948 | 51 | 88 | 0.0 | 0.0 | 0.00 | 0.14 | 0.08 | 90 | 1011.9 |
| 20260508021813 | 51 | 88 | 0.0 | 0.0 | 0.00 | 0.14 | 0.08 | 90 | 1011.8 |
| 20260508021719 | 51 | 88 | 0.0 | 0.0 | 0.00 | 0.14 | 0.08 | 90 | 1011.8 |
| 20260508021625 | 51 | 88 | 0.0 | 0.0 | 0.00 | 0.14 | 0.08 | 90 | 1011.9 |
| 20260508021539 | 50 | 88 | 0.0 | 0.0 | 0.00 | 0.14 | 0.08 | 90 | 1011.7 |
| 20260508021511 | 51 | 88 | 0.0 | 0.0 | 0.00 | 0.14 | 0.08 | 90 | 1011.8 |
| 20260508021444 | 51 | 88 | 0.0 | 0.0 | 0.00 | 0.14 | 0.08 | 90 | 1011.8 |
| 20260508021319 | 51 | 88 | 0.0 | 0.0 | 0.00 | 0.14 | 0.08 | 90 | 1011.8 |
| 20260508021227 | 51 | 88 | 0.0 | 0.0 | 0.00 | 0.14 | 0.08 | 90 | 1011.7 |
| 20260508021149 | 51 | 88 | 0.0 | 0.0 | 0.00 | 0.14 | 0.08 | 90 | 1011.7 |
| 20260508021109 | 51 | 88 | 0.0 | 0.0 | 0.00 | 0.14 | 0.08 | 90 | 1011.8 |
| 20260508020915 | 51 | 88 | 0.0 | 0.0 | 0.00 | 0.14 | 0.08 | 90 | 1011.7 |
| 20260508020827 | 51 | 88 | 0.0 | 0.0 | 0.00 | 0.14 | 0.08 | 90 | 1011.7 |
| 20260508020713 | 51 | 88 | 0.0 | 0.0 | 0.00 | 0.14 | 0.08 | 90 | 1011.7 |
| 20260508020617 | 51 | 88 | 0.0 | 0.0 | 0.00 | 0.14 | 0.08 | 90 | 1011.7 |
| 20260508020551 | 51 | 88 | 0.0 | 0.0 | 0.00 | 0.14 | 0.08 | 90 | 1011.7 |
| 20260508020507 | 52 | 88 | 0.0 | 0.0 | 0.00 | 0.14 | 0.08 | 89 | 1011.7 |
| 20260508020320 | 52 | 88 | 0.0 | 0.0 | 0.00 | 0.14 | 0.08 | 89 | 1011.7 |
| 20260508020215 | 52 | 88 | 0.0 | 0.0 | 0.00 | 0.14 | 0.08 | 89 | 1011.7 |
| 20260508020120 | 52 | 88 | 0.0 | 0.0 | 0.00 | 0.14 | 0.08 | 89 | 1011.7 |
| 20260508020058 | 51 | 88 | 0.0 | 0.0 | 0.00 | 0.14 | 0.08 | 89 | 1011.5 |
| 20260508020018 | 52 | 88 | 0.0 | 0.0 | 0.00 | 0.14 | 0.08 | 89 | 1011.7 |
| 20260508015921 | 52 | 88 | 0.0 | 0.0 | 0.00 | 0.14 | 0.08 | 89 | 1011.7 |
| 20260508015831 | 52 | 88 | 0.0 | 0.0 | 0.00 | 0.14 | 0.08 | 89 | 1011.7 |
| 20260508015733 | 52 | 88 | 0.0 | 0.0 | 0.00 | 0.14 | 0.08 | 89 | 1011.7 |
| 20260508015621 | 52 | 88 | 0.0 | 0.0 | 0.00 | 0.14 | 0.08 | 89 | 1011.7 |
| 20260508015534 | 52 | 88 | 0.0 | 0.0 | 0.00 | 0.14 | 0.08 | 89 | 1011.7 |
| 20260508015436 | 52 | 88 | 0.0 | 0.0 | 0.00 | 0.14 | 0.08 | 89 | 1011.7 |
| 20260508015344 | 52 | 88 | 0.0 | 0.0 | 0.00 | 0.14 | 0.08 | 89 | 1011.7 |
| 20260508015223 | 53 | 88 | 0.0 | 0.0 | 0.00 | 0.14 | 0.08 | 89 | 1011.7 |
| 20260508015120 | 53 | 88 | 0.0 | 0.0 | 0.00 | 0.14 | 0.08 | 89 | 1011.7 |
| 20260508015016 | 53 | 88 | 0.0 | 0.0 | 0.00 | 0.14 | 0.08 | 89 | 1011.7 |
| 20260508014927 | 53 | 88 | 0.0 | 0.0 | 0.00 | 0.14 | 0.08 | 88 | 1011.7 |
| 20260508014840 | 53 | 88 | 0.0 | 0.0 | 0.00 | 0.14 | 0.08 | 88 | 1011.7 |
| 20260508014725 | 53 | 88 | 0.0 | 0.0 | 0.00 | 0.14 | 0.08 | 88 | 1011.7 |
| 20260508014611 | 53 | 88 | 0.0 | 0.0 | 0.00 | 0.14 | 0.08 | 88 | 1011.7 |
| 20260508014538 | 53 | 88 | 0.0 | 0.0 | 0.00 | 0.14 | 0.08 | 88 | 1011.4 |
| 20260508014518 | 53 | 88 | 0.0 | 0.0 | 0.00 | 0.14 | 0.08 | 88 | 1011.6 |
| 20260508014429 | 53 | 88 | 0.0 | 0.0 | 0.00 | 0.14 | 0.08 | 88 | 1011.6 |
| 20260508014319 | 53 | 88 | 0.0 | 0.0 | 0.00 | 0.14 | 0.08 | 88 | 1011.6 |
| 20260508014225 | 53 | 88 | 0.0 | 0.0 | 0.00 | 0.14 | 0.08 | 88 | 1011.6 |
| 20260508014127 | 54 | 88 | 0.0 | 0.0 | 0.00 | 0.14 | 0.08 | 88 | 1011.6 |
| 20260508014019 | 54 | 88 | 0.0 | 0.0 | 0.00 | 0.14 | 0.08 | 88 | 1011.5 |
| 20260508013952 | 54 | 88 | 0.0 | 0.0 | 0.00 | 0.14 | 0.08 | 88 | 1011.5 |
| 20260508013923 | 54 | 88 | 0.0 | 0.0 | 0.00 | 0.14 | 0.08 | 88 | 1011.5 |
| 20260508013839 | 54 | 88 | 0.0 | 0.0 | 0.00 | 0.14 | 0.08 | 88 | 1011.5 |
| 20260508013724 | 54 | 88 | 0.0 | 0.0 | 0.00 | 0.14 | 0.08 | 88 | 1011.6 |
| 20260508013611 | 54 | 88 | 0.0 | 0.0 | 0.00 | 0.14 | 0.08 | 87 | 1011.5 |
| 20260508013517 | 54 | 88 | 0.0 | 0.0 | 0.00 | 0.14 | 0.08 | 87 | 1011.5 |
| 20260508013450 | 54 | 88 | 0.0 | 0.0 | 0.00 | 0.14 | 0.08 | 88 | 1011.5 |
| 20260508013321 | 54 | 88 | 0.0 | 0.0 | 0.00 | 0.14 | 0.08 | 87 | 1011.5 |
| 20260508013226 | 54 | 88 | 0.0 | 0.0 | 0.00 | 0.14 | 0.08 | 87 | 1011.5 |
| 20260508013140 | 54 | 88 | 0.0 | 0.0 | 0.00 | 0.14 | 0.08 | 87 | 1011.5 |
| 20260508013107 | 54 | 88 | 0.0 | 0.0 | 0.00 | 0.14 | 0.08 | 87 | 1011.3 |
| 20260508013020 | 54 | 88 | 0.0 | 0.0 | 0.00 | 0.14 | 0.08 | 87 | 1011.4 |
| 20260508012920 | 54 | 88 | 0.0 | 0.0 | 0.00 | 0.14 | 0.08 | 87 | 1011.4 |
| 20260508012850 | 54 | 88 | 0.0 | 0.0 | 0.00 | 0.14 | 0.08 | 87 | 1011.4 |
| 20260508012739 | 55 | 88 | 0.0 | 0.0 | 0.00 | 0.14 | 0.08 | 87 | 1011.3 |
| 20260508012648 | 55 | 88 | 0.0 | 0.0 | 0.00 | 0.14 | 0.08 | 87 | 1011.3 |
| 20260508012517 | 55 | 88 | 0.0 | 0.0 | 0.00 | 0.14 | 0.08 | 87 | 1011.3 |
| 20260508012420 | 55 | 88 | 0.0 | 0.0 | 0.00 | 0.14 | 0.08 | 87 | 1011.3 |
| 20260508012331 | 55 | 88 | 0.0 | 0.0 | 0.00 | 0.14 | 0.08 | 87 | 1011.3 |
| 20260508012223 | 55 | 88 | 0.0 | 0.0 | 0.00 | 0.14 | 0.08 | 87 | 1011.3 |
| 20260508012129 | 55 | 88 | 0.0 | 0.0 | 0.00 | 0.14 | 0.08 | 87 | 1011.3 |
| 20260508012058 | 55 | 88 | 0.0 | 0.0 | 0.00 | 0.14 | 0.08 | 87 | 1011.2 |
| 20260508011918 | 55 | 88 | 0.0 | 0.0 | 0.00 | 0.14 | 0.08 | 87 | 1011.2 |
| 20260508011819 | 55 | 88 | 0.0 | 0.0 | 0.00 | 0.14 | 0.08 | 87 | 1011.2 |
| 20260508011725 | 55 | 88 | 0.0 | 0.0 | 0.00 | 0.14 | 0.08 | 87 | 1011.2 |
| 20260508011616 | 55 | 88 | 0.0 | 0.0 | 0.00 | 0.14 | 0.08 | 87 | 1011.2 |
| 20260508011529 | 55 | 88 | 0.0 | 0.0 | 0.00 | 0.14 | 0.08 | 87 | 1011.2 |
| 20260508011506 | 54 | 88 | 0.0 | 0.0 | 0.00 | 0.14 | 0.08 | 87 | 1011.0 |
| 20260508011434 | 55 | 88 | 0.0 | 0.0 | 0.00 | 0.14 | 0.08 | 87 | 1011.2 |
| 20260508011359 | 55 | 88 | 0.0 | 0.0 | 0.00 | 0.14 | 0.08 | 87 | 1011.2 |
| 20260508011218 | 55 | 75 | 0.0 | 0.0 | 0.00 | 0.14 | 0.08 | 87 | 1011.1 |
| 20260508011118 | 55 | 75 | 0.0 | 0.0 | 0.00 | 0.14 | 0.08 | 87 | 1011.1 |
| 20260508011025 | 55 | 75 | 0.0 | 0.0 | 0.00 | 0.14 | 0.08 | 87 | 1011.1 |
| 20260508010935 | 55 | 75 | 0.0 | 0.0 | 0.00 | 0.14 | 0.08 | 86 | 1011.1 |
| 20260508010820 | 55 | 75 | 0.0 | 0.0 | 0.00 | 0.14 | 0.08 | 87 | 1011.1 |
| 20260508010742 | 55 | 75 | 0.0 | 0.0 | 0.00 | 0.14 | 0.08 | 86 | 1011.1 |
| 20260508010627 | 55 | 75 | 0.0 | 0.0 | 0.00 | 0.14 | 0.08 | 86 | 1011.1 |
| 20260508010541 | 55 | 75 | 0.0 | 0.0 | 0.00 | 0.14 | 0.08 | 86 | 1011.1 |
| 20260508010409 | 55 | 75 | 0.0 | 0.0 | 0.00 | 0.14 | 0.08 | 86 | 1011.1 |
| 20260508010317 | 55 | 75 | 0.0 | 0.0 | 0.00 | 0.14 | 0.08 | 86 | 1011.1 |
| 20260508010222 | 55 | 75 | 0.0 | 0.0 | 0.00 | 0.14 | 0.08 | 86 | 1011.1 |
| 20260508010135 | 55 | 75 | 0.0 | 0.0 | 0.00 | 0.14 | 0.08 | 86 | 1011.0 |
| 20260508010028 | 55 | 75 | 0.0 | 0.0 | 0.00 | 0.14 | 0.08 | 86 | 1011.0 |
| 20260508005923 | 55 | 75 | 0.0 | 0.0 | 0.00 | 0.14 | 0.08 | 86 | 1011.0 |
| 20260508005839 | 55 | 75 | 0.0 | 0.0 | 0.00 | 0.14 | 0.08 | 86 | 1011.0 |
| 20260508005722 | 55 | 75 | 0.0 | 0.0 | 0.00 | 0.14 | 0.08 | 86 | 1011.0 |
| 20260508005619 | 55 | 75 | 0.0 | 0.0 | 0.00 | 0.14 | 0.08 | 86 | 1011.0 |
| 20260508005546 | 55 | 80 | 0.0 | 0.0 | 0.00 | 0.14 | 0.08 | 86 | 1011.0 |
| 20260508005430 | 55 | 74 | 0.0 | 0.0 | 0.00 | 0.14 | 0.08 | 86 | 1011.0 |
| 20260508005310 | 55 | 51 | 0.0 | 0.0 | 0.00 | 0.14 | 0.08 | 86 | 1011.0 |
| 20260508005243 | 55 | 51 | 0.0 | 0.0 | 0.00 | 0.14 | 0.08 | 86 | 1011.0 |
| 20260508005133 | 55 | 51 | 0.0 | 0.0 | 0.00 | 0.14 | 0.08 | 86 | 1011.0 |
| 20260508005017 | 55 | 51 | 0.0 | 0.0 | 0.00 | 0.14 | 0.08 | 86 | 1011.0 |
| 20260508004947 | 55 | 69 | 0.0 | 0.0 | 0.00 | 0.14 | 0.08 | 86 | 1011.0 |
| 20260508004811 | 55 | 69 | 0.0 | 0.0 | 0.00 | 0.14 | 0.08 | 86 | 1011.0 |
| 20260508004713 | 55 | 57 | 0.0 | 0.0 | 0.00 | 0.14 | 0.08 | 86 | 1011.0 |
| 20260508004625 | 55 | 71 | 0.0 | 0.0 | 0.00 | 0.14 | 0.08 | 86 | 1011.0 |
| 20260508004515 | 55 | 51 | 0.0 | 0.0 | 0.00 | 0.14 | 0.08 | 86 | 1011.0 |
| 20260508004505 | 55 | 51 | 0.0 | 0.0 | 0.00 | 0.14 | 0.08 | 86 | 1010.8 |
| 20260508004435 | 55 | 57 | 0.0 | 0.0 | 0.00 | 0.14 | 0.08 | 86 | 1011.0 |
| 20260508004328 | 55 | 57 | 0.0 | 0.0 | 0.00 | 0.14 | 0.08 | 86 | 1011.0 |
| 20260508004235 | 55 | 57 | 0.0 | 0.0 | 0.00 | 0.14 | 0.08 | 86 | 1011.0 |
| 20260508004140 | 55 | 282 | 0.0 | 0.0 | 0.00 | 0.14 | 0.08 | 86 | 1011.0 |
| 20260508004016 | 55 | 23 | 0.0 | 0.0 | 0.00 | 0.14 | 0.08 | 86 | 1010.9 |
| 20260508003929 | 55 | 93 | 0.0 | 0.0 | 0.00 | 0.14 | 0.08 | 86 | 1010.9 |
| 20260508003815 | 55 | 93 | 0.0 | 0.0 | 0.00 | 0.14 | 0.08 | 86 | 1010.9 |
| 20260508003722 | 55 | 128 | 0.0 | 0.0 | 0.00 | 0.14 | 0.08 | 86 | 1010.9 |
| 20260508003618 | 55 | 46 | 0.0 | 0.0 | 0.00 | 0.14 | 0.08 | 86 | 1010.9 |
| 20260508003532 | 55 | 46 | 0.0 | 0.0 | 0.00 | 0.14 | 0.08 | 86 | 1011.0 |
| 20260508003438 | 55 | 46 | 0.0 | 0.0 | 0.00 | 0.14 | 0.08 | 86 | 1011.0 |
| 20260508003321 | 55 | 46 | 0.0 | 0.0 | 0.00 | 0.14 | 0.08 | 86 | 1010.9 |
| 20260508003212 | 55 | 52 | 0.0 | 0.0 | 0.00 | 0.14 | 0.08 | 86 | 1010.9 |
| 20260508003118 | 55 | 52 | 0.0 | 0.0 | 0.00 | 0.14 | 0.08 | 86 | 1010.9 |
| 20260508003043 | 55 | 52 | 0.0 | 0.0 | 0.00 | 0.14 | 0.08 | 86 | 1010.6 |
| 20260508003024 | 55 | 42 | 0.0 | 0.0 | 0.00 | 0.14 | 0.08 | 86 | 1010.9 |
| 20260508002911 | 55 | 46 | 0.0 | 0.0 | 0.00 | 0.14 | 0.08 | 86 | 1010.8 |
| 20260508002844 | 55 | 64 | 0.0 | 0.0 | 0.00 | 0.14 | 0.08 | 86 | 1010.8 |
| 20260508002714 | 56 | 64 | 0.0 | 0.0 | 0.00 | 0.14 | 0.08 | 86 | 1010.8 |
| 20260508002621 | 56 | 59 | 0.0 | 0.0 | 0.00 | 0.14 | 0.08 | 86 | 1010.8 |
| 20260508002535 | 56 | 12 | 0.0 | 0.0 | 0.00 | 0.14 | 0.08 | 86 | 1010.8 |
| 20260508002429 | 56 | 12 | 0.0 | 0.0 | 0.00 | 0.14 | 0.08 | 86 | 1010.8 |
| 20260508002335 | 56 | 147 | 0.0 | 0.0 | 0.00 | 0.14 | 0.08 | 85 | 1010.8 |
| 20260508002218 | 56 | 147 | 0.0 | 0.0 | 0.00 | 0.14 | 0.08 | 85 | 1010.8 |
| 20260508002132 | 56 | 147 | 0.0 | 0.0 | 0.00 | 0.14 | 0.08 | 85 | 1010.7 |
| 20260508002019 | 56 | 147 | 0.0 | 0.0 | 0.00 | 0.14 | 0.08 | 86 | 1010.7 |
| 20260508001925 | 56 | 147 | 0.0 | 0.0 | 0.00 | 0.14 | 0.08 | 86 | 1010.7 |
| 20260508001811 | 56 | 147 | 0.0 | 0.0 | 0.00 | 0.14 | 0.08 | 86 | 1010.6 |
| 20260508001745 | 56 | 147 | 0.0 | 0.0 | 0.00 | 0.14 | 0.08 | 86 | 1010.6 |
| 20260508001650 | 56 | 147 | 0.0 | 0.0 | 0.00 | 0.14 | 0.08 | 85 | 1010.6 |
| 20260508001544 | 55 | 147 | 0.0 | 0.0 | 0.00 | 0.14 | 0.08 | 85 | 1010.4 |
| 20260508001533 | 56 | 147 | 0.0 | 0.0 | 0.00 | 0.14 | 0.08 | 85 | 1010.6 |
| 20260508001429 | 56 | 147 | 0.0 | 0.0 | 0.00 | 0.14 | 0.08 | 85 | 1010.6 |
| 20260508001336 | 56 | 147 | 0.0 | 0.0 | 0.00 | 0.14 | 0.08 | 85 | 1010.5 |
| 20260508001221 | 56 | 147 | 0.0 | 0.0 | 0.00 | 0.14 | 0.08 | 85 | 1010.5 |
| 20260508001135 | 56 | 147 | 0.0 | 0.0 | 0.00 | 0.14 | 0.08 | 85 | 1010.5 |
| 20260508001053 | 56 | 147 | 0.0 | 0.0 | 0.00 | 0.14 | 0.08 | 85 | 1010.5 |
| 20260508001006 | 56 | 147 | 0.0 | 0.0 | 0.00 | 0.14 | 0.08 | 85 | 1010.4 |
| 20260508000856 | 56 | 147 | 0.0 | 0.0 | 0.00 | 0.14 | 0.08 | 85 | 1010.5 |
| 20260508000722 | 56 | 147 | 0.0 | 0.0 | 0.00 | 0.14 | 0.08 | 85 | 1010.5 |
| 20260508000626 | 56 | 147 | 0.0 | 0.0 | 0.00 | 0.14 | 0.08 | 85 | 1010.5 |
| 20260508000525 | 56 | 195 | 0.0 | 0.0 | 0.00 | 0.14 | 0.08 | 84 | 1010.4 |
| 20260508000412 | 56 | 48 | 0.0 | 0.0 | 0.00 | 0.14 | 0.08 | 84 | 1010.4 |
| 20260508000327 | 56 | 36 | 0.0 | 0.0 | 0.00 | 0.14 | 0.08 | 84 | 1010.4 |
| 20260508000252 | 56 | 36 | 0.0 | 0.0 | 0.00 | 0.14 | 0.08 | 84 | 1010.4 |
| 20260508000114 | 56 | 31 | 0.0 | 0.0 | 0.00 | 0.14 | 0.08 | 84 | 1010.4 |
| 20260508000034 | 56 | 31 | 0.0 | 0.0 | 0.00 | 0.14 | 0.08 | 84 | 1010.2 |
| 20260508000014 | 56 | 31 | 0.0 | 0.0 | 0.00 | 0.14 | 0.08 | 84 | 1010.4 |
| 20260507235927 | 56 | 31 | 0.0 | 0.0 | 0.00 | 0.14 | 0.08 | 84 | 1010.4 |
| 20260507235813 | 56 | 31 | 0.0 | 0.0 | 0.00 | 0.14 | 0.08 | 84 | 1010.4 |
| 20260507235720 | 56 | 31 | 0.0 | 0.0 | 0.00 | 0.14 | 0.08 | 84 | 1010.4 |
| 20260507235627 | 56 | 43 | 0.0 | 0.0 | 0.00 | 0.14 | 0.08 | 84 | 1010.3 |
| 20260507235540 | 56 | 57 | 0.0 | 0.0 | 0.00 | 0.14 | 0.08 | 84 | 1010.4 |
| 20260507235410 | 56 | 57 | 0.0 | 0.0 | 0.00 | 0.14 | 0.08 | 84 | 1010.4 |
| 20260507235312 | 56 | 56 | 0.0 | 0.0 | 0.00 | 0.14 | 0.08 | 84 | 1010.4 |
| 20260507235216 | 56 | 55 | 0.0 | 0.0 | 0.00 | 0.14 | 0.08 | 83 | 1010.4 |
| 20260507235119 | 56 | 58 | 0.0 | 0.0 | 0.00 | 0.14 | 0.08 | 84 | 1010.4 |
| 20260507235032 | 56 | 58 | 0.0 | 0.0 | 0.00 | 0.14 | 0.08 | 84 | 1010.3 |
| 20260507234921 | 56 | 51 | 0.0 | 0.0 | 0.00 | 0.14 | 0.08 | 84 | 1010.3 |
| 20260507234847 | 56 | 46 | 0.0 | 0.0 | 0.00 | 0.14 | 0.08 | 84 | 1010.3 |
| 20260507234759 | 56 | 5 | 0.0 | 0.0 | 0.00 | 0.14 | 0.08 | 84 | 1010.3 |
| 20260507234711 | 56 | 5 | 0.0 | 0.0 | 0.00 | 0.14 | 0.08 | 84 | 1010.3 |
| 20260507234622 | 56 | 5 | 0.0 | 0.0 | 0.00 | 0.14 | 0.08 | 84 | 1010.0 |
| 20260507234538 | 56 | 5 | 0.0 | 0.0 | 0.00 | 0.14 | 0.08 | 84 | 1010.3 |
| 20260507234423 | 56 | 5 | 0.0 | 0.0 | 0.00 | 0.14 | 0.08 | 83 | 1010.3 |
| 20260507234309 | 56 | 5 | 0.0 | 0.0 | 0.00 | 0.14 | 0.08 | 83 | 1010.3 |
| 20260507234216 | 56 | 55 | 0.0 | 0.0 | 0.00 | 0.14 | 0.08 | 83 | 1010.2 |
| 20260507234132 | 56 | 55 | 0.0 | 0.0 | 0.00 | 0.14 | 0.08 | 83 | 1010.2 |